GFSCGP_850_dewp_000.txt.gz
Dewpoint
-3 -5 -2 -4 -4 -4 -4 -4 -5 -8 -7 -5 -6 -6 -8 -9 -9 -8 -6 -6 -6 -5 -4 -4 -4 -5 -7 -8 -11 -13 -13 -15 -14 -10 -7 -6 -6 -5 -4 -5 -8 -6 -6 -5
-3 -2 -4 -4 -5 -4 -4 -3 -4 -6 -6 -5 -5 -5 -8 -9 -9 -7 -6 -6 -5 -5 -4 -4 -4 -4 -5 -6 -7 -7 -8 -10 -11 -8 -8 -8 -8 -7 -7 -6 -4 -4 -6 -5
-2 -3 -5 -4 -4 -4 -4 -3 -4 -3 -4 -6 -5 -8 -8 -9 -7 -6 -6 -5 -5 -5 -5 -4 -4 -4 -3 -4 -5 -6 -7 -8 -8 -10 -10 -9 -9 -9 -7 -6 -6 -4 -5 -4
-4 -3 -4 -4 -4 -4 -2 -5 -4 -3 -2 -4 -5 -4 -6 -7 -7 -8 -6 -6 -6 -6 -5 -5 -5 -4 -3 -3 -3 -5 -7 -7 -8 -13 -9 -11 -9 -9 -9 -8 -7 -6 -5 -6
-2 -3 -4 -3 -3 -4 -3 -4 -3 -3 -2 -2 -3 -2 -5 -5 -7 -7 -7 -6 -5 -5 -5 -5 -5 -5 -4 -3 -3 -7 -7 -7 -8 -10 -14 -7 -6 -8 -7 -6 -7 -5 -9 -12
-5 -4 -4 -4 -5 -5 -5 -3 -2 -2 -2 2 -2 -2 -4 -5 -5 -6 -7 -6 -5 -5 -5 -6 -7 -7 -5 -4 -6 -7 -8 -6 -7 -10 -13 -13 -12 -7 -7 -6 -6 -7 -7 -7
-5 -4 -4 -4 -3 -4 -2 -1 4 3 3 2 -2 -1 -2 -5 -6 -5 -5 -5 -5 -4 -4 -4 -5 -6 -6 -5 -6 -7 -8 -6 -6 -10 -11 -12 -11 -6 -6 -7 -8 -9 -8 -8
0 -1 -5 -3 -2 -0 -2 -1 3 8 4 2 -2 0 -4 -6 -6 -5 -5 -5 -4 -4 -3 -4 -5 -5 -5 -6 -5 -5 -7 -8 -6 -9 -10 -10 -10 -8 -8 -11 -12 -13 -13 -14
2 1 -2 -3 -2 -2 -0 2 -2 1 1 3 0 -2 -4 -5 -5 -5 -5 -4 -3 -3 -3 -3 -4 -6 -6 -4 -5 -5 -7 -7 -7 -9 -10 -10 -11 -12 -12 -13 -15 -13 -15 -13
1 4 -0 -2 -2 -3 -1 -3 3 2 9 7 0 0 -1 -3 -3 -4 -3 -3 -3 -2 -2 -2 -2 -3 -3 -3 -4 -5 -8 -8 -8 -9 -10 -11 -12 -12 -14 -15 -16 -16 -17 -16
-0 2 2 1 1 2 2 2 -1 -0 2 7 7 2 -3 -2 -3 -2 -3 -3 -2 -2 -1 -2 -2 -2 -2 -3 -4 -6 -9 -8 -9 -10 -11 -12 -13 -14 -15 -15 -15 -13 -13 -15
1 3 5 3 -0 -2 -0 2 1 5 5 4 5 5 -2 -2 -3 -3 -2 -2 -2 -2 -2 -2 -1 -1 -3 -4 -5 -7 -8 -8 -11 -12 -13 -13 -14 -14 -15 -12 -12 -11 -10 -10
2 4 6 3 -0 -1 1 -0 0 2 4 6 8 5 -3 -3 -3 -2 -2 -2 -2 -2 -2 -1 -0 -2 -5 -5 -6 -7 -8 -11 -13 -12 -12 -12 -13 -14 -9 -9 -9 -10 -9 -9
1 4 5 6 3 2 4 2 2 3 7 6 6 4 2 -0 -1 -2 -2 -2 -1 -2 -2 -0 1 -3 -6 -6 -7 -8 -10 -13 -9 -7 -10 -13 -10 -12 -10 -11 -13 -13 -11 -12
3 6 3 3 2 2 3 3 2 3 4 6 5 3 1 -0 -1 -1 -2 -2 -2 -2 1 1 -1 -4 -7 -7 -8 -11 -9 -8 -5 -7 -10 -9 -12 -13 -12 -12 -15 -14 -12 -13
2 5 4 5 3 3 4 3 3 2 2 2 3 4 0 -1 -2 -2 -2 -1 -2 -0 1 0 -2 -5 -8 -9 -9 -6 -5 -4 -5 -10 -9 -10 -13 -12 -12 -16 -14 -13 -13 -13
4 5 7 7 3 4 7 5 3 2 1 2 4 2 -1 -2 -2 -2 -2 -1 1 1 0 2 -3 -7 -10 -9 -5 -4 -3 -5 -9 -9 -10 -12 -11 -13 -15 -15 -13 -14 -14 -13
6 5 6 7 7 8 0 -3 -2 -0 -1 -1 -1 -0 -2 -2 -2 1 2 1 2 2 2 1 -4 -8 -8 -4 -4 -2 -5 -6 -8 -10 -13 -11 -12 -14 -15 -13 -14 -14 -13 -13
3 6 7 8 7 3 1 -1 -0 1 1 -2 -2 -2 -1 1 2 2 1 1 2 3 2 -2 -1 -3 -2 -2 -1 -3 -6 -9 -10 -13 -11 -13 -13 -15 -14 -14 -14 -14 -13 -12
1 4 6 8 7 7 2 -2 -3 -4 3 -2 -2 1 2 2 5 3 2 2 2 2 2 0 0 -1 -1 -1 -3 -7 -9 -10 -10 -11 -12 -9 -14 -14 -13 -14 -14 -13 -12 -10
6 5 5 6 6 5 -0 -3 -2 4 4 0 1 2 2 3 2 3 2 2 2 1 2 1 0 -1 -1 -3 -6 -6 -9 -10 -12 -10 -10 -14 -13 -13 -13 -14 -13 -13 -10 -10
6 7 6 6 7 7 -1 -3 3 1 2 1 1 2 2 2 3 3 2 2 1 1 1 -0 -3 -2 -3 -3 -6 -9 -10 -11 -10 -10 -13 -13 -12 -12 -14 -14 -13 -11 -9 -10
6 5 6 3 4 -0 -0 0 1 1 2 2 2 2 2 4 3 3 1 1 1 1 -1 -2 -2 -3 -4 -8 -10 -10 -11 -11 -11 -13 -12 -11 -11 -13 -14 -13 -11 -10 -10 -10
3 2 4 5 2 1 1 2 2 2 2 2 3 3 4 3 2 1 1 1 0 -1 -1 -2 -3 -6 -8 -11 -13 -12 -12 -11 -12 -13 -10 -9 -12 -17 -14 -12 -11 -10 -10 -10
3 3 4 5 4 2 2 1 1 2 2 2 2 3 4 3 2 1 1 0 -1 -2 -2 -3 -6 -8 -9 -11 -11 -11 -11 -11 -12 -10 -9 -10 -15 -17 -13 -11 -10 -10 -11 -11
4 4 5 5 2 2 3 1 1 1 2 3 3 3 3 3 2 1 -0 -1 -1 -2 -3 -4 -7 -10 -10 -11 -11 -10 -11 -13 -10 -9 -9 -14 -21 -15 -11 -11 -10 -10 -11 -11

GFSCGP_850_dewp_003.txt.gz
Dewpoint
-6 -4 -4 -5 -5 -5 -5 -4 -4 -6 -7 -5 -5 -5 -8 -10 -11 -11 -10 -8 -8 -8 -7 -5 -4 -3 -3 -4 -3 -5 -4 -5 -5 -6 -6 -5 -4 -3 -3 -4 -3 -3 -4 -3
-3 -2 -5 -6 -5 -5 -5 -4 -4 -5 -6 -4 -4 -6 -9 -10 -9 -9 -8 -7 -6 -6 -5 -4 -4 -3 -2 -3 -3 -4 -5 -5 -4 -6 -5 -6 -5 -5 -5 -4 -3 -2 -2 -3
-5 -3 -5 -6 -6 -4 -5 -3 -3 -3 -4 -5 -5 -6 -8 -8 -8 -8 -7 -6 -6 -6 -6 -5 -4 -3 -2 -2 -2 -3 -5 -5 -5 -5 -7 -6 -5 -5 -6 -6 -4 -2 -2 -2
-5 -5 -5 -5 -5 -4 -3 -4 -3 -2 -1 -2 -5 -4 -7 -8 -8 -8 -7 -6 -5 -5 -5 -5 -5 -4 -3 -2 -1 -2 -3 -4 -5 -5 -6 -7 -7 -7 -7 -7 -7 -7 -5 -3
-2 -6 -6 -5 -4 -4 -2 -3 -2 -1 -1 -1 -3 -3 -6 -7 -7 -8 -7 -6 -5 -5 -5 -4 -4 -4 -4 -3 -1 -1 -2 -3 -5 -6 -5 -7 -7 -6 -6 -6 -5 -5 -4 -3
-7 -7 -5 -5 -4 -4 -4 -1 -2 -1 -1 3 -0 -3 -5 -6 -7 -7 -7 -6 -5 -4 -4 -4 -4 -4 -4 -3 -1 -0 -1 -2 -4 -5 -5 -5 -7 -6 -6 -6 -5 -5 -5 -6
-5 -5 -5 -4 -2 -2 -2 -0 4 4 3 3 -2 -1 -3 -6 -7 -7 -6 -6 -5 -4 -3 -3 -3 -3 -4 -4 -3 -1 -1 -2 -3 -4 -5 -5 -4 -4 -4 -4 -5 -6 -6 -7
-0 1 -4 -3 -2 1 0 0 5 8 4 3 -2 -1 -3 -7 -7 -7 -6 -5 -4 -3 -2 -2 -2 -2 -3 -3 -3 -3 -2 -2 -3 -4 -4 -4 -3 -3 -3 -5 -7 -9 -9 -7
2 1 -2 -3 -2 -1 1 3 -0 3 3 5 1 -3 -5 -6 -6 -5 -5 -4 -3 -3 -2 -1 -1 -2 -2 -2 -2 -2 -2 -2 -3 -4 -4 -3 -3 -4 -6 -7 -7 -9 -8 -9
2 4 -0 -1 -1 -2 0 -1 4 4 10 7 2 1 -0 -3 -3 -5 -4 -3 -3 -2 -2 -1 -1 -1 -1 -1 -1 -1 -1 -2 -2 -4 -4 -3 -4 -6 -9 -9 -8 -10 -9 -8
1 3 3 1 1 2 2 3 1 1 3 8 7 3 -2 -1 -1 -2 -3 -3 -2 -2 -1 -1 -1 -1 -0 0 -1 -2 -2 -2 -2 -5 -4 -5 -5 -7 -8 -10 -9 -8 -9 -10
2 3 6 4 -0 -2 -1 1 2 5 5 5 7 6 -1 -2 -2 -3 -2 -2 -2 -2 -1 -1 -1 -0 -0 -0 -2 -3 -3 -4 -5 -5 -5 -6 -7 -10 -8 -8 -7 -8 -8 -9
1 4 6 2 1 -0 1 0 0 1 4 7 9 6 -3 -3 -2 -2 -3 -3 -2 -2 -1 -1 -1 0 0 -1 -3 -4 -4 -5 -6 -6 -6 -7 -8 -7 -6 -7 -8 -8 -9 -9
1 3 5 6 4 2 4 2 1 3 8 7 7 5 1 -0 -1 -2 -2 -2 -2 -2 -1 -1 -0 0 1 -1 -3 -5 -5 -5 -7 -7 -8 -6 -6 -6 -7 -7 -7 -8 -8 -9
3 6 4 3 2 1 2 2 1 2 3 6 4 3 1 -1 -2 -2 -2 -2 -2 -1 -1 -0 1 2 3 -2 -5 -5 -6 -7 -7 -6 -5 -4 -5 -6 -6 -7 -8 -8 -9 -10
2 6 5 6 3 2 4 2 1 1 1 1 1 2 -2 -2 -2 -2 -1 -1 0 0 -0 0 2 3 2 -3 -5 -6 -7 -6 -4 -3 -3 -5 -6 -6 -7 -8 -8 -9 -11 -12
5 6 7 6 3 5 7 5 3 2 -0 0 3 1 -2 -2 -2 -1 0 1 1 1 1 2 3 2 1 -3 -6 -7 -5 -2 -0 -3 -4 -5 -7 -8 -8 -9 -9 -11 -12 -12
6 7 6 7 8 8 0 -2 -2 -1 -2 -2 -2 -2 -2 -1 0 1 1 1 3 3 1 2 3 2 -1 -2 -4 -3 -0 -1 -3 -4 -6 -8 -8 -8 -8 -9 -12 -12 -12 -12
2 6 7 8 6 4 2 -1 -0 1 1 -2 -1 -1 0 1 2 3 2 3 3 2 2 2 2 2 -0 0 0 -0 -1 -3 -5 -8 -8 -9 -9 -8 -10 -12 -12 -12 -12 -11
1 5 6 8 8 7 1 -1 -2 -2 3 0 1 1 2 3 5 4 3 3 3 2 1 1 2 1 1 -0 -1 -2 -4 -7 -8 -8 -9 -9 -9 -10 -12 -12 -11 -12 -12 -11
6 6 6 6 7 4 0 -2 -2 5 4 2 2 2 2 3 3 3 4 2 1 1 1 1 1 1 -0 -1 -2 -6 -6 -6 -9 -10 -8 -9 -10 -12 -11 -12 -12 -12 -11 -10
5 7 7 7 7 8 -2 -1 4 4 2 1 2 2 3 3 3 4 3 2 1 0 1 -0 -0 -0 -1 -2 -3 -6 -9 -10 -10 -9 -9 -10 -11 -10 -11 -12 -13 -11 -10 -10
4 3 6 4 4 0 0 1 1 1 1 3 3 2 3 3 3 3 2 1 0 2 -1 -0 -1 -1 -2 -5 -8 -9 -9 -11 -10 -9 -10 -10 -9 -10 -12 -13 -12 -11 -11 -10
4 2 5 5 2 1 0 1 2 3 3 1 2 2 2 2 3 3 2 1 1 -0 -1 -1 -1 -2 -5 -8 -9 -10 -10 -10 -10 -9 -9 -9 -9 -11 -12 -11 -11 -11 -10 -10
3 3 4 5 3 2 3 3 1 2 1 1 2 2 2 3 2 3 2 -0 -1 -1 -1 -2 -3 -4 -7 -8 -9 -9 -10 -10 -11 -9 -9 -8 -10 -11 -11 -10 -11 -11 -10 -10
3 4 5 5 3 4 2 -0 -1 0 2 2 1 -2 -3 -1 1 2 0 -1 -1 -2 -2 -2 -5 -7 -9 -9 -9 -9 -9 -11 -12 -10 -7 -8 -11 -11 -10 -11 -11 -10 -10 -11

GFSCGP_850_dewp_006.txt.gz
Dewpoint
-8 -3 -4 -6 -5 -6 -6 -5 -4 -5 -7 -5 -4 -5 -7 -10 -11 -10 -10 -9 -8 -8 -8 -7 -5 -4 -3 -3 -3 -3 -4 -3 -4 -4 -4 -4 -4 -3 -2 -3 -3 -2 -2 -3
-7 -2 -6 -7 -7 -6 -8 -5 -3 -5 -5 -4 -4 -4 -7 -9 -8 -9 -9 -7 -6 -6 -6 -5 -4 -3 -3 -2 -2 -2 -3 -4 -4 -4 -5 -5 -5 -4 -3 -3 -3 -3 -4 -3
-7 -3 -8 -7 -6 -4 -6 -2 -2 -2 -3 -4 -4 -6 -6 -9 -8 -8 -6 -6 -6 -5 -5 -5 -4 -4 -3 -2 -1 -2 -2 -3 -4 -4 -4 -5 -5 -5 -5 -5 -4 -4 -5 -2
-5 -6 -7 -6 -5 -5 -3 -4 -2 -1 -0 1 -3 -2 -7 -8 -7 -7 -7 -5 -5 -4 -4 -4 -4 -4 -4 -3 -2 -1 -1 -2 -3 -4 -4 -5 -6 -5 -5 -7 -7 -6 -4 -2
-1 -5 -8 -5 -4 -5 -2 -3 -1 -1 0 -0 -2 -3 -6 -7 -8 -7 -6 -6 -5 -4 -4 -4 -4 -3 -3 -3 -3 -2 -1 -2 -2 -3 -4 -5 -5 -6 -6 -5 -6 -6 -5 -5
-9 -8 -6 -6 -5 -4 -3 -1 -1 -1 0 6 0 -1 -2 -5 -6 -8 -7 -6 -5 -4 -3 -3 -3 -3 -3 -3 -3 -3 -2 -1 -2 -2 -3 -4 -5 -5 -5 -5 -5 -5 -5 -4
-4 -5 -6 -4 -2 -3 -1 1 7 9 9 8 -1 -0 -1 -4 -6 -7 -6 -6 -5 -4 -3 -2 -2 -2 -2 -2 -3 -3 -2 -2 -2 -1 -1 -2 -4 -4 -5 -5 -4 -5 -5 -4
1 2 -4 -3 -2 0 0 1 8 8 6 6 0 1 -3 -7 -7 -7 -6 -5 -4 -3 -2 -2 -1 -1 -1 -1 -1 -1 -2 -3 -2 -2 -1 -2 -3 -4 -4 -3 -3 -4 -5 -5
4 2 -2 -2 -3 -1 0 3 1 4 5 7 4 0 -2 -5 -6 -5 -4 -4 -3 -3 -2 -1 -1 -1 -1 -1 0 0 0 -0 -1 -1 -1 -2 -3 -3 -3 -3 -3 -5 -7 -7
2 5 0 -1 -1 -1 -0 -0 5 7 10 7 2 3 2 -0 -0 -1 -1 -2 -1 -1 -1 -1 -1 -1 -1 -0 0 -0 -0 -1 -1 -2 -2 -2 -4 -3 -2 -4 -5 -6 -6 -4
1 4 4 2 2 2 1 2 3 2 5 8 9 4 0 1 0 0 -1 -1 -1 -1 -1 -1 -1 -1 -0 0 0 -0 -1 -2 -3 -2 -2 -2 -4 -3 -3 -5 -6 -3 -4 -4
2 4 7 4 0 -2 -1 1 2 8 7 6 7 6 0 0 -1 -1 -1 -2 -1 -1 -1 -1 -1 -1 0 1 1 1 -1 -3 -4 -3 -4 -4 -4 -4 -6 -7 -6 -4 -4 -4
2 5 6 3 2 0 2 1 1 2 6 7 9 7 -0 -0 -0 -1 -1 -1 -1 -1 -1 -0 -0 0 1 1 1 2 -1 -4 -4 -4 -5 -5 -5 -6 -7 -6 -5 -3 -5 -7
2 3 5 7 5 3 4 2 1 3 6 5 5 4 1 -0 -0 -1 -1 -1 -1 -1 -0 -0 0 1 1 1 2 1 -3 -5 -5 -5 -6 -6 -7 -7 -5 -5 -5 -5 -7 -8
3 6 4 3 2 3 3 3 2 3 2 4 3 2 -0 -1 -2 -1 -0 0 0 0 1 2 2 1 1 2 2 -1 -3 -5 -5 -6 -7 -6 -5 -4 -3 -4 -5 -7 -7 -8
3 7 6 6 4 3 3 3 3 2 1 1 1 2 -2 -3 -1 -0 1 1 2 3 3 3 2 1 2 2 2 -2 -5 -6 -7 -6 -4 -2 -1 -3 -3 -5 -7 -8 -8 -9
5 7 6 7 4 5 6 4 2 2 0 0 3 0 -2 -2 1 1 2 2 3 3 3 3 2 0 2 1 0 -0 -4 -4 -4 -2 -1 -2 -2 -4 -6 -7 -8 -8 -9 -11
5 6 5 7 6 7 1 -1 -1 1 0 -0 -1 -2 -2 -0 3 2 3 3 3 4 3 2 1 1 2 1 1 0 1 0 -1 -1 -2 -3 -5 -7 -7 -8 -8 -11 -12 -11
1 6 7 7 7 4 3 0 1 2 2 -1 1 2 2 3 4 3 3 4 4 3 2 1 1 1 1 0 1 1 0 -0 -2 -3 -6 -8 -7 -8 -8 -9 -11 -12 -11 -11
3 5 8 9 7 7 2 -1 -2 -1 4 3 3 3 4 3 5 4 3 3 3 3 2 0 0 1 -1 0 -1 -2 -2 -4 -6 -6 -7 -8 -9 -8 -10 -11 -11 -11 -12 -12
7 6 6 6 7 5 1 -1 0 6 7 4 4 4 4 4 4 3 3 3 3 2 -0 0 1 -2 -1 -0 -1 -3 -5 -6 -4 -8 -10 -10 -9 -10 -11 -10 -11 -12 -12 -11
4 6 6 5 7 7 -0 1 5 3 3 3 4 4 4 3 3 3 2 3 0 1 -0 1 -1 -1 -0 -1 -1 -4 -7 -9 -10 -10 -10 -9 -10 -10 -9 -10 -12 -12 -11 -11
4 3 4 3 4 0 0 1 2 2 3 3 3 2 3 2 2 2 3 2 2 0 1 -1 -1 -0 -1 -2 -7 -8 -8 -9 -9 -9 -9 -10 -11 -10 -10 -11 -11 -11 -11 -10
3 1 4 4 1 1 1 2 2 3 3 3 3 3 2 -0 -3 -3 0 2 1 0 -1 -1 -1 -1 -3 -5 -8 -9 -10 -9 -9 -12 -11 -12 -9 -9 -10 -11 -10 -10 -11 -11
3 2 3 3 2 2 2 2 2 3 2 3 2 -0 -4 -5 -5 -4 1 0 0 -1 -2 -1 -1 -2 -5 -7 -8 -9 -9 -9 -11 -13 -12 -9 -8 -10 -11 -10 -10 -10 -10 -11
2 3 4 4 2 3 3 2 2 2 3 2 -3 -5 -5 -4 -1 0 -0 -1 -1 -3 -2 -1 -2 -6 -7 -8 -9 -8 -8 -10 -12 -12 -11 -10 -11 -11 -9 -10 -10 -11 -12 -12

GFSCGP_850_dewp_009.txt.gz
Dewpoint
-8 -2 -3 -5 -5 -6 -5 -5 -4 -3 -4 -3 -3 -4 -5 -7 -9 -8 -8 -6 -6 -6 -5 -5 -5 -5 -4 -4 -3 -3 -3 -3 -4 -3 -4 -4 -4 -4 -5 -3 -2 -2 -2 -3
-4 -2 -6 -7 -6 -5 -5 -2 -0 -3 -3 -2 -2 -3 -5 -8 -8 -7 -6 -6 -6 -6 -5 -4 -4 -3 -3 -3 -3 -3 -4 -3 -3 -4 -4 -4 -4 -5 -5 -4 -3 -3 -3 -3
-4 -4 -7 -6 -4 -3 -4 -1 -1 -0 -1 -2 -2 -2 -6 -7 -8 -6 -6 -6 -6 -6 -6 -5 -5 -5 -4 -4 -3 -3 -3 -2 -2 -3 -4 -4 -4 -5 -5 -4 -3 -3 -3 -3
-4 -6 -7 -5 -3 -4 -2 -2 -1 0 1 2 -2 2 -5 -6 -6 -5 -6 -5 -5 -4 -4 -4 -4 -4 -3 -3 -3 -3 -2 -2 -2 -2 -3 -4 -4 -4 -5 -5 -5 -5 -5 -5
-2 -7 -7 -3 -4 -5 -2 -2 -1 1 2 1 0 -1 -5 -6 -5 -5 -4 -4 -4 -4 -4 -4 -3 -2 -3 -3 -3 -3 -3 -3 -3 -3 -2 -2 -3 -4 -4 -5 -5 -5 -5 -5
-7 -7 -6 -5 -4 -3 -2 1 1 3 2 5 2 1 -0 -3 -5 -5 -4 -4 -4 -4 -4 -3 -2 -2 -2 -2 -2 -2 -2 -2 -2 -2 -3 -3 -2 -2 -3 -4 -5 -5 -5 -4
-0 -4 -5 -3 -1 -1 -0 3 6 6 6 6 0 1 0 -2 -5 -4 -4 -5 -5 -4 -3 -2 -2 -1 -1 -1 -1 -1 -1 -1 -0 -0 -1 -1 -2 -2 -1 -2 -4 -5 -5 -4
4 4 -1 -2 -1 0 1 1 6 7 7 6 2 3 -0 -3 -5 -4 -5 -5 -3 -3 -3 -1 -1 -1 -1 -1 -1 -0 -0 -0 -0 -1 0 -0 -0 -0 -1 -1 -3 -4 -4 -4
5 4 0 -2 -2 -1 1 5 1 4 4 6 5 2 -3 -2 -1 -2 -1 -2 -1 -1 -1 -1 -1 -1 -1 -1 -0 0 0 0 -0 -1 -2 -2 -2 -2 -1 -2 -2 -2 -3 -5
3 5 3 2 0 -0 0 0 5 5 7 8 5 4 3 2 0 -0 -0 -1 -1 -1 -0 -1 -1 -1 -1 -1 -1 -1 -0 0 -1 -1 -2 -3 -3 -2 -2 -2 -2 -3 -5 -5
3 4 5 3 3 4 2 3 3 4 5 9 9 6 1 1 0 1 -1 -1 -1 -1 -1 -0 -0 -0 0 0 1 1 0 -2 -0 -2 -3 -4 -3 -3 -3 -2 -4 -5 -3 -0
2 4 5 4 1 1 -1 3 3 7 8 6 6 7 0 1 0 -1 -1 -1 -1 -1 -1 0 0 0 1 1 1 0 -0 -1 -1 -4 -4 -4 -4 -4 -3 -4 -5 -6 -6 -5
2 4 5 4 2 2 3 2 3 3 2 5 6 5 -0 -1 -1 -0 0 0 1 1 1 1 1 1 1 0 -1 -0 -1 1 -2 -4 -4 -4 -5 -5 -5 -6 -7 -6 -5 -4
1 4 4 6 5 4 5 3 3 4 3 5 5 3 0 -1 -0 0 1 1 1 2 2 2 2 1 1 1 -1 1 1 1 -1 -5 -5 -5 -6 -7 -7 -7 -5 -5 -5 -6
3 4 5 4 4 4 3 3 3 4 3 5 3 3 1 -1 1 2 2 2 2 3 3 3 2 2 -1 -1 1 2 1 -0 -5 -5 -6 -7 -7 -6 -5 -4 -3 -4 -6 -7
4 4 5 6 5 5 5 3 3 2 2 3 2 2 -1 -1 3 3 3 3 3 3 3 2 1 2 -0 1 2 2 1 -0 -2 -4 -5 -5 -3 -2 -2 -2 -3 -4 -7 -8
4 4 4 7 4 4 4 2 2 2 0 1 3 2 3 3 3 3 3 3 3 3 3 3 3 2 0 2 2 1 0 -0 1 0 -0 -1 -1 -2 -4 -4 -6 -7 -8 -8
2 2 3 7 4 7 2 -1 -1 1 1 1 4 4 3 4 4 3 3 3 3 2 3 3 0 -0 1 1 1 -1 -1 0 0 -0 -2 -4 -4 -4 -7 -7 -8 -8 -9 -11
3 2 5 6 6 4 3 2 1 1 2 4 4 4 3 4 4 3 3 3 3 2 3 1 1 0 -1 0 -2 -2 -3 -4 -5 -4 -4 -7 -7 -7 -8 -9 -9 -10 -11 -12
3 3 4 4 5 4 1 -0 3 2 5 4 4 5 4 4 4 3 3 2 2 3 2 1 0 -1 0 -2 -2 -1 -3 -5 -5 -6 -7 -7 -8 -10 -9 -10 -11 -11 -11 -11
2 2 4 2 4 3 1 -1 2 4 5 4 4 4 4 4 3 3 0 1 1 2 2 1 -0 -0 -2 -0 -1 -1 -4 -7 -5 -7 -8 -9 -10 -10 -10 -10 -11 -11 -11 -12
2 2 4 2 6 4 1 -0 2 1 2 1 3 3 3 4 3 1 -2 -4 1 2 1 0 -0 -2 -0 -1 -2 -4 -7 -9 -8 -8 -9 -11 -11 -11 -12 -11 -10 -11 -11 -10
3 2 2 3 2 0 -0 -0 0 1 2 3 3 4 2 2 -1 -5 -5 -1 1 1 0 -1 -2 -1 -1 -3 -4 -6 -7 -7 -9 -9 -12 -14 -13 -12 -10 -9 -12 -11 -10 -10
3 1 3 2 1 0 1 1 1 1 2 4 3 3 -0 -2 -4 -3 -1 -1 -0 -0 -2 -2 -1 -2 -3 -5 -7 -8 -8 -9 -9 -13 -14 -12 -12 -10 -10 -12 -10 -10 -10 -10
3 3 3 3 1 1 1 1 2 3 3 2 -0 -3 -4 -4 -2 -1 -3 -5 -2 -2 -3 -2 -2 -3 -5 -7 -7 -8 -9 -9 -9 -10 -12 -12 -11 -11 -12 -12 -10 -10 -12 -12
3 3 3 4 1 2 2 2 2 2 0 -2 -4 -3 -3 -2 -2 -6 -4 -3 -2 -2 -1 -2 -4 -6 -6 -6 -7 -8 -8 -8 -10 -13 -13 -11 -11 -11 -12 -13 -11 -12 -11 -11

GFSCGP_850_dewp_015.txt.gz
Dewpoint
-5 -4 -5 -6 -6 -5 -6 -3 -1 -3 -4 -1 -1 -1 -2 -5 -7 -7 -7 -7 -7 -6 -7 -7 -6 -5 -2 -3 -3 -3 -4 -3 -3 -3 -3 -4 -4 -4 -4 -4 -4 -4 -5 -5
-3 -3 -6 -6 -5 -5 -3 -2 -2 -2 -3 -1 -1 -1 -7 -8 -7 -5 -4 -4 -5 -5 -6 -6 -5 -4 -3 -4 -4 -4 -4 -3 -3 -3 -3 -3 -3 -3 -3 -3 -3 -4 -4 -4
-2 -5 -7 -5 -4 -4 -4 -2 -2 -1 -1 -2 -1 -1 -5 -6 -5 -5 -5 -4 -4 -5 -5 -4 -4 -4 -4 -4 -4 -3 -3 -3 -3 -3 -2 -2 -2 -2 -2 -2 -2 -2 -3 -4
-4 -8 -7 -4 -4 -4 -2 -4 -2 -1 1 2 -1 2 -3 -6 -6 -5 -5 -5 -5 -5 -5 -4 -4 -4 -4 -4 -3 -3 -3 -3 -3 -2 -2 -2 -1 -1 -1 -1 -1 -1 -1 -3
-3 -8 -5 -4 -4 -4 -1 -2 -0 1 2 1 0 -0 -1 -3 -5 -3 -4 -4 -4 -4 -4 -4 -4 -4 -3 -3 -2 -2 -1 -2 -2 -2 -1 -0 -0 -0 -0 -0 -0 -0 -0 -0
-2 -6 -6 -5 -4 -2 -2 1 1 1 2 4 1 1 1 -1 -3 -3 -3 -3 -4 -4 -4 -4 -3 -2 -2 -2 -2 -2 -2 -1 -1 0 0 0 -0 -0 -0 -1 -2 -1 -1 -1
2 -0 -2 -3 -1 -1 0 3 4 3 5 5 2 1 0 -2 -3 -4 -4 -3 -2 -2 -4 -3 -2 -2 -1 -1 -1 -0 -0 -0 -0 -0 -0 -0 -0 -2 -1 -2 -2 -3 -3 -3
5 3 1 -1 -1 0 1 2 4 4 7 6 2 3 1 -3 -1 -2 -1 -1 -1 -1 -2 -2 -0 -0 -0 -0 -0 -0 -0 -0 -0 -1 -1 -1 -2 -3 -2 -2 -3 -4 -4 -3
5 3 1 1 1 -1 2 4 1 3 4 5 4 2 -0 -2 0 0 -0 -0 0 -0 -0 -0 -0 -0 -0 0 0 0 0 -1 -2 -3 -3 -2 -2 -3 -2 -2 -4 -4 -4 -2
3 6 2 2 1 0 0 0 4 4 4 7 6 5 4 1 2 -0 0 0 0 0 0 0 0 1 1 1 -0 -2 -2 -2 -4 -2 -3 -2 -1 -5 -3 -3 -4 -4 -4 -2
2 4 3 1 2 3 3 4 3 4 5 7 7 6 2 1 1 0 0 1 1 1 1 1 1 1 -0 -1 -1 -2 -1 -3 -3 -2 -0 0 -4 -4 -4 -4 -4 -4 -4 -4
2 3 4 3 1 1 1 3 3 6 6 4 5 5 -1 -1 0 1 2 2 2 2 2 2 2 1 -0 -2 -0 -2 -3 -3 -2 0 1 -0 -2 -4 -4 -3 -4 -4 -5 -3
1 3 3 0 -0 -0 3 3 3 3 2 5 5 3 -1 -1 1 2 3 3 2 2 2 2 2 2 1 -1 0 -2 -3 -4 -0 1 -1 -1 -2 -4 -4 -5 -5 -5 -5 -4
1 3 2 4 0 3 4 4 3 3 3 4 4 3 1 1 3 3 3 3 2 2 2 3 3 1 0 1 0 -2 -3 -1 -0 -1 -1 -3 -2 -4 -5 -6 -5 -5 -4 -4
2 4 3 3 3 3 4 4 4 5 4 5 4 4 2 2 3 3 3 3 3 3 2 3 3 1 0 2 -1 -1 -1 -0 -1 -2 -4 -1 -1 -3 -4 -3 -3 -3 -3 -4
3 3 4 4 4 4 5 4 4 4 4 4 3 2 1 3 3 3 3 3 3 2 3 2 0 -0 -1 -1 0 0 -0 -0 -1 -4 -4 -1 -1 -2 -2 -3 -4 -5 -5 -5
3 2 4 3 4 3 2 2 3 2 1 1 3 1 3 4 3 3 3 3 3 3 2 -1 -5 -2 -2 -0 1 1 0 -1 -3 -5 -5 -4 -4 -4 -4 -4 -4 -5 -5 -7
2 2 2 4 4 5 1 -0 -0 1 1 0 2 3 3 3 2 2 3 3 3 0 -1 -4 -6 -3 0 2 1 0 -1 -1 -2 -2 -2 -2 -3 -3 -5 -8 -8 -9 -10 -10
2 2 4 6 5 2 2 0 1 1 2 2 4 3 1 1 2 2 3 3 1 -2 -3 -2 -2 0 2 0 -1 -2 -1 -1 -2 -2 -3 -5 -5 -5 -6 -7 -10 -11 -11 -12
2 -0 1 4 5 5 1 -2 1 2 4 2 3 2 1 2 4 3 2 1 -1 -2 1 -2 -4 -2 -2 -2 -1 -1 -2 -4 -4 -5 -6 -7 -7 -9 -10 -11 -12 -13 -12 -12
2 3 3 3 4 2 -1 -2 -1 2 1 1 1 1 2 3 3 3 1 -4 -0 -2 -7 -8 -7 -4 -3 -2 -1 -1 -3 -5 -6 -5 -6 -9 -11 -14 -14 -13 -12 -11 -11 -13
1 1 1 2 3 3 -1 0 2 1 -0 1 2 3 4 2 1 -1 -2 -2 -3 -8 -8 -6 -4 -3 -3 -2 -2 -3 -4 -5 -7 -5 -9 -10 -11 -13 -13 -12 -12 -12 -13 -14
3 1 1 1 2 -1 -1 -0 -0 0 1 2 3 2 1 1 -3 -3 -1 -3 -7 -8 -6 -3 -3 -2 -3 -2 -3 -5 -5 -4 -6 -8 -8 -8 -12 -14 -13 -11 -12 -13 -13 -13
3 2 2 2 1 -0 0 1 1 2 2 3 2 0 -1 -2 -5 -2 -2 -6 -9 -9 -5 -2 -3 -4 -5 -5 -6 -5 -6 -6 -8 -8 -9 -13 -13 -13 -11 -11 -11 -13 -12 -12
4 3 3 3 2 2 2 2 3 3 3 1 1 0 -4 -4 -3 -2 -3 -5 -9 -8 -4 -3 -4 -5 -6 -7 -7 -7 -7 -8 -9 -13 -13 -13 -12 -11 -11 -10 -11 -11 -12 -12
3 3 4 4 2 2 2 4 3 3 1 -1 -3 -9 -6 -5 -4 -2 -4 -6 -10 -8 -5 -5 -5 -6 -6 -6 -7 -8 -10 -13 -12 -12 -12 -11 -10 -9 -10 -10 -11 -11 -12 -12

GFSCGP_850_dewp_021.txt.gz
Dewpoint
-6 -4 -3 -5 -5 -5 -5 -3 -2 -3 -4 -1 -1 -2 -5 -5 -4 -3 -4 -6 -6 -5 -0 1 -1 -3 -4 -2 1 1 -1 -3 -3 -3 -3 -3 -3 -3 -2 -2 -2 -2 -2 -1
-3 -3 -6 -5 -5 -5 -4 -3 -4 -3 -3 -1 -1 -3 -5 -5 -4 -4 -3 -3 -4 -5 -6 -6 -6 -5 -5 -3 -1 -1 -2 -2 -2 -2 -2 -2 -3 -3 -2 -2 -1 -0 -0 -0
-1 -5 -5 -5 -3 -1 -2 -3 -2 -2 -2 -1 -2 -2 -3 -6 -5 -5 -5 -4 -4 -4 -4 -4 -4 -4 -3 -3 -2 -2 -1 -1 -2 -2 -2 -2 -2 -1 -1 -1 0 0 -0 -0
-4 -7 -4 -2 -2 -2 0 -4 -1 0 1 2 -1 0 -1 -3 -4 -3 -3 -5 -5 -4 -4 -4 -3 -3 -3 -3 -3 -2 -2 -2 -2 -1 -0 0 0 0 -0 -0 -1 -1 -2 -3
-4 -5 -2 -0 -3 -3 0 -0 1 1 2 2 1 -0 -1 -3 -2 -1 -2 -1 -1 -2 -3 -4 -4 -3 -2 -2 -2 -1 -1 -1 -0 0 0 -0 -0 -1 -3 -3 -4 -5 -7 -8
-1 -3 -3 -2 -3 -2 -1 1 -0 1 2 4 2 1 2 0 -0 -0 -0 1 -0 -1 -2 -2 -2 -1 -0 0 0 0 -0 -0 -1 -1 -1 0 1 -1 -4 -6 -7 -9 -10 -11
1 -0 -0 -2 0 -0 1 1 3 5 6 5 2 1 2 0 -0 -0 1 1 0 0 0 0 0 0 0 0 -0 -0 -1 -1 -0 -0 0 -1 -4 -6 -6 -6 -6 -7 -7 -8
4 1 1 0 0 1 2 2 5 3 6 5 2 3 2 -0 0 0 0 0 0 0 1 1 1 1 1 1 1 0 -0 -0 -0 -2 -4 -7 -7 -5 -6 -7 -7 -6 -6 -6
5 2 1 1 1 -0 2 5 2 4 4 6 3 2 1 0 0 0 1 1 1 1 1 1 0 0 1 1 1 1 -0 -3 -4 -6 -8 -8 -6 -5 -4 -6 -7 -7 -5 -4
3 5 2 1 0 0 1 1 4 5 7 6 3 4 2 2 1 1 2 2 2 1 0 -0 -0 1 1 2 3 -0 -0 0 -3 -4 -3 -2 -1 -2 -4 -6 -6 -4 -4 -3
1 4 1 -0 3 3 3 4 3 3 5 8 7 4 1 1 1 1 2 2 2 2 2 2 2 2 3 3 1 -4 -4 -2 0 0 -0 -0 -0 -2 -4 -6 -4 -4 -3 -2
2 3 4 1 1 1 2 2 2 4 4 5 6 4 -1 0 1 2 3 3 2 2 2 2 2 1 1 1 -3 -7 -6 -4 -1 0 1 0 -2 -4 -5 -6 -3 -4 -2 -2
2 3 2 -4 1 -0 3 3 2 2 3 5 6 3 -2 0 1 2 3 2 -0 0 1 3 2 -0 -1 -1 -3 -4 -5 -4 -1 1 1 -1 -4 -4 -5 -3 -3 -4 -3 -3
1 3 0 0 -2 -0 3 3 3 4 6 4 4 2 0 -0 0 2 2 0 2 1 3 2 1 -0 -2 -2 -2 -2 -2 -2 0 0 -1 -2 -4 -4 -3 -3 -3 -3 -3 -4
2 5 3 3 2 3 3 4 3 4 4 5 3 3 1 0 1 2 1 0 2 2 3 2 -0 -2 -2 -1 -4 -9 -10 -8 -3 -1 -3 -2 -2 -2 -3 -4 -3 -4 -5 -6
2 4 4 5 3 3 4 3 3 4 4 4 4 4 1 1 3 2 2 1 2 3 1 -0 -1 -3 -2 -7 -10 -8 -6 -4 -2 -3 -2 -2 -2 -2 -2 -4 -7 -6 -6 -7
3 4 4 4 2 2 3 -0 2 2 2 3 3 -0 1 3 2 1 1 2 2 2 -1 -3 -2 -3 -9 -10 -9 -7 -6 -5 -4 -4 -4 -3 -5 -6 -6 -6 -6 -7 -9 -10
3 3 3 5 3 5 -0 -1 -0 1 0 -0 -0 -0 0 2 1 1 2 2 2 -1 -5 -4 -2 -8 -11 -10 -8 -5 -4 -3 -4 -5 -6 -6 -6 -7 -8 -10 -12 -13 -14 -13
2 3 4 5 5 3 2 -1 -0 2 1 -1 0 2 2 1 2 2 2 2 -1 -5 -4 -1 -5 -8 -10 -10 -6 -4 -2 -3 -4 -4 -7 -5 -7 -8 -9 -9 -10 -13 -13 -13
1 0 4 5 6 6 2 -2 2 1 3 0 2 1 1 2 4 3 2 1 -5 -5 -1 -2 -5 -9 -10 -9 -6 -5 -4 -4 -3 -4 -5 -7 -8 -8 -8 -11 -13 -13 -12 -12
3 3 5 4 4 4 1 -1 -1 4 3 1 1 1 2 2 2 1 0 -8 -4 -3 -1 -3 -6 -9 -9 -6 -7 -7 -7 -6 -5 -5 -7 -7 -8 -8 -13 -13 -13 -12 -12 -11
2 2 3 3 4 4 -2 -0 2 1 0 2 2 2 2 2 1 -1 -5 -5 -6 -4 -1 -3 -7 -8 -8 -6 -6 -7 -8 -8 -7 -7 -7 -7 -9 -13 -13 -12 -11 -10 -11 -11
3 2 3 2 3 -1 -1 -1 -1 0 3 3 3 2 1 -0 -4 -6 -7 -8 -6 -3 -2 -4 -6 -8 -8 -7 -7 -8 -8 -7 -7 -7 -8 -10 -12 -12 -12 -11 -10 -10 -11 -11
1 0 3 2 1 1 1 1 2 3 3 3 2 0 -0 -3 -7 -6 -8 -7 -8 -7 -3 -4 -5 -7 -8 -8 -7 -6 -7 -7 -8 -9 -11 -11 -10 -11 -11 -11 -10 -10 -10 -11
2 3 4 3 3 2 2 3 4 3 2 1 -2 -4 -6 -9 -10 -12 -10 -7 -5 -4 -4 -4 -4 -6 -7 -7 -6 -5 -6 -8 -9 -9 -11 -10 -9 -9 -10 -10 -10 -11 -10 -11
3 4 4 4 2 3 3 2 2 1 -1 -7 -8 -11 -11 -12 -13 -12 -12 -11 -9 -9 -8 -5 -3 -4 -6 -7 -9 -10 -9 -10 -10 -11 -10 -9 -8 -9 -10 -11 -11 -11 -12 -12

GFSCGP_850_dewp_024.txt.gz
Dewpoint
-5 -6 -4 -5 -5 -6 -7 -6 -5 -6 -4 -2 -2 -5 -5 -5 -4 -4 -4 -4 -3 -2 0 1 3 2 -1 -2 1 6 7 6 2 2 2 3 2 1 0 0 -0 -1 -0 0
-6 -3 -5 -6 -6 -5 -4 -4 -4 -4 -3 -1 -2 -4 -5 -5 -4 -4 -4 -3 -3 -3 -1 -1 1 -3 -2 -1 1 2 2 1 1 0 -1 -2 -2 -1 -0 1 3 3 0 -0
-5 -5 -5 -5 -2 -2 -2 -2 -1 -1 -2 -2 -2 -2 -4 -5 -4 -4 -3 -3 -3 -2 -2 -1 -0 -1 -2 -2 -1 -0 -0 -1 -1 -2 1 2 2 2 1 1 1 -1 -2 -5
-5 -5 -3 -2 -2 -1 -1 -3 0 0 0 -2 -1 -1 -2 -4 -3 -3 -1 -0 0 -1 -2 -1 0 -1 -2 -2 -2 -2 -1 -0 -0 -0 0 -1 1 1 2 2 2 0 -3 -5
-4 -3 -2 -1 -1 -1 1 0 1 1 1 0 -0 -1 -0 -3 -1 -1 -0 1 1 0 1 0 1 2 2 -0 0 0 2 0 -0 -1 1 3 3 2 2 2 1 -0 -1 -2
-3 -3 -2 -1 -2 -1 -0 0 1 1 2 4 2 1 0 -1 -0 -0 0 1 1 2 1 1 2 2 2 3 2 2 2 2 -0 -1 -1 -1 -3 -2 -1 -1 -2 -3 -4 -4
-2 -1 -1 -0 -1 -0 -0 1 2 5 5 3 1 1 3 0 -0 -0 0 1 2 2 2 2 2 2 3 3 3 2 2 2 1 0 -1 -1 -3 -2 -2 -2 -2 -2 -3 -3
1 2 0 0 1 2 2 2 5 5 3 2 2 1 2 -0 -1 -0 0 1 1 2 2 2 2 2 3 3 3 3 3 2 1 -0 -1 -7 -11 -4 -2 -1 -1 -2 -2 -2
2 1 0 0 -0 0 2 4 2 5 5 6 1 1 1 -0 0 0 0 0 1 2 2 1 2 2 3 3 3 3 2 1 1 -0 -1 -1 0 0 1 -0 -2 -3 -3 -2
3 3 1 -1 0 1 1 1 5 4 10 4 -2 1 -0 2 1 0 0 1 1 2 2 2 2 2 2 2 2 2 1 1 1 1 2 1 2 1 0 -1 -3 -2 -2 -0
-0 2 1 -1 1 3 2 3 3 3 5 6 5 -2 0 0 0 0 0 2 2 2 2 2 2 2 2 2 1 -0 1 1 2 2 1 1 1 1 -1 -2 -2 -1 -1 -1
2 2 0 -2 0 1 1 2 1 4 4 4 4 1 -2 -2 -0 1 1 2 2 2 1 1 2 2 0 -0 -1 0 1 0 -0 -1 -1 -0 -0 -0 -2 -2 -2 -2 -2 -2
2 2 -1 -1 1 1 2 2 1 1 3 4 7 1 -3 -1 0 -1 1 1 0 0 0 1 1 1 -0 -2 -1 -1 -3 -4 -4 -3 -2 -1 -1 -2 -1 -1 -3 -4 -4 -4
2 2 -1 -2 -4 -2 -2 -2 -0 1 6 3 2 0 -2 -3 -3 -1 0 1 0 1 1 1 1 0 -2 -1 -3 -6 -5 -4 -3 -2 -2 -2 -1 -2 -2 -2 -4 -3 -3 -3
3 3 2 0 -1 -1 0 1 -0 1 2 4 2 -1 -2 -2 -2 -1 1 1 0 1 1 2 0 -2 -2 -4 -6 -5 -4 -3 -2 -2 -3 -2 -1 -2 -2 -2 -3 -3 -3 -4
3 4 4 4 1 0 2 0 0 1 1 1 1 2 -2 -2 -1 1 1 1 1 1 2 1 -2 -2 -3 -5 -5 -4 -3 -2 -2 -3 -3 -2 -2 -3 -3 -3 -4 -6 -7 -8
5 5 5 8 2 3 6 1 -0 0 -0 1 2 -1 -2 -1 0 1 1 1 2 2 1 -2 -2 -2 -4 -4 -5 -4 -3 -3 -3 -3 -4 -4 -5 -5 -6 -7 -8 -8 -8 -9
5 6 5 7 6 8 1 -2 -1 -0 -1 -2 -2 -2 -0 0 1 1 2 2 2 0 -2 -3 -2 -3 -4 -5 -6 -4 -4 -3 -3 -4 -4 -5 -5 -6 -7 -7 -7 -8 -9 -9
3 6 6 7 5 1 0 -2 -1 0 1 -1 -0 0 1 1 2 2 2 2 1 -3 -2 -1 -2 -3 -3 -5 -6 -5 -5 -5 -4 -4 -4 -4 -5 -7 -7 -7 -9 -9 -9 -9
2 3 7 5 7 5 -1 -2 0 0 2 1 1 2 2 3 4 4 1 1 -1 -2 -3 -2 -2 -3 -4 -6 -5 -6 -7 -7 -6 -6 -6 -6 -6 -7 -7 -9 -9 -9 -10 -10
4 5 6 5 6 4 -1 -1 -1 5 4 1 1 3 3 3 3 1 -0 -2 -3 -4 -3 -3 -3 -3 -4 -4 -5 -6 -7 -8 -8 -7 -6 -7 -6 -7 -10 -9 -10 -10 -9 -8
4 7 6 5 6 6 -1 -0 4 2 2 2 3 3 3 2 1 -2 -2 -4 -6 -8 -9 -5 -3 -4 -5 -4 -5 -6 -7 -7 -7 -6 -6 -7 -7 -9 -9 -9 -9 -9 -9 -9
3 2 2 2 3 -1 -1 0 1 3 3 4 3 1 1 -0 -2 -3 -5 -6 -7 -6 -5 -4 -5 -5 -4 -4 -4 -5 -6 -6 -6 -6 -7 -7 -8 -8 -8 -8 -9 -9 -9 -9
1 0 3 3 0 -0 1 2 4 3 3 2 1 1 -3 -4 -6 -6 -8 -8 -7 -7 -7 -7 -7 -6 -6 -5 -4 -4 -4 -5 -7 -7 -7 -8 -8 -8 -8 -8 -9 -9 -9 -10
2 1 2 2 2 2 2 4 3 2 1 -1 -4 -5 -5 -5 -7 -10 -11 -11 -10 -8 -8 -7 -6 -6 -5 -5 -4 -5 -5 -6 -7 -7 -7 -8 -8 -7 -7 -8 -9 -9 -10 -11
2 2 4 5 3 4 3 2 1 1 -4 -6 -7 -6 -7 -10 -11 -11 -11 -11 -9 -8 -7 -6 -6 -6 -6 -6 -5 -5 -6 -7 -7 -7 -7 -7 -8 -7 -8 -8 -9 -9 -10 -12

GFSCGP_850_dewp_027.txt.gz
Dewpoint
-6 -5 -6 -7 -8 -9 -10 -10 -8 -8 -7 -6 -5 -6 -5 -5 -5 -5 -5 -4 -3 -1 2 3 3 3 3 4 5 7 8 8 7 6 5 3 3 2 2 1 2 4 4 4
-8 -5 -6 -8 -8 -8 -7 -5 -5 -5 -5 -5 -4 -5 -5 -5 -4 -4 -4 -3 -2 -1 -0 1 2 3 3 4 4 4 4 4 3 2 2 2 2 2 3 3 3 3 3 2
-6 -5 -7 -6 -5 -5 -4 -3 -2 -2 -4 -4 -4 -4 -4 -5 -4 -4 -4 -3 -2 -2 -1 1 2 4 4 4 3 3 3 3 3 0 2 2 2 2 2 2 3 3 3 2
-6 -6 -5 -4 -3 -3 -2 -3 -2 -1 -2 -2 -3 -2 -3 -4 -3 -2 -0 0 -0 -1 -1 1 2 3 4 4 4 3 3 3 3 1 3 4 4 3 3 4 3 3 2 1
-4 -5 -3 -2 -1 -2 -1 -1 -1 -1 -0 -2 -2 -4 -1 -4 -2 -1 -0 0 1 1 1 2 2 3 4 4 4 4 3 3 3 3 2 4 4 3 1 1 1 -0 -2 -2
-4 -4 -3 -2 -2 -2 -2 0 -1 0 0 3 -2 -1 -0 -2 -1 -0 -0 1 1 1 1 2 2 2 3 4 4 4 3 2 2 3 3 2 2 1 -0 -0 -1 -2 -1 -2
-2 -2 -2 -1 -1 -1 -1 0 4 5 4 4 0 -0 2 0 -1 -0 0 1 1 1 2 1 2 2 3 3 4 4 3 3 2 2 2 1 1 0 -0 -0 -0 0 -1 -2
-0 3 -1 -2 -1 0 0 1 5 5 4 2 -0 -2 2 -1 -1 -0 -0 0 1 1 1 1 1 2 2 3 3 4 3 2 1 1 1 1 1 1 1 1 1 -0 -2 -2
1 1 -1 -1 -1 -0 1 3 0 3 6 5 -2 1 1 -1 -0 -0 -0 -0 1 1 1 1 1 2 2 1 2 2 2 1 1 1 1 2 2 1 1 1 0 -2 -2 -2
0 3 -0 -2 -1 0 -1 -0 4 4 9 4 -4 -3 -2 2 1 -0 -0 -0 1 1 1 1 1 1 1 1 1 1 0 0 1 1 2 1 0 -0 -0 -0 -2 -2 -2 -1
-3 -0 0 -3 -1 -2 -0 1 2 1 2 5 4 -1 -2 -2 -2 -1 -1 -1 -0 1 1 1 1 1 1 1 0 -0 0 1 -1 -2 -3 -3 -2 -2 -2 -2 -2 -2 -2 -1
-0 -0 1 -4 -2 -1 -1 0 0 4 2 3 5 2 -3 -4 -2 -1 -2 -1 1 1 -0 0 0 1 1 -0 -1 -1 -1 -4 -5 -6 -5 -4 -3 -3 -2 -2 -3 -2 -2 -2
0 2 1 -1 1 0 0 -1 -1 -0 2 3 6 2 -4 -3 -1 -1 -1 -1 -0 -0 -0 -0 0 1 0 -1 -1 -3 -6 -6 -5 -4 -4 -3 -3 -2 -2 -2 -2 -2 -2 -2
2 0 -0 1 -2 -4 -2 -3 -4 -2 4 4 2 -1 -3 -4 -3 -3 -3 -1 -0 -0 -0 0 1 1 -0 -2 -3 -6 -7 -5 -4 -4 -4 -4 -2 -1 -1 -2 -3 -2 -2 -3
2 3 -0 -0 -3 -4 -3 -2 -2 -1 -1 3 1 -0 -2 -2 -2 -2 -2 -0 -0 -0 -0 1 1 0 -2 -3 -5 -6 -6 -5 -4 -4 -4 -4 -3 -2 -3 -3 -3 -3 -4 -6
1 4 4 3 -1 -4 -2 -3 -2 -2 -1 -1 -1 -1 -2 -2 -3 -2 -1 -1 -0 0 1 2 -0 -2 -2 -5 -5 -6 -6 -5 -4 -4 -5 -4 -4 -4 -4 -4 -5 -6 -6 -6
3 5 4 7 3 3 7 2 -3 -2 -2 -2 1 -1 -3 -2 -1 0 1 1 2 3 2 -1 -2 -1 -2 -5 -5 -7 -7 -6 -5 -5 -6 -5 -5 -5 -5 -5 -6 -7 -7 -10
6 5 6 8 6 8 -2 -4 -3 -2 -2 -3 -3 -2 -2 -1 1 2 2 2 2 2 -0 -1 -1 -2 -5 -4 -5 -7 -7 -8 -7 -7 -6 -6 -5 -5 -6 -7 -8 -9 -10 -10
3 6 7 8 5 0 -1 -1 -1 0 1 -2 -1 -0 -1 0 1 1 2 2 2 0 -1 -1 -2 -4 -4 -5 -5 -6 -7 -8 -9 -8 -7 -6 -5 -7 -8 -8 -9 -10 -10 -10
2 4 7 6 7 6 -1 -3 -1 -1 3 0 1 1 1 2 5 3 3 2 0 -1 -2 -5 -6 -6 -5 -5 -5 -6 -6 -8 -9 -9 -8 -7 -7 -7 -8 -9 -10 -10 -11 -11
5 6 7 6 7 3 -2 -1 -1 4 5 2 2 4 3 3 3 2 2 0 -1 -4 -6 -8 -9 -7 -6 -6 -6 -7 -7 -8 -9 -8 -7 -6 -7 -8 -9 -10 -10 -11 -11 -9
5 6 6 6 7 6 -1 -1 4 3 2 4 3 3 2 2 2 0 -1 -4 -6 -7 -8 -8 -8 -8 -8 -8 -8 -8 -7 -8 -7 -6 -6 -6 -7 -8 -10 -10 -10 -10 -10 -8
3 2 3 4 4 -1 -1 1 3 3 4 3 3 0 1 0 -2 -5 -6 -7 -9 -10 -11 -11 -10 -10 -10 -9 -9 -9 -6 -4 -3 -5 -6 -6 -6 -9 -10 -10 -10 -10 -9 -8
0 -1 5 3 0 -1 0 2 4 3 3 2 -1 1 -2 -5 -5 -7 -10 -11 -12 -13 -12 -12 -11 -10 -10 -10 -10 -10 -8 -4 -4 -6 -5 -5 -7 -9 -9 -9 -10 -9 -8 -9
2 0 1 3 1 2 4 4 3 2 2 -3 -4 -5 -5 -6 -8 -10 -12 -12 -13 -12 -13 -12 -11 -10 -10 -10 -10 -9 -9 -5 -5 -5 -5 -6 -8 -8 -7 -8 -9 -9 -9 -9
1 1 4 5 4 4 4 3 2 2 -3 -5 -6 -6 -7 -9 -11 -11 -11 -11 -11 -11 -11 -11 -11 -10 -9 -9 -8 -7 -5 -5 -5 -5 -6 -7 -7 -7 -7 -8 -8 -8 -9 -10

GFSCGP_850_dewp_030.txt.gz
Dewpoint
-7 -5 -4 -7 -8 -10 -11 -10 -10 -9 -7 -8 -8 -7 -6 -6 -6 -5 -5 -5 -1 2 3 4 4 4 4 4 6 7 8 8 9 7 6 5 3 3 3 2 2 3 3 3
-8 -5 -6 -9 -9 -10 -9 -7 -6 -6 -7 -7 -5 -6 -6 -5 -4 -4 -3 -1 -0 1 2 3 4 3 3 4 4 4 5 5 3 3 3 2 2 2 2 2 3 3 3 3
-3 -5 -8 -8 -7 -6 -6 -5 -1 -3 -5 -5 -5 -4 -4 -5 -4 -3 -2 -2 -1 -0 2 3 4 5 4 4 3 3 3 3 2 1 3 3 2 2 2 3 2 3 4 3
-5 -7 -7 -6 -4 -3 -3 -2 -2 -3 -2 -2 -4 -1 -3 -4 -3 -2 -1 -1 -2 -1 1 3 4 5 5 5 4 4 3 3 3 1 2 3 3 4 4 3 2 2 2 -1
-4 -5 -4 -3 -1 -3 -1 -2 -2 -2 -1 -1 -3 -0 -3 -3 -2 0 0 1 1 1 2 2 3 4 5 5 5 4 3 3 3 3 3 3 3 3 2 1 0 -0 -1 -1
-5 -5 -3 -2 -3 -3 -3 -1 -1 -0 0 5 -0 -2 -0 -2 -2 0 0 1 1 1 2 2 2 2 4 4 4 4 3 3 3 3 3 2 2 2 1 0 0 1 1 0
-3 -2 -2 -3 -1 -2 -2 -0 7 8 8 8 1 0 2 0 -1 -0 1 1 1 2 2 1 2 2 3 3 4 4 4 3 2 1 1 2 2 2 1 1 2 2 1 -1
-0 3 -1 -3 -1 -0 0 -0 8 7 10 7 -0 -0 3 -0 -0 -0 0 1 1 1 1 1 1 2 3 2 2 2 3 3 1 1 1 2 2 2 2 1 1 1 -0 -1
0 2 -2 -2 -3 -2 -0 4 -1 1 6 8 0 2 0 -1 -0 -0 -0 0 1 1 1 1 1 1 1 1 1 2 2 1 0 1 1 1 0 1 0 -0 -0 -1 -2 -2
-1 3 -1 -4 -3 0 -1 -3 3 6 9 6 -1 -1 4 1 1 -0 -1 -0 0 0 0 1 1 1 1 1 1 1 0 0 1 -0 -2 -3 -4 -3 -2 -2 -2 -2 -2 -3
-3 0 0 -4 -1 -3 -1 -0 0 -0 2 7 7 1 -3 -2 -1 -1 -1 -1 -1 0 1 0 -0 0 1 1 1 -0 -1 -0 -3 -5 -5 -6 -5 -3 -2 -2 -2 -2 -3 -4
-2 -0 3 -3 -4 -3 -2 -0 -0 8 4 7 7 4 -4 -4 -3 -2 -1 -1 -0 0 -0 -0 0 1 1 1 -0 -1 -1 -5 -6 -6 -5 -4 -3 -3 -2 -2 -2 -3 -2 -2
1 3 6 2 1 -0 -3 -3 -3 -1 4 5 7 3 -5 -3 1 -0 -1 -0 1 1 -1 -0 0 1 1 0 -1 -2 -4 -6 -6 -5 -4 -4 -4 -3 -3 -4 -1 -4 -4 -3
2 0 -0 3 -2 -4 -3 -5 -5 -3 6 5 4 1 -2 -2 -0 -1 -2 -1 -1 -1 0 1 1 1 1 -1 -2 -3 -5 -6 -6 -5 -4 -4 -4 -3 -5 -3 -4 -4 -5 -4
2 4 0 -0 -3 -4 -5 -5 -5 -4 -1 2 1 -1 -2 -1 -2 -2 1 1 0 1 2 2 2 0 -1 -1 -2 -4 -5 -6 -6 -5 -4 -4 -4 -3 -5 -5 -4 -4 -5 -5
1 5 5 4 -2 -3 -3 -4 -2 -3 -3 -3 -1 -1 -3 -3 0 1 1 2 1 3 3 2 -0 -1 -1 -1 -3 -4 -5 -7 -7 -7 -6 -5 -5 -5 -4 -4 -5 -5 -6 -6
4 7 7 8 4 4 8 4 -2 -3 -3 -1 2 -1 -3 -0 1 2 2 2 2 2 2 1 -0 -1 -1 -1 -4 -5 -5 -6 -7 -8 -7 -7 -4 -5 -6 -6 -5 -6 -7 -9
7 6 7 7 6 7 -2 -4 -3 -2 -2 -2 -2 -2 0 0 1 1 2 2 2 1 0 -0 -1 -1 -1 -4 -5 -5 -5 -6 -6 -7 -8 -9 -6 -6 -6 -5 -7 -7 -9 -10
2 7 7 9 6 2 -1 -1 0 1 1 -2 1 2 2 2 2 1 2 1 1 1 -0 -1 -2 -5 -7 -8 -6 -4 -5 -6 -6 -6 -8 -7 -7 -6 -6 -7 -7 -8 -10 -10
2 6 8 7 6 6 1 -3 -1 -2 3 3 3 3 3 3 4 2 2 1 -1 -1 -3 -6 -7 -8 -8 -8 -9 -9 -8 -8 -8 -6 -5 -5 -4 -5 -6 -5 -6 -10 -10 -10
5 5 6 5 6 4 -1 -2 -1 3 5 4 3 3 3 2 2 2 -0 -2 -2 -5 -7 -9 -10 -11 -11 -11 -10 -10 -10 -10 -7 -7 -3 -5 -4 -4 -6 -6 -9 -10 -10 -10
5 6 6 6 6 6 -1 1 5 4 3 4 3 3 1 1 1 -1 -4 -5 -7 -10 -11 -12 -13 -12 -12 -11 -11 -10 -10 -10 -9 -6 -5 -4 -4 -5 -6 -8 -9 -10 -10 -9
4 5 6 5 5 0 1 4 4 4 4 3 2 1 1 -1 -4 -5 -6 -9 -11 -12 -13 -13 -13 -13 -12 -11 -10 -10 -10 -9 -7 -5 -4 -4 -4 -5 -6 -7 -9 -10 -9 -9
-1 -2 6 4 1 -0 3 4 3 3 3 2 -1 -0 -4 -5 -5 -8 -10 -11 -11 -11 -11 -11 -11 -11 -11 -10 -10 -10 -9 -8 -9 -5 -4 -5 -6 -6 -7 -8 -9 -9 -9 -10
4 1 2 2 0 0 4 4 3 3 2 -2 -3 -5 -6 -7 -8 -10 -10 -11 -11 -12 -11 -11 -10 -10 -10 -10 -9 -8 -7 -6 -6 -6 -5 -6 -6 -6 -7 -7 -9 -8 -9 -9
2 2 5 5 4 4 4 3 3 1 -1 -4 -5 -6 -8 -10 -11 -11 -11 -11 -11 -10 -9 -9 -9 -8 -8 -7 -6 -7 -5 -5 -6 -6 -6 -6 -6 -7 -8 -9 -9 -9 -9 -9

GFSCGP_850_dewp_033.txt.gz
Dewpoint
-6 -3 -2 -7 -8 -10 -9 -7 -6 -6 -7 -8 -7 -5 -5 -5 -4 1 2 3 3 4 4 4 4 4 4 5 5 6 7 8 8 7 6 5 5 4 3 2 2 3 3 3
-4 -2 -6 -8 -9 -8 -8 -5 -1 -5 -6 -7 -6 -4 -4 -3 -2 -0 1 2 3 4 3 3 4 5 5 5 5 4 5 6 5 3 3 3 3 2 2 2 4 4 4 4
-2 -5 -9 -7 -3 -2 -1 -0 -1 -2 -4 -4 -4 -3 -2 -3 -2 -1 -0 1 2 3 4 4 3 3 2 2 1 1 0 0 0 1 2 2 2 2 3 3 3 2 2 2
-4 -6 -5 -5 -1 -2 1 -0 -1 -1 -1 0 -4 -0 -2 -2 -2 -0 -1 0 2 3 3 4 4 4 3 3 3 3 3 2 2 2 2 2 2 2 3 2 1 1 1 0
-4 -4 -1 0 -1 -3 0 -2 -1 -0 0 1 0 -0 -2 -2 2 2 1 1 1 2 2 3 3 3 3 3 3 3 3 3 3 3 3 2 2 2 2 1 1 0 0 0
-4 -3 -2 -1 -3 -3 -2 -1 1 1 2 5 4 2 0 -0 2 2 1 1 2 2 2 2 3 3 3 3 4 4 3 3 2 1 2 2 2 2 1 1 1 1 1 2
-3 -1 -2 -3 -0 -1 -0 2 7 6 7 7 6 6 7 3 1 1 2 2 1 2 2 2 2 3 3 3 4 3 3 3 3 1 1 1 2 2 2 2 1 1 1 0
3 3 -1 -2 -1 -0 1 1 6 7 8 7 2 5 4 1 1 1 1 1 2 2 1 1 1 2 2 2 1 1 1 1 1 1 1 1 1 -0 -1 -1 -0 -1 -1 -1
4 2 -2 -2 -3 -1 -1 4 -1 2 6 7 4 3 1 1 2 0 1 1 1 1 1 1 1 1 1 1 1 1 1 1 0 1 1 0 -3 -4 -5 -4 -3 -2 -2 -2
-1 3 -2 -3 -3 0 0 -3 3 6 6 7 3 4 7 3 2 1 0 1 1 1 1 1 1 1 1 1 1 1 0 -0 -0 -0 -1 -3 -5 -7 -6 -4 -3 -2 -2 -2
0 3 0 -4 -2 -1 1 2 1 2 4 6 6 3 -0 1 2 1 1 1 1 1 0 -0 -0 0 1 1 1 -0 -1 -1 -1 -3 -5 -6 -8 -4 -4 -3 -3 -3 -6 -4
-1 1 2 -0 -3 -2 -2 0 1 4 4 5 5 3 -2 2 2 1 0 -0 -0 1 1 0 0 1 1 1 -0 -1 -1 -1 -4 -5 -6 -6 -4 -4 -4 -4 -3 -5 -4 -5
2 2 4 3 2 1 -2 -3 -4 1 3 4 3 3 -3 0 0 0 1 -1 1 1 1 1 1 1 1 -0 -1 -1 -2 -4 -4 -5 -6 -5 -4 -4 -4 -4 -4 -8 -6 -5
2 2 2 4 0 -2 -3 -3 -5 -2 4 4 4 3 -0 3 3 2 2 1 2 2 2 2 2 2 1 -0 -1 -2 -4 -5 -5 -6 -7 -8 -5 -4 -5 -4 -6 -9 -6 -5
3 4 4 3 -1 -2 -3 -2 -3 -3 -2 1 1 0 0 1 2 2 2 2 2 2 2 1 1 0 -1 -2 -1 -2 -4 -4 -5 -6 -7 -7 -7 -6 -5 -4 -6 -7 -7 -5
2 5 3 2 3 1 -0 -0 0 -1 -2 -0 0 1 1 1 1 2 2 2 2 2 1 0 -1 -3 -3 -2 -2 -3 -4 -5 -5 -5 -6 -7 -8 -5 -5 -4 -9 -8 -6 -6
6 4 4 5 4 3 3 1 -1 -1 -1 -1 1 1 1 2 2 2 2 2 1 1 -0 -1 -3 -4 -5 -6 -6 -4 -5 -5 -4 -4 -4 -5 -5 -6 -4 -5 -5 -7 -6 -7
4 4 4 2 2 -2 1 -2 -0 1 1 1 3 3 3 2 2 2 2 1 -1 -3 -4 -6 -7 -7 -6 -5 -6 -8 -8 -9 -8 -7 -7 -5 -4 -4 -3 -3 -5 -6 -7 -8
4 3 2 4 4 2 1 -0 1 1 3 3 4 3 3 2 2 3 2 -3 -4 -4 -5 -5 -5 -8 -10 -11 -11 -11 -11 -11 -11 -9 -9 -8 -7 -4 -3 -3 -4 -5 -6 -11
5 3 2 0 1 2 1 -0 -1 -1 3 4 3 3 3 0 1 1 -1 -4 -5 -5 -6 -10 -12 -13 -13 -12 -12 -12 -12 -11 -10 -9 -6 -6 -6 -6 -4 -5 -6 -8 -10 -10
2 3 2 1 1 2 2 -1 -1 2 2 3 3 3 1 1 1 0 -4 -5 -6 -10 -11 -12 -13 -13 -13 -13 -13 -13 -10 -10 -9 -9 -8 -9 -8 -6 -4 -5 -7 -8 -9 -10
2 3 4 3 3 3 0 2 1 3 4 3 2 1 1 0 -2 -4 -5 -7 -10 -11 -11 -11 -11 -11 -11 -12 -11 -10 -9 -9 -9 -8 -8 -10 -5 -4 -5 -5 -6 -7 -9 -10
4 3 3 2 2 -0 1 2 4 3 3 3 1 1 -1 -2 -5 -5 -8 -10 -10 -11 -11 -11 -11 -11 -11 -10 -9 -9 -8 -8 -8 -8 -9 -8 -5 -5 -5 -6 -7 -9 -9 -10
0 2 3 3 2 3 4 4 3 3 3 2 1 -2 -4 -5 -6 -9 -10 -10 -11 -11 -11 -11 -11 -9 -9 -8 -8 -7 -7 -7 -7 -8 -8 -7 -7 -6 -6 -7 -7 -8 -10 -9
2 2 2 2 3 4 4 3 3 3 1 -1 -5 -5 -5 -8 -10 -10 -11 -11 -11 -11 -11 -10 -9 -8 -9 -8 -7 -6 -5 -5 -5 -6 -8 -6 -6 -6 -6 -6 -8 -9 -8 -9
3 3 2 2 3 3 4 3 3 0 -2 -4 -5 -6 -8 -10 -10 -11 -11 -11 -10 -10 -12 -12 -10 -9 -8 -7 -6 -5 -4 -4 -4 -5 -7 -7 -7 -7 -7 -8 -9 -9 -9 -10

GFSCGP_850_dewp_036.txt.gz
Dewpoint
-4 -4 -3 -7 -7 -7 -9 -6 -4 -6 -8 -8 -6 -5 -4 1 2 4 4 5 5 5 6 7 7 7 7 8 9 9 10 10 9 9 9 7 4 2 2 3 4 3 3 4
-4 -3 -6 -8 -4 -3 -4 -2 -3 -4 -5 -8 -5 -3 -3 -0 2 3 4 4 4 4 4 5 5 6 6 6 6 5 3 3 3 3 3 4 4 3 4 4 4 3 3 3
-2 -5 -9 -3 -2 -0 1 -0 -1 -2 -3 -4 -4 -2 -0 -1 1 3 4 3 3 2 2 2 2 3 3 2 2 1 2 2 2 2 2 2 2 2 2 2 2 2 1 0
-5 -6 -3 -1 -1 -2 2 -1 -1 -2 -1 -2 -4 0 -1 -1 1 1 3 4 3 3 2 2 2 1 1 1 1 0 1 2 2 2 1 -1 -2 -0 1 1 1 1 1 0
-4 -1 -0 -0 -2 -3 -0 -3 -2 -1 0 1 1 -0 -1 2 3 2 2 4 4 3 3 2 2 2 2 2 2 2 2 2 3 2 2 1 1 1 2 1 1 1 1 1
-3 -3 -2 -2 -2 -3 -2 -0 2 2 2 4 3 3 0 2 3 3 2 3 3 3 2 2 3 3 3 3 3 3 3 3 2 2 2 0 0 -0 1 2 2 2 1 0
-1 -1 -2 -2 0 -1 -1 3 5 6 7 6 4 7 5 3 2 2 2 2 2 2 2 2 3 3 3 3 3 3 2 2 1 1 0 0 1 1 1 -0 -1 -1 -2 -2
2 3 -1 -2 -1 -1 -0 3 5 6 7 4 3 7 4 2 2 2 2 2 2 2 2 2 2 2 3 3 2 2 1 1 1 1 1 1 0 -1 -3 -4 -6 -4 -2 -2
3 2 -1 -3 -3 -2 -1 3 -0 4 4 5 4 3 1 2 2 2 3 4 4 3 1 1 2 2 2 2 1 1 1 1 1 0 -0 -0 -2 -5 -6 -9 -7 -3 -3 -2
-0 3 -1 -3 -3 -1 -1 -2 3 4 5 6 4 5 6 3 3 2 1 2 2 2 2 2 1 1 1 1 1 0 -0 -0 -0 -0 -1 -4 -5 -7 -9 -9 -5 -4 -4 -4
-0 2 0 -1 -2 -1 0 1 1 2 3 5 6 3 1 2 2 2 2 2 2 2 1 1 1 1 1 0 0 -0 -1 -1 -1 -3 -4 -4 -6 -9 -11 -10 -7 -5 -4 -4
-0 1 1 -0 -3 -2 -2 0 2 4 2 4 4 2 1 2 1 0 0 2 2 2 1 1 1 1 1 0 -0 -1 -1 -2 -3 -3 -5 -6 -8 -9 -9 -9 -9 -5 -4 -5
0 1 3 3 2 0 -2 -2 -0 3 2 3 2 2 -2 1 2 1 2 2 2 2 2 1 1 -0 -1 -0 -1 -1 -2 -3 -4 -4 -5 -6 -7 -7 -7 -5 -5 -4 -5 -10
2 2 1 4 1 -1 -3 -4 -4 -0 3 3 3 2 1 3 3 2 3 3 2 1 1 1 0 -1 -3 -4 -4 -2 -2 -3 -4 -5 -5 -5 -6 -6 -6 -5 -5 -4 -5 -8
2 3 3 2 0 -1 -2 -2 -3 -3 -3 0 0 2 3 3 2 2 2 2 1 1 -0 -1 -2 -3 -4 -6 -8 -7 -6 -4 -3 -5 -4 -4 -4 -5 -5 -4 -4 -3 -3 -6
3 4 2 -0 3 2 -1 -2 0 -0 -2 -1 2 4 2 2 2 2 2 2 1 -1 -2 -4 -5 -6 -7 -6 -4 -3 -4 -5 -6 -7 -7 -5 -6 -5 -5 -4 -4 -4 -4 -5
4 3 1 -1 3 1 1 1 -1 -1 -0 -0 1 2 2 2 2 2 2 1 -1 -3 -5 -6 -6 -6 -6 -6 -7 -9 -11 -11 -11 -11 -9 -9 -9 -8 -5 -5 -4 -4 -3 -5
3 4 1 -0 -1 -7 -2 -1 -1 3 4 3 3 3 2 2 2 2 1 -3 -4 -5 -6 -6 -6 -10 -12 -12 -12 -12 -12 -13 -11 -10 -10 -9 -9 -8 -9 -8 -8 -4 -5 -5
3 1 3 -2 3 -2 -0 0 1 -0 3 3 4 3 3 1 2 2 -2 -5 -5 -6 -7 -11 -12 -13 -13 -13 -13 -13 -13 -13 -11 -10 -10 -9 -9 -9 -10 -6 -4 -7 -6 -9
3 0 -1 3 -3 -3 -2 -0 -1 -2 3 4 3 3 2 1 -0 -0 -4 -5 -6 -9 -11 -12 -11 -11 -11 -11 -11 -12 -12 -10 -10 -9 -9 -8 -8 -10 -7 -4 -5 -8 -8 -7
3 0 2 -1 -1 1 -1 -0 -1 2 1 3 3 2 1 0 -0 -2 -4 -6 -9 -11 -11 -11 -11 -11 -11 -11 -12 -10 -9 -8 -8 -8 -8 -8 -9 -8 -4 -5 -7 -8 -7 -7
3 2 1 0 -1 2 -1 1 1 0 3 3 3 2 1 0 -3 -4 -5 -9 -10 -10 -11 -11 -12 -12 -12 -12 -10 -9 -8 -7 -7 -7 -6 -8 -8 -7 -7 -5 -5 -6 -7 -9
2 1 2 2 2 -2 0 -0 0 2 3 3 2 1 0 -3 -5 -5 -9 -10 -10 -11 -11 -12 -12 -13 -16 -13 -11 -11 -10 -6 -5 -6 -5 -5 -7 -7 -6 -6 -6 -7 -7 -8
0 1 2 2 1 2 2 3 3 4 3 2 2 1 -4 -5 -5 -10 -10 -11 -11 -11 -12 -11 -14 -16 -13 -12 -11 -10 -8 -5 -4 -5 -4 -5 -7 -6 -6 -6 -7 -7 -8 -8
-1 2 2 2 4 4 4 3 3 3 3 1 -2 -5 -5 -8 -10 -10 -11 -11 -11 -11 -11 -15 -15 -14 -13 -12 -11 -10 -8 -6 -5 -5 -5 -6 -7 -7 -7 -7 -8 -9 -9 -9
3 2 2 3 1 2 2 3 3 2 -0 -4 -5 -6 -9 -10 -10 -11 -11 -11 -11 -12 -15 -15 -14 -14 -12 -11 -10 -8 -6 -6 -6 -6 -6 -7 -7 -7 -8 -8 -8 -8 -9 -10

GFSCGP_850_dewp_039.txt.gz
Dewpoint
-4 -4 -4 -7 -7 -7 -5 -7 -4 -6 -8 -8 -6 -3 -1 3 3 5 5 6 6 7 8 9 8 7 7 9 9 8 9 9 8 8 8 8 7 5 3 3 3 3 4 4
-3 -3 -6 -5 -3 -4 -3 -4 -4 -4 -4 -6 -3 -1 -0 1 4 5 5 6 6 6 6 6 7 8 8 8 7 4 3 3 4 4 4 4 3 3 3 3 3 4 3 2
-3 -5 -5 -3 -1 0 1 -1 -2 -3 -3 -5 -3 -1 2 1 4 5 5 5 5 4 5 6 6 5 4 3 2 1 1 1 1 2 2 1 -0 -3 -3 -2 -3 -1 0 1
-5 -3 -2 -2 -2 -1 1 -1 -2 -2 -3 -5 -3 2 1 1 2 4 5 4 4 3 3 2 1 1 1 1 1 1 1 1 0 -3 -3 -3 -3 -3 -2 -1 -1 1 1 1
-4 -1 -1 -1 -2 -3 -0 -2 -2 -1 -0 0 1 -0 -0 2 3 3 4 4 4 3 2 1 2 2 3 2 2 1 1 0 -0 -1 -0 0 -0 -0 -0 0 1 2 2 1
-2 -3 -3 -2 -2 -3 -2 0 2 3 2 4 3 3 1 3 3 3 3 4 4 3 3 3 3 2 2 3 2 3 3 2 1 1 1 0 0 0 1 1 1 -0 -2 -3
-1 -0 -2 -2 -1 -2 -0 2 5 6 6 6 4 6 4 2 2 3 3 4 4 3 3 2 2 2 2 3 4 3 2 2 1 1 1 1 0 0 -1 -3 -4 -6 -7 -5
3 3 -1 -2 -2 -1 0 3 4 6 6 3 3 6 4 2 2 2 3 3 3 2 2 3 2 2 3 4 3 2 2 1 1 1 0 -0 -0 -2 -4 -6 -9 -11 -6 -4
2 1 -2 -3 -3 -2 -1 2 -0 4 4 4 4 3 2 2 3 2 2 2 3 3 3 3 3 4 3 2 2 1 1 1 0 -0 -0 -1 -4 -4 -5 -10 -12 -11 -9 -6
1 3 -1 -3 -3 -3 -3 -2 3 3 4 5 4 5 5 4 4 2 3 3 3 3 2 2 3 2 2 1 1 1 0 -0 -1 -1 -3 -4 -6 -7 -7 -9 -9 -8 -8 -6
-0 0 -1 -1 -2 -1 -0 1 1 2 3 5 5 3 -1 3 2 2 2 3 2 1 2 2 1 2 2 1 1 -0 -1 -1 -2 -3 -3 -5 -5 -5 -6 -7 -7 -6 -5 -4
0 1 1 -1 -2 -1 -1 0 0 1 1 4 3 1 1 2 1 2 2 2 1 1 1 2 1 1 1 1 -0 -1 -2 -3 -3 -4 -4 -5 -5 -5 -6 -6 -6 -5 -4 -4
-0 1 2 1 1 -1 -1 -2 2 1 1 3 1 1 0 2 2 2 2 2 2 2 2 1 0 -0 -1 -3 -4 -4 -2 -3 -3 -4 -4 -5 -4 -6 -5 -5 -5 -4 -3 -4
1 3 0 2 1 -1 -3 -4 -1 -0 3 2 2 0 3 3 3 3 3 3 2 1 1 -1 -2 -4 -5 -7 -7 -5 -4 -3 -3 -3 -4 -5 -6 -4 -6 -5 -5 -7 -4 -5
0 3 2 1 1 -1 -3 -3 -3 -3 -3 -1 -2 1 2 3 2 3 3 2 1 -0 -2 -4 -5 -6 -5 -5 -5 -5 -5 -7 -8 -11 -12 -12 -12 -10 -7 -9 -8 -6 -6 -4
3 3 1 1 2 1 -1 -3 -2 -1 -2 -2 2 4 2 2 2 3 2 1 -0 -2 -5 -7 -6 -5 -6 -8 -9 -10 -11 -12 -13 -13 -14 -12 -10 -10 -10 -9 -8 -8 -7 -4
3 2 -1 -4 2 -2 -4 -2 -1 -1 -0 -1 4 2 2 2 2 2 2 0 -3 -5 -6 -5 -5 -8 -12 -12 -12 -13 -13 -12 -12 -12 -10 -10 -9 -9 -9 -9 -10 -7 -5 -5
2 2 -1 -2 -2 -5 -5 -2 -2 -0 2 2 3 2 2 2 2 2 1 -3 -5 -5 -4 -6 -10 -12 -12 -12 -12 -11 -11 -11 -11 -10 -9 -9 -9 -8 -9 -11 -7 -4 -4 -5
2 1 2 -1 0 -4 -3 1 3 1 1 3 3 2 2 2 2 2 0 -5 -5 -5 -8 -12 -12 -11 -11 -11 -11 -11 -11 -9 -9 -9 -9 -8 -8 -7 -10 -11 -5 -5 -6 -7
1 -1 -1 2 -4 -6 -6 -0 -1 -2 1 3 3 3 2 2 2 -0 -0 -5 -5 -8 -11 -11 -11 -11 -11 -12 -12 -13 -14 -12 -12 -9 -7 -7 -6 -7 -8 -9 -6 -7 -7 -7
3 -1 1 -3 -2 -1 -3 -1 -2 1 -3 3 3 3 2 1 0 -1 -4 -4 -8 -10 -11 -11 -11 -12 -13 -14 -16 -18 -18 -16 -14 -7 -6 -6 -5 -5 -7 -8 -6 -7 -7 -6
3 2 1 0 -0 1 -2 -1 0 -1 -1 1 3 3 2 1 -0 -3 -4 -7 -10 -10 -10 -11 -12 -14 -15 -19 -19 -17 -16 -14 -11 -6 -5 -5 -5 -5 -6 -6 -6 -6 -7 -8
1 -0 1 1 1 -2 0 -0 -1 -1 0 3 3 3 2 0 -3 -4 -6 -10 -10 -10 -11 -11 -13 -15 -19 -18 -16 -15 -13 -11 -9 -6 -5 -5 -5 -6 -6 -6 -6 -7 -7 -8
1 -0 1 1 -1 -0 -1 0 2 2 2 3 3 2 1 -2 -4 -6 -9 -10 -11 -11 -11 -12 -15 -18 -17 -16 -14 -12 -11 -9 -8 -7 -7 -6 -6 -7 -7 -7 -7 -8 -8 -8
0 2 2 2 2 4 3 2 2 3 3 3 2 1 -2 -5 -7 -9 -10 -11 -11 -11 -11 -15 -17 -15 -15 -14 -12 -11 -10 -9 -8 -7 -7 -6 -8 -7 -7 -8 -8 -8 -9 -9
1 2 2 2 -0 1 1 1 3 3 3 1 -2 -4 -5 -8 -9 -10 -11 -11 -11 -11 -15 -15 -15 -14 -13 -12 -12 -11 -10 -8 -7 -7 -7 -7 -8 -8 -8 -9 -9 -9 -9 -10

GFSCGP_850_dewp_042.txt.gz
Dewpoint
-4 -4 -4 -7 -7 -8 -7 -7 -6 -6 -7 -7 -3 1 3 4 4 5 6 6 7 7 7 6 7 6 7 8 9 10 10 9 9 9 8 5 6 5 2 0 -0 1 3 3
-3 -4 -6 -3 -5 -4 -4 -4 -4 -4 -4 -5 -0 2 2 3 4 5 6 7 7 8 9 9 10 10 10 10 10 8 4 5 5 5 5 3 2 -1 -3 -3 -3 -2 -2 -2
-3 -5 -5 -2 -1 -0 -0 -2 -2 -3 -4 -4 -2 -0 3 3 5 5 6 6 6 6 6 7 7 6 5 2 -0 -0 -0 1 1 -0 -1 -3 -3 -3 -1 -1 -1 -1 -1 0
-4 -2 -3 -3 -2 -1 0 -2 -2 -2 -4 -1 -3 0 2 3 4 5 5 5 5 5 5 5 2 0 -0 -0 0 0 -1 -1 -3 -3 -2 -2 -1 -0 0 0 0 1 1 1
-3 -2 -2 -1 -2 -3 -0 -2 -1 -1 0 -0 1 -0 0 3 5 4 4 5 4 3 2 2 1 2 1 1 2 2 2 1 0 0 1 0 0 0 1 1 1 1 -1 -2
-2 -2 -2 -2 -2 -2 -2 1 2 2 2 4 3 4 2 4 3 3 4 4 3 3 2 2 2 2 2 3 3 3 3 3 2 2 1 1 1 0 0 -0 -2 -5 -7 -8
-0 -0 -2 -2 -1 -2 0 1 4 5 5 6 3 5 3 1 2 3 4 4 4 3 3 3 3 3 3 4 4 3 3 3 2 1 1 0 -0 -1 -3 -5 -7 -12 -11 -11
2 2 -1 -3 -2 -0 1 1 5 6 7 4 3 6 4 2 2 2 3 3 3 3 3 3 4 4 4 4 4 3 2 2 1 1 -0 -1 -3 -5 -7 -8 -8 -10 -9 -8
2 1 -2 -3 -1 -2 0 2 -0 4 3 4 4 3 2 3 3 3 3 3 3 3 3 4 4 4 4 4 2 2 1 0 -0 -1 -2 -3 -5 -5 -6 -6 -7 -7 -6 -6
1 3 -2 -4 -3 -2 -3 -1 3 2 2 2 3 4 5 4 4 3 3 3 3 3 3 2 3 3 2 1 1 1 -0 -1 -2 -3 -3 -3 -5 -5 -5 -5 -6 -5 -5 -5
-0 -0 -1 -1 -2 -0 0 1 1 2 2 4 4 3 0 3 3 3 3 2 3 3 2 2 2 2 1 0 1 0 -0 -2 -2 -2 -4 -4 -4 -5 -5 -6 -6 -5 -5 -4
-0 0 1 -1 -3 -1 -1 0 -1 0 1 3 3 2 1 1 1 2 2 2 2 2 1 1 1 1 1 -0 -2 -4 -4 -3 -3 -4 -4 -4 -3 -4 -5 -5 -5 -5 -5 -6
-1 0 2 0 -1 -2 -0 -1 1 -0 1 3 0 -1 1 2 2 2 2 1 1 1 1 1 0 -1 -3 -5 -6 -6 -7 -6 -5 -4 -4 -6 -10 -14 -12 -7 -7 -9 -8 -6
-1 1 -0 1 -2 -1 -2 -4 0 -0 2 2 1 -1 2 2 2 3 2 2 1 1 0 -1 -3 -5 -6 -6 -7 -6 -5 -6 -7 -10 -12 -14 -14 -13 -11 -11 -11 -11 -10 -8
-1 2 1 1 1 -1 -3 -4 -3 -2 -2 -1 -3 1 -1 2 2 3 3 2 1 -0 -2 -5 -6 -6 -6 -6 -7 -8 -10 -12 -13 -12 -14 -13 -11 -10 -10 -10 -10 -11 -9 -6
2 3 -0 2 2 1 -0 -2 -3 -3 -3 -2 -1 0 1 2 2 3 3 2 1 -1 -5 -6 -6 -5 -7 -10 -12 -12 -12 -12 -12 -14 -13 -11 -10 -9 -9 -8 -9 -11 -8 -4
2 1 0 1 0 -3 -3 -2 -2 -1 -1 -1 2 -0 2 2 2 3 2 1 -0 -4 -6 -5 -5 -8 -12 -12 -12 -12 -11 -13 -15 -14 -11 -10 -9 -8 -8 -7 -10 -11 -6 -4
1 0 -2 -3 -3 -7 -6 -5 -2 -2 -1 -0 1 1 2 2 2 2 2 1 -3 -6 -5 -5 -8 -12 -12 -12 -11 -12 -14 -15 -16 -15 -13 -9 -8 -7 -6 -7 -8 -9 -6 -8
0 -1 1 -2 -1 -5 -6 1 1 -0 -1 2 1 2 2 2 2 2 2 0 -5 -5 -5 -9 -12 -11 -11 -11 -13 -15 -18 -19 -18 -17 -15 -9 -7 -6 -6 -6 -7 -7 -7 -8
-0 -2 -1 -1 -5 -6 -6 -1 -1 -2 2 1 2 2 2 2 2 1 1 1 -4 -5 -8 -11 -11 -11 -11 -13 -16 -18 -19 -18 -18 -17 -15 -11 -6 -5 -6 -5 -6 -7 -6 -6
2 -0 -0 -3 -4 -2 -4 -1 -2 1 -1 2 2 2 2 1 1 0 0 -1 -4 -8 -11 -11 -11 -11 -13 -16 -18 -18 -18 -18 -18 -16 -14 -9 -6 -6 -5 -6 -6 -6 -6 -6
3 3 3 -1 -2 1 -4 -1 0 -1 -3 -2 1 1 2 1 1 -0 -2 -3 -7 -10 -10 -11 -11 -12 -15 -17 -17 -18 -18 -18 -17 -15 -12 -8 -6 -6 -6 -7 -6 -7 -6 -7
2 -0 1 0 1 -3 -3 -1 -1 -1 -1 -1 1 2 2 2 1 -2 -3 -5 -10 -10 -10 -11 -11 -14 -17 -17 -17 -17 -16 -16 -15 -13 -10 -10 -8 -7 -7 -7 -7 -7 -7 -8
1 -1 -0 0 -2 -1 -2 -2 -0 1 1 1 1 2 3 2 -1 -3 -5 -10 -10 -10 -10 -11 -13 -17 -17 -16 -15 -15 -14 -13 -12 -10 -8 -8 -7 -7 -8 -7 -7 -8 -8 -9
0 0 1 1 0 1 0 0 -1 0 2 3 3 3 2 -0 -2 -2 -9 -10 -10 -10 -11 -13 -16 -16 -15 -14 -14 -12 -12 -11 -10 -9 -8 -8 -8 -8 -9 -8 -8 -9 -9 -9
0 1 1 1 -2 -1 -1 -0 1 2 3 3 2 1 -2 -0 -5 -8 -10 -11 -11 -13 -15 -16 -15 -14 -14 -13 -12 -11 -10 -9 -7 -8 -8 -8 -8 -9 -9 -9 -9 -10 -10 -10

GFSCGP_850_dewp_045.txt.gz
Dewpoint
-5 -3 -4 -6 -7 -8 -6 -6 -5 -6 -6 -1 0 2 3 4 5 6 6 7 7 7 7 7 6 6 6 7 8 9 9 8 8 9 8 6 5 1 -3 -3 -3 -2 -2 -2
-3 -3 -6 -3 -6 -5 -5 -4 -3 -3 -4 -2 1 3 4 4 5 6 6 7 7 8 9 9 9 9 10 9 9 9 7 9 8 5 4 4 1 -3 -2 -1 -0 -0 -0 -1
-1 -4 -4 -2 -1 -1 -1 -1 -2 -2 -3 -2 -1 0 3 5 5 6 6 7 8 8 8 7 7 6 2 -0 -1 -0 -0 -1 0 2 1 -1 -2 -1 0 0 0 0 -0 0
-2 -2 -3 -2 -0 -1 1 -2 -2 -3 -4 -1 -2 -1 1 4 6 6 6 6 6 6 6 6 1 -0 -0 -0 -2 -2 -2 -1 -1 -1 -1 -0 -0 -0 0 1 1 0 1 -1
-1 -2 -1 -0 -1 -2 1 -1 -0 -1 1 -0 2 -1 -1 4 7 6 5 5 5 6 4 1 0 1 1 1 1 1 1 0 0 0 1 1 1 1 1 1 0 -2 -4 -7
-1 -2 -2 -2 -1 -1 0 1 2 2 3 4 3 4 3 4 4 5 5 5 4 3 2 1 2 2 2 2 2 2 3 2 2 2 1 1 1 -0 -2 -3 -5 -7 -10 -12
0 -0 -2 -2 -0 -1 0 2 4 4 6 4 3 4 3 2 1 4 4 4 3 2 2 2 3 3 3 3 3 3 3 3 2 1 1 0 -1 -3 -4 -6 -7 -8 -10 -9
2 1 -1 -3 -1 1 2 1 7 6 7 5 2 5 3 2 2 3 4 3 3 3 3 3 3 3 3 4 4 3 3 2 1 1 -0 -2 -3 -4 -5 -6 -6 -6 -6 -6
3 1 -2 -3 -1 -1 2 3 0 5 4 5 2 3 1 3 3 3 3 4 4 3 3 4 4 4 4 4 4 2 2 1 -0 -1 -3 -3 -4 -5 -5 -5 -5 -6 -6 -6
2 3 -2 -3 -2 -1 -1 -0 4 3 4 1 1 3 2 4 4 4 4 4 4 4 4 4 4 5 4 3 2 1 -0 -1 -2 -2 -2 -4 -5 -5 -4 -5 -5 -6 -6 -5
-0 2 0 -1 -1 1 1 2 2 2 2 1 2 -2 1 2 3 4 3 3 3 3 3 3 3 2 1 0 -0 -0 -1 -3 -3 -3 -4 -4 -4 -4 -4 -7 -10 -5 -5 -6
-0 2 3 -0 -2 -1 -1 0 1 3 2 4 3 1 1 2 2 3 3 3 3 3 2 1 0 0 0 -0 -2 -4 -4 -4 -6 -7 -5 -5 -8 -12 -15 -15 -12 -11 -12 -12
0 2 3 1 -1 -1 0 0 -1 -0 2 4 7 -2 1 2 2 3 2 2 2 1 1 1 0 -0 -2 -4 -6 -5 -4 -6 -6 -8 -9 -11 -13 -17 -14 -11 -10 -11 -13 -13
-1 1 1 3 -1 0 -0 0 -0 0 3 1 1 -3 -0 2 3 2 2 2 1 1 1 -0 -2 -4 -5 -6 -6 -5 -7 -10 -12 -12 -12 -16 -15 -11 -10 -10 -10 -12 -12 -12
1 2 1 1 1 -1 -3 -3 1 -0 -1 2 -1 -1 -3 0 2 2 2 2 1 1 -1 -3 -5 -5 -6 -6 -7 -10 -12 -12 -12 -14 -17 -15 -11 -11 -10 -10 -10 -11 -10 -11
1 4 1 3 1 0 0 -2 -3 -2 -3 -2 -2 -2 -4 0 2 3 3 2 1 -0 -2 -5 -6 -6 -7 -10 -11 -12 -11 -12 -15 -17 -16 -13 -12 -12 -11 -9 -8 -8 -8 -10
2 3 2 3 -1 -3 1 -1 -1 -2 -2 -2 -1 -2 2 2 2 3 3 2 1 -1 -4 -6 -6 -6 -11 -12 -12 -11 -12 -15 -18 -18 -19 -18 -15 -11 -9 -7 -6 -7 -8 -8
1 -0 -1 1 -2 -3 -4 -3 -3 -1 -2 -2 -0 1 2 2 2 3 2 2 1 -2 -5 -5 -5 -10 -12 -11 -11 -12 -15 -19 -20 -19 -20 -19 -16 -12 -7 -6 -6 -7 -7 -7
-1 0 1 2 -1 -5 -7 -3 0 1 -2 -1 -1 1 2 2 2 2 2 1 1 -3 -5 -5 -9 -12 -11 -11 -12 -16 -19 -19 -19 -20 -19 -18 -15 -11 -7 -6 -6 -6 -7 -7
-1 -1 2 0 -1 -2 -6 -4 -0 -2 2 -1 1 2 2 2 4 2 2 1 -1 -4 -4 -8 -11 -11 -11 -12 -15 -18 -19 -19 -18 -18 -18 -16 -14 -11 -7 -7 -7 -7 -8 -7
4 3 4 -1 2 -0 -4 -3 -2 1 -0 -0 1 1 2 2 2 0 1 2 -1 -4 -7 -11 -11 -10 -11 -13 -18 -18 -18 -17 -16 -16 -16 -15 -13 -11 -9 -8 -7 -8 -7 -6
4 5 4 1 3 3 -5 -1 2 0 -3 -2 0 -1 0 0 1 1 1 0 -3 -7 -10 -11 -10 -11 -13 -16 -17 -17 -16 -15 -15 -15 -14 -13 -12 -12 -10 -8 -8 -8 -7 -7
3 2 3 1 3 -3 -4 -1 -2 -1 -2 -2 -1 0 1 1 1 0 -2 -4 -6 -5 -10 -10 -11 -12 -15 -17 -16 -16 -15 -14 -13 -13 -14 -12 -12 -11 -8 -9 -8 -8 -8 -7
1 -1 2 1 -1 -1 -3 -4 -3 -2 0 0 1 1 2 2 1 -1 -5 -2 -4 -10 -10 -10 -12 -15 -17 -17 -16 -14 -13 -13 -13 -13 -11 -10 -10 -10 -8 -9 -8 -8 -8 -9
0 0 1 1 0 -1 -2 -1 -0 -0 0 1 2 2 2 2 -1 -3 -0 -3 -10 -10 -10 -13 -16 -17 -16 -16 -14 -14 -14 -13 -11 -10 -8 -8 -10 -9 -9 -9 -9 -9 -10 -11
0 1 3 3 -2 -2 -2 0 1 2 2 3 3 2 0 -2 -1 -3 -5 -10 -7 -9 -13 -16 -17 -16 -15 -14 -14 -14 -13 -11 -8 -7 -7 -7 -8 -8 -8 -9 -10 -10 -11 -11

GFSCGP_850_dewp_048.txt.gz
Dewpoint
-4 -5 -7 -9 -9 -9 -7 -8 -9 -8 -6 -5 -6 -1 -0 5 7 7 7 7 7 8 9 8 7 7 6 7 7 7 8 9 7 6 6 7 6 3 -3 -2 -1 -1 -0 -0
-4 -5 -5 -6 -7 -7 -7 -6 -5 -4 -6 -3 -1 1 1 4 6 7 7 7 8 9 9 9 11 11 11 11 10 10 9 8 8 7 7 5 4 1 1 -0 0 0 0 -0
-5 -4 -3 -5 -4 -4 -3 -3 -3 -4 -4 -3 -1 1 3 3 5 6 7 7 8 8 9 10 10 10 10 10 10 9 8 7 5 4 2 2 -1 -2 0 1 2 1 0 0
-3 -3 -3 -3 -2 -3 -2 -3 -4 -3 -3 -3 -2 -4 1 3 4 5 6 7 7 7 7 7 5 5 6 7 7 6 6 5 -2 -1 4 3 2 2 3 3 2 2 0 -2
-1 -3 -2 -3 -2 -2 -1 -3 -3 -3 -2 -2 -2 -3 0 3 5 5 6 7 7 7 7 3 3 3 3 1 4 4 4 4 1 0 3 3 3 2 3 3 0 0 -0 -6
-2 -2 -2 -2 -1 -2 -1 -0 0 -0 -0 1 -2 0 -7 -0 1 5 6 6 7 6 4 3 3 3 4 2 1 1 3 1 1 2 2 2 2 1 -0 -1 -2 -3 -3 -3
-1 -1 -2 -2 -0 -0 -0 -1 -1 1 1 -1 2 2 -4 1 1 3 5 6 6 4 3 3 3 4 4 4 4 4 4 4 2 2 1 0 -1 -1 -2 -2 -3 -4 -5 -5
-1 1 -2 -2 -1 -1 -1 -2 -1 -2 -0 0 3 2 2 1 1 2 4 5 3 3 3 3 4 4 4 5 5 4 4 3 2 1 -0 -1 -2 -2 -2 -3 -3 -4 -4 -3
-0 -0 -2 -2 -1 -1 1 1 1 3 4 4 -1 1 1 2 2 2 4 3 3 3 4 4 5 5 5 5 5 5 3 2 1 -1 -1 -2 -3 -3 -3 -3 -2 -2 -1 -2
1 1 -2 -2 -2 -1 0 -1 2 2 4 -1 -5 -2 -4 3 3 2 3 2 3 4 4 4 5 6 5 5 5 3 2 0 -1 -2 -3 -3 -3 -3 -3 -3 -2 -3 -4 -4
-0 -0 1 -2 -1 -1 1 1 1 -0 1 -3 -5 -8 -0 0 2 2 2 2 3 4 4 4 4 4 4 3 1 1 -1 -2 -3 -3 -3 -3 -4 -6 -6 -6 -6 -7 -7 -8
0 1 3 -0 -2 -2 -1 -1 -0 -0 0 3 2 -4 -2 1 2 2 2 3 4 4 3 3 2 1 0 -0 -1 -1 -3 -3 -1 -3 -5 -7 -7 -7 -8 -8 -8 -8 -8 -7
-0 1 4 2 -0 -0 -0 -0 -1 -1 1 1 7 -6 -2 1 2 2 3 3 3 3 2 2 1 1 1 -0 -3 -5 -3 -2 -7 -9 -9 -8 -9 -10 -9 -8 -7 -7 -6 -6
-2 1 1 3 -1 -1 1 -0 -2 -3 0 -4 -2 -9 -4 -0 1 2 3 3 3 2 1 1 0 -0 -1 -3 -4 -4 -4 -9 -11 -9 -10 -12 -11 -8 -8 -7 -7 -6 -5 -5
1 2 0 -0 -1 -1 -2 -2 -1 -2 -3 -0 -6 -7 -11 -6 -2 0 2 3 2 2 1 1 -0 -1 -2 -4 -5 -5 -10 -12 -12 -13 -14 -11 -8 -7 -7 -6 -5 -5 -4 -4
1 3 2 2 1 -0 -0 -2 -3 -1 -2 -3 -4 -4 -7 -5 -4 1 2 2 2 1 1 -1 -2 -3 -4 -6 -7 -11 -12 -12 -15 -18 -11 -10 -9 -7 -6 -6 -5 -5 -5 -5
3 4 3 2 -1 -1 5 0 -2 -3 -3 -2 -2 -4 -3 -1 -1 1 2 2 2 1 -0 -1 -2 -4 -6 -8 -10 -9 -10 -14 -20 -14 -12 -11 -11 -8 -7 -6 -5 -5 -5 -4
3 3 3 5 1 8 -6 -5 -4 -2 -3 -4 -4 -3 -3 -1 0 1 2 2 2 1 -0 -2 -3 -5 -7 -9 -9 -11 -13 -16 -20 -18 -18 -15 -11 -11 -7 -5 -5 -5 -5 -4
-1 1 5 10 -0 -4 -9 -7 -6 -4 -6 -5 -4 -4 -0 2 2 2 2 2 2 1 -1 -2 -4 -7 -9 -9 -10 -13 -14 -14 -13 -14 -12 -12 -13 -7 -5 -5 -5 -5 -5 -5
-1 0 4 5 11 10 -6 -3 -1 -2 -1 -2 -2 -2 1 2 3 -5 2 2 2 -0 -2 -4 -7 -10 -9 -10 -12 -15 -12 -12 -11 -10 -16 -13 -7 -5 -5 -5 -5 -5 -6 -5
6 6 8 6 10 2 -5 -3 -1 -0 -2 -1 -0 0 1 1 0 1 3 2 -0 -1 -4 -8 -11 -9 -9 -11 -14 -17 -10 -10 -10 -15 -12 -9 -7 -6 -7 -10 -6 -6 -6 -6
5 7 8 5 9 8 -4 -1 2 0 -0 0 2 1 2 3 2 2 2 1 -2 -6 -8 -11 -8 -9 -9 -13 -17 -11 -10 -9 -11 -10 -8 -8 -6 -6 -6 -6 -6 -6 -6 -7
4 2 3 2 1 -2 -3 -0 1 1 1 1 1 2 2 3 2 1 -0 -3 -7 -9 -7 -4 -5 -8 -12 -17 -17 -12 -9 -12 -12 -11 -8 -6 -6 -6 -6 -6 -6 -7 -7 -7
1 -0 2 1 -2 -2 -2 -2 -1 -1 1 1 2 2 3 2 1 -1 -6 -8 -6 -3 -4 -3 -8 -12 -15 -17 -16 -14 -13 -13 -11 -7 -7 -10 -9 -7 -6 -7 -7 -7 -7 -7
0 0 1 1 -1 -2 -1 1 2 2 2 2 2 3 3 2 -1 -6 -6 -3 -3 -4 -2 -6 -11 -17 -17 -15 -14 -14 -14 -13 -8 -7 -7 -7 -7 -7 -7 -7 -7 -7 -8 -8
-0 -0 3 3 -0 -0 1 3 2 3 3 3 1 0 -0 -3 -4 -2 -2 -3 -2 -3 -5 -11 -16 -16 -11 -14 -14 -14 -12 -8 -7 -6 -7 -7 -7 -7 -7 -8 -8 -8 -9 -9

GFSCGP_850_dewp_051.txt.gz
Dewpoint
-4 -3 -3 -6 -9 -9 -10 -11 -10 -11 -12 -10 -10 -5 -3 1 1 3 4 5 6 6 7 8 9 9 8 10 11 11 10 9 10 9 9 8 5 7 3 3 4 4 4 4
-3 -2 -4 -9 -10 -9 -8 -7 -9 -9 -10 -7 -7 -4 -2 2 3 3 4 5 6 7 9 10 10 11 11 11 11 11 10 10 10 8 8 8 6 4 3 4 4 3 2 1
-2 -2 -5 -8 -8 -7 -7 -5 -4 -6 -6 -8 -5 -2 0 1 2 3 4 4 6 7 9 10 10 11 11 11 11 11 10 10 8 6 6 5 4 4 3 4 4 4 1 0
1 -1 -7 -7 -7 -6 -4 -4 -6 -6 -4 -3 -5 -3 0 1 3 4 5 5 6 7 8 9 9 10 10 9 8 7 7 7 6 5 4 4 2 2 4 4 4 3 3 3
-4 -5 -6 -6 -4 -4 -1 -4 -5 -6 -6 -2 -3 -6 1 2 3 3 4 6 6 7 7 6 6 6 6 7 7 7 6 5 5 5 4 4 4 4 4 4 3 2 2 1
-0 -4 -4 -3 -3 -4 -3 -3 -3 -4 -4 -0 -5 -4 -3 1 -1 2 3 4 6 6 5 3 3 3 5 6 6 5 5 5 5 5 5 5 5 4 2 1 0 -1 -3 -4
-3 -4 -3 -3 -2 -3 -3 -2 2 2 -0 0 -1 -1 -6 -1 -1 -0 3 4 6 7 3 2 3 3 5 6 6 5 4 4 5 5 5 4 2 1 0 -0 -1 -2 -5 -5
-3 1 -3 -4 -3 -2 -2 -3 -0 -0 -1 -3 -0 -5 -2 0 -1 1 3 5 6 5 3 2 3 3 4 5 5 5 5 4 5 4 2 1 0 -0 -1 -1 -2 -3 -3 -3
-2 -2 -3 -3 -3 -3 -1 -1 -2 -0 1 3 -5 -3 1 0 0 1 3 4 5 3 3 3 3 4 5 5 5 5 5 4 3 2 -0 -0 -1 -1 -1 -2 -2 -2 -2 -4
-4 -1 -3 -2 -2 -2 -2 -2 -0 -1 3 0 -7 -6 -3 0 1 1 2 4 3 3 3 3 4 5 5 5 5 6 5 2 0 -1 -1 -0 -1 -1 -2 -2 -4 -4 -5 -6
-5 -3 0 -2 -2 -5 -0 -1 -2 -1 -0 1 -5 -6 -4 -4 -1 -0 1 2 2 3 3 4 4 5 6 6 6 4 2 -0 -1 -2 1 -0 -2 -4 -5 -6 -6 -7 -7 -7
-3 -2 -1 -1 -3 -3 -2 -3 -2 2 -0 -1 2 -3 -5 -4 -2 -2 -1 1 2 3 3 4 5 5 5 4 3 1 0 -0 -1 1 -4 -5 -6 -6 -7 -8 -8 -7 -7 -6
-0 -3 -0 0 -1 -2 -1 -3 -3 -2 -0 1 5 -2 -4 -3 -3 -2 -2 -0 1 3 4 4 4 3 2 2 1 1 -0 -2 1 -4 -8 -8 -8 -9 -9 -8 -7 -7 -6 -6
-1 -2 -1 2 -1 -2 1 -2 -2 -2 3 -0 -5 -6 -5 -4 -4 -4 -2 -0 2 4 3 3 2 2 2 1 1 -2 -3 -3 -6 -9 -9 -11 -10 -8 -8 -7 -7 -6 -6 -5
1 2 -1 -2 -1 -2 -2 -2 -3 -1 -3 -0 -4 -7 -12 -10 -6 -5 -3 -1 2 3 2 2 2 1 1 0 -2 -3 -3 -6 -8 -8 -11 -11 -9 -8 -8 -7 -6 -6 -5 -5
1 2 2 3 -0 -0 -0 -2 -3 -4 -4 -6 -7 -7 -10 -9 -8 -6 -3 -1 2 2 2 2 1 1 -0 -1 -4 -4 -6 -8 -8 -10 -11 -11 -10 -10 -9 -7 -6 -6 -6 -6
3 3 3 2 -0 -1 4 0 -3 -5 -5 -5 -2 -5 -5 -5 -5 -6 -3 -0 1 2 2 2 1 -0 -2 -4 -5 -7 -7 -8 -9 -11 -12 -12 -11 -10 -9 -9 -8 -6 -6 -6
4 4 5 4 3 8 -6 -7 -7 -4 -5 -7 -6 -6 -7 -5 -4 -3 -2 -0 1 1 1 1 -0 -2 -4 -6 -8 -7 -9 -10 -10 -11 -11 -11 -10 -9 -8 -7 -6 -6 -6 -6
-0 3 5 9 1 -3 -5 -9 -7 -6 -6 -10 -7 -9 -8 -1 -1 -1 -1 0 1 1 1 0 -1 -3 -5 -8 -8 -8 -9 -11 -12 -12 -11 -10 -9 -8 -7 -6 -6 -6 -6 -6
-1 0 3 6 10 10 -3 -4 -4 -4 -3 -7 -6 -5 -2 -0 2 -1 0 1 2 2 1 -1 -2 -5 -8 -8 -8 -8 -11 -12 -12 -11 -10 -9 -7 -7 -6 -6 -5 -5 -6 -7
7 8 8 6 10 4 -4 -3 -3 -1 0 -3 -4 -4 -3 -1 2 2 1 2 2 1 -1 -3 -7 -8 -8 -6 -7 -9 -12 -12 -11 -9 -8 -7 -7 -7 -6 -7 -6 -6 -6 -6
6 8 8 8 8 8 -5 -3 0 1 -2 -2 -1 -1 0 1 3 2 2 2 0 -1 -6 -8 -8 -6 -6 -6 -8 -12 -13 -12 -10 -8 -7 -7 -6 -6 -7 -7 -7 -6 -6 -6
4 3 4 3 3 -2 -4 -3 1 0 -0 0 1 0 1 3 2 2 2 0 -3 -7 -8 -7 -5 -3 -6 -7 -11 -11 -10 -9 -8 -7 -7 -7 -6 -7 -6 -7 -7 -6 -6 -7
0 -0 2 1 -4 -4 -3 -2 -1 -1 -0 0 1 2 2 2 2 1 -0 -5 -7 -6 -5 -2 -2 -5 -9 -10 -11 -9 -8 -8 -8 -7 -7 -6 -6 -6 -7 -6 -7 -7 -7 -7
0 -0 -1 -0 -3 -4 -1 2 3 3 3 3 3 3 3 3 2 -3 -6 -6 -4 -2 -1 -3 -6 -8 -11 -9 -9 -9 -8 -8 -7 -7 -7 -6 -6 -6 -7 -6 -7 -7 -7 -7
-1 -1 3 3 1 1 3 3 4 3 3 3 2 1 1 -0 -4 -4 -3 -1 -2 -2 -2 -5 -8 -12 -12 -10 -10 -9 -9 -8 -7 -6 -6 -6 -6 -6 -7 -7 -7 -7 -7 -8

GFSCGP_850_dewp_054.txt.gz
Dewpoint
-3 -2 -1 -3 -4 -6 -6 -5 -4 -5 -8 -8 -8 -5 -3 -2 0 3 3 3 3 3 5 7 7 7 6 6 9 11 10 9 9 9 9 9 7 7 5 5 3 -0 3 3
-2 1 -3 -4 -5 -5 -9 -6 -9 -11 -12 -10 -9 -6 -6 -3 -3 1 3 4 4 5 7 8 9 9 8 9 10 9 10 10 9 9 9 9 8 5 3 3 1 3 2 2
3 4 1 -2 -8 -9 -5 -1 -0 -6 -10 -10 -6 -7 -3 -3 -2 -0 2 4 5 6 8 9 10 11 11 11 11 10 10 9 9 9 8 7 4 4 4 3 4 4 3 3
2 -1 0 -2 -6 -6 1 -2 -2 -4 -2 -5 -2 2 3 -1 1 1 3 3 4 6 8 9 11 11 11 10 10 10 9 9 8 6 5 5 4 3 3 4 5 4 4 3
0 -0 -1 -5 -6 -3 1 -3 -0 -7 -7 0 1 2 3 0 1 2 3 4 5 6 8 9 11 9 10 10 10 9 7 7 6 5 4 4 3 4 4 4 4 3 1 0
-4 -2 -1 -2 -5 -5 -1 0 -2 -4 -2 4 2 3 2 1 1 2 3 4 5 7 7 7 8 9 8 8 7 7 6 6 6 5 5 4 4 4 4 3 1 0 -1 -2
-2 -4 -5 -4 -4 -4 -3 -1 3 10 9 4 -6 1 2 3 3 3 3 4 6 6 6 5 5 6 7 6 6 6 5 5 5 5 6 5 5 4 2 0 0 -1 -2 -4
-1 1 -4 -5 -5 4 3 -4 7 7 9 4 2 -2 1 -1 -1 1 2 4 5 6 4 3 3 4 6 6 6 5 5 5 5 6 5 3 2 0 0 -0 -1 -1 -2 -2
2 0 1 -5 -7 0 -2 -1 -1 -1 -1 5 -1 -7 2 -1 -1 0 3 4 6 6 4 2 3 4 5 6 6 5 5 5 5 4 3 2 1 1 1 -0 -1 -2 -2 -2
3 7 2 -3 -4 -4 -3 -5 1 -1 4 4 -4 -5 2 1 -0 0 3 4 5 5 3 3 3 4 5 5 6 6 5 4 4 3 1 -0 2 -0 -1 -1 -3 -4 -4 -6
-0 6 1 -2 -2 -6 -1 -1 -3 -5 1 6 7 -1 0 -1 -1 0 1 3 5 4 3 3 3 4 5 5 5 6 5 4 2 0 -1 1 1 0 -3 -5 -5 -6 -7 -6
-4 -2 1 -0 -4 -5 -4 -2 -3 6 1 3 5 2 -5 -4 -1 -2 -2 2 3 3 3 3 4 5 5 6 6 6 4 1 -0 -1 1 1 -3 -5 -6 -6 -8 -7 -7 -6
-2 0 3 -1 -2 -2 -2 -5 -5 -2 2 3 10 3 -4 -5 -4 -4 -3 0 1 2 2 3 4 5 6 5 5 3 1 0 -0 0 -5 -6 -7 -7 -8 -8 -8 -7 -7 -6
1 -1 -1 3 -2 -1 0 -2 -4 -2 8 4 3 -2 -5 -3 -4 -5 -4 -4 0 1 2 4 4 5 4 4 3 1 1 0 -2 -6 -6 -8 -10 -10 -8 -7 -7 -6 -6 -5
0 0 -3 -5 -4 -3 -1 -2 -3 -3 -2 3 1 -4 -7 -8 -4 -5 -5 -3 -1 2 3 4 4 3 2 2 2 1 -1 -3 -5 -7 -8 -10 -10 -9 -8 -8 -8 -7 -5 -5
1 3 2 3 0 -1 0 -2 -3 -3 -3 -5 -4 -4 -8 -8 -8 -7 -7 -4 -3 1 3 3 3 2 2 2 1 -2 -2 -5 -7 -8 -10 -10 -11 -11 -11 -11 -10 -8 -7 -7
3 5 7 7 1 0 4 1 -2 -4 -5 -4 -2 -3 -6 -6 -5 -5 -5 -6 -2 -0 2 2 2 2 1 0 -1 -3 -5 -7 -8 -9 -11 -11 -12 -11 -10 -9 -8 -8 -7 -6
4 6 8 9 4 7 -3 -6 -7 -6 -7 -8 -8 -7 -8 -5 -4 -4 -4 -3 -1 -0 1 2 2 1 -0 -2 -4 -6 -7 -9 -9 -11 -11 -11 -10 -10 -9 -8 -7 -6 -6 -6
1 6 9 9 5 -1 -3 -7 -7 -6 -5 -6 -6 -6 -5 -1 -2 -3 -2 -1 -0 1 1 1 1 -0 -2 -4 -7 -7 -8 -8 -11 -10 -9 -11 -10 -9 -7 -7 -6 -6 -6 -6
-2 4 8 9 10 8 -1 -4 -6 -6 0 -6 -7 -4 -4 -2 3 2 -0 -0 -0 1 1 1 -0 -2 -4 -7 -7 -8 -7 -8 -9 -11 -11 -13 -10 -7 -7 -6 -6 -6 -7 -7
8 9 9 8 9 7 -2 -3 -4 1 4 -3 -3 -6 -4 -1 3 2 1 1 1 1 0 -0 -2 -6 -7 -7 -7 -6 -6 -10 -12 -11 -11 -12 -8 -7 -7 -7 -7 -7 -6 -6
8 10 8 10 9 9 -3 -4 0 2 -1 -1 -2 -1 2 4 3 2 2 2 1 -1 -4 -6 -7 -7 -6 -5 -5 -7 -9 -9 -11 -11 -12 -10 -7 -7 -8 -8 -6 -6 -6 -6
5 5 8 7 7 0 -5 -2 1 -1 -1 -1 1 1 1 1 3 2 2 -0 -4 -7 -7 -7 -5 -4 -4 -4 -6 -9 -13 -13 -10 -12 -8 -7 -7 -6 -8 -9 -10 -6 -6 -6
0 0 5 3 -3 -3 -4 -2 -0 1 1 2 2 2 2 2 2 2 -1 -5 -7 -6 -4 -3 -3 -3 -5 -6 -9 -10 -9 -8 -8 -8 -8 -7 -7 -7 -7 -7 -8 -7 -6 -6
1 1 0 -0 -2 -3 2 3 3 3 3 3 3 3 3 3 2 -2 -5 -5 -4 -3 -3 -2 -3 -4 -7 -9 -10 -11 -9 -8 -8 -8 -7 -7 -7 -6 -6 -6 -7 -7 -7 -7
-0 0 6 6 3 3 4 4 3 3 3 2 1 -1 -2 -2 -4 -5 -4 -4 -3 -2 -3 -5 -6 -7 -10 -9 -10 -10 -9 -9 -8 -8 -9 -9 -8 -7 -7 -6 -7 -7 -7 -8

GFSCGP_850_dewp_057.txt.gz
Dewpoint
-2 -1 0 -2 -3 -3 -3 -3 -2 -4 -6 -2 -2 1 2 2 3 4 4 2 1 2 2 2 3 5 7 9 10 10 10 10 10 9 8 8 8 8 8 7 4 1 -0 1
-1 1 -1 -2 -3 -3 -2 -2 -1 -4 -6 -6 -5 -4 -2 4 3 -2 2 4 2 5 5 5 5 6 8 8 10 11 10 10 9 9 8 7 7 6 5 4 3 1 2 1
2 1 0 1 2 2 -1 0 -2 -2 -3 -10 -8 -3 -1 -2 4 2 0 4 3 5 7 6 8 7 9 9 10 10 10 10 8 7 8 8 6 4 4 3 2 2 3 3
2 0 -0 1 2 -0 1 -1 -0 -1 0 -1 -2 5 1 0 -0 4 5 5 5 7 7 8 9 10 11 11 11 10 10 7 8 8 8 5 3 3 3 3 4 4 4 4
2 1 2 1 1 -1 1 -1 -0 0 0 1 1 4 2 -0 1 1 3 4 6 7 8 9 10 10 11 11 10 9 6 8 9 7 5 5 4 4 3 4 4 4 3 0
-0 -2 -1 1 -2 -2 -1 -1 1 4 3 4 1 3 3 1 1 3 2 3 5 7 8 10 10 10 8 9 9 8 8 9 6 5 5 4 4 4 4 4 3 2 -0 -1
-2 -1 -3 -1 1 -2 0 1 6 7 7 7 2 3 2 1 4 3 4 4 7 8 9 9 10 10 8 9 10 9 8 7 6 5 4 4 5 4 4 3 2 1 -0 -1
2 2 0 -2 -1 1 1 3 6 7 9 6 4 5 4 0 1 1 3 4 6 7 7 8 9 9 9 8 7 7 6 6 6 5 5 5 5 5 4 1 0 -0 -0 -0
2 3 1 0 -1 -2 4 7 3 4 4 3 3 2 2 0 2 4 3 5 6 7 6 6 7 7 7 7 7 6 5 5 5 5 5 5 5 3 0 1 1 3 -0 -3
4 5 4 3 0 -2 0 2 3 4 1 3 1 0 5 2 2 4 4 6 6 6 4 4 5 4 4 5 4 5 5 5 5 6 5 4 3 1 1 2 2 -1 -5 -4
3 4 4 3 3 2 -1 -1 -1 -1 4 4 6 2 2 2 2 3 4 5 6 6 4 3 3 4 5 5 5 6 5 5 5 5 4 3 0 2 -0 -2 -3 -5 -5 -6
2 5 7 5 2 -2 -3 -1 3 4 2 4 4 3 -4 -1 -0 -0 3 4 5 6 5 3 3 4 5 5 6 6 6 5 4 3 2 0 -0 -3 -4 -5 -6 -7 -7 -7
1 2 3 2 -0 -1 -1 -2 -3 -0 4 3 4 3 -4 -3 -1 -1 -1 3 5 5 4 3 3 4 5 5 6 6 5 4 2 1 -0 -3 -5 -5 -5 -8 -8 -8 -8 -7
1 2 2 3 0 -1 1 -1 -2 -1 4 3 3 2 -1 -3 -3 -3 -4 1 4 4 3 3 4 5 6 6 6 6 5 2 1 -0 -6 -6 -6 -5 -10 -9 -8 -8 -9 -7
1 2 -1 -2 -1 -1 -1 -0 -0 0 1 3 1 1 -1 -5 -3 -5 -4 -4 1 3 3 4 5 5 5 5 4 3 2 1 0 -5 -8 -7 -8 -10 -10 -10 -11 -11 -10 -9
1 4 1 3 2 1 0 -0 -1 -1 -2 -2 -2 -2 -5 -5 -7 -6 -5 -3 -1 3 4 4 4 4 3 3 3 2 1 -0 -4 -7 -8 -8 -9 -12 -16 -16 -15 -19 -14 -9
4 4 5 5 0 0 1 -0 -1 -1 -2 -3 -1 -2 -4 -4 -4 -5 -5 -5 -2 3 3 3 3 3 3 2 2 1 -2 -3 -6 -7 -9 -11 -12 -13 -11 -11 -18 -12 -8 -7
5 5 5 4 2 1 0 -3 -6 -4 -5 -6 -5 -3 -1 -2 -2 -3 -3 -2 -1 1 2 2 2 2 2 1 0 -2 -4 -6 -7 -9 -11 -7 -7 -6 -11 -11 -10 -8 -7 -6
4 5 5 3 4 2 -1 -5 -6 -5 -3 -5 -4 -1 -2 -3 -1 -0 -0 0 0 1 2 2 2 1 -0 -2 -4 -6 -8 -9 -11 -9 -6 -4 -7 -11 -12 -12 -8 -7 -7 -8
3 5 3 5 5 2 2 -4 -6 -6 -0 -1 -3 -3 -2 -3 3 3 -0 0 1 1 1 1 -1 -2 -3 -6 -7 -8 -8 -8 -7 -7 -2 -8 -9 -13 -9 -7 -7 -7 -7 -7
3 4 3 3 4 4 3 -3 -5 -1 1 -2 -1 2 0 4 3 2 1 1 1 1 -0 -1 -3 -5 -6 -7 -7 -7 -7 -7 -3 -6 -6 -8 -9 -12 -10 -9 -8 -7 -6 -6
4 5 4 5 7 5 1 -4 -1 2 -0 -0 1 3 3 3 2 2 1 -0 -1 -3 -4 -5 -6 -7 -6 -6 -6 -5 -3 -5 -8 -8 -9 -10 -12 -9 -7 -8 -11 -12 -11 -6
6 6 6 5 5 3 -0 1 -1 -1 1 1 1 1 2 3 2 2 -1 -3 -5 -5 -6 -6 -6 -6 -5 -5 -4 -1 -9 -9 -11 -10 -12 -12 -10 -9 -8 -8 -10 -10 -10 -10
2 1 4 3 1 -1 2 1 1 1 2 2 2 2 2 2 1 -2 -4 -6 -6 -6 -5 -5 -5 -4 -2 -2 -8 -8 -10 -11 -10 -10 -11 -10 -9 -8 -8 -10 -8 -7 -9 -11
3 1 2 2 3 4 4 3 3 2 3 3 2 3 3 1 -4 -5 -6 -6 -5 -5 -4 -3 -2 -4 -7 -7 -8 -10 -10 -10 -9 -9 -8 -8 -9 -10 -12 -9 -8 -8 -9 -9
1 2 2 3 4 4 4 3 3 2 1 1 1 -0 -2 -1 -4 -5 -5 -4 -3 -2 -5 -6 -5 -6 -10 -10 -10 -10 -10 -10 -9 -9 -8 -8 -8 -9 -8 -8 -9 -9 -10 -10

GFSCGP_850_dewp_060.txt.gz
Dewpoint
-2 -1 -1 -2 -2 -2 -1 -1 -0 -2 -2 2 1 -1 1 3 4 4 8 10 8 5 4 5 6 5 6 8 6 2 5 8 9 9 8 9 7 7 8 6 3 1 1 0
1 1 -1 -1 -0 1 1 2 1 -3 -4 1 -2 -1 2 4 4 3 4 4 6 7 7 7 6 7 8 9 9 8 8 9 9 10 7 7 8 8 8 6 4 3 2 1
2 1 -1 0 1 2 2 2 -1 -1 -3 -3 -4 -0 0 2 3 3 3 2 2 3 4 5 7 7 8 9 9 9 9 10 10 10 9 8 7 6 5 4 3 1 2 3
1 -0 -0 1 1 1 3 -0 -1 -2 -2 -4 -3 1 1 -0 5 4 2 4 2 2 3 7 7 8 8 9 10 10 10 11 10 9 8 5 2 2 3 2 3 3 4 4
1 1 1 0 0 -0 2 -1 -1 -1 1 1 1 0 -1 0 2 3 4 3 4 5 5 5 5 6 8 9 10 11 11 10 9 8 7 7 3 3 2 4 4 4 4 3
-2 -2 -1 -1 -0 -1 -2 -1 3 4 3 4 2 1 0 0 -0 1 3 4 5 6 7 7 7 8 9 10 11 11 8 8 9 9 7 6 4 3 4 4 4 4 2 2
-2 -1 -3 -1 -1 -1 -0 2 5 5 6 5 2 3 1 -0 -1 -1 2 4 5 6 8 8 9 9 10 9 10 7 8 9 9 6 7 6 5 4 4 4 5 4 2 -1
1 1 -1 -3 -1 -1 3 1 4 4 6 3 3 4 2 1 -0 1 2 3 5 7 8 9 10 10 9 8 9 8 9 10 6 5 6 5 5 4 4 3 1 -0 -0 0
2 3 3 0 0 -2 1 4 4 5 4 4 2 1 2 0 1 2 3 6 8 8 9 10 10 9 8 9 9 9 10 7 5 5 5 5 5 4 4 2 2 2 3 1
1 4 3 2 0 -1 -1 1 5 6 1 1 1 1 4 2 4 4 4 6 8 9 9 9 9 9 8 8 7 7 6 6 6 5 5 5 5 5 2 1 1 2 1 -3
2 1 1 2 2 0 0 0 1 2 3 3 4 2 -1 2 3 4 4 4 7 7 8 8 8 8 7 7 7 7 6 6 5 5 5 5 5 2 2 2 1 1 -6 -7
1 3 4 3 1 1 -1 0 1 4 0 3 3 1 -3 0 1 3 3 5 6 6 6 6 6 6 6 5 5 5 5 4 4 5 5 4 2 2 2 -4 -1 -4 -6 -8
2 3 4 4 1 -1 1 -2 -1 2 2 2 3 2 -3 -3 -0 1 3 4 5 6 5 5 5 5 4 4 5 5 5 5 5 4 3 2 3 -2 -5 -4 -4 -8 -8 -7
-0 2 1 5 2 -1 0 -0 -2 -1 3 2 3 1 -1 -3 -2 -1 -0 3 4 5 6 4 4 4 5 5 6 6 5 5 3 3 3 -2 -5 -6 -4 -6 -8 -9 -10 -12
0 1 0 -0 -1 -0 -0 -0 -1 0 0 2 0 2 -1 -3 -3 -4 -2 -2 3 6 6 5 4 5 6 6 6 5 4 4 3 1 -4 -6 -7 -7 -6 -7 -12 -13 -8 -7
1 1 0 1 1 -0 0 -1 -1 -1 -2 -1 -1 -1 -3 -5 -4 -4 -4 -3 2 5 5 4 5 6 6 6 6 6 5 2 -1 -2 -5 -8 -8 -7 -10 -10 -9 -4 -5 -13
3 4 3 4 0 0 3 -0 -1 -1 -2 -2 -1 -3 -4 -3 -4 -4 -5 -5 -0 3 4 5 5 6 6 6 6 4 2 0 -2 -5 -8 -9 -11 -10 -7 -3 -4 -9 -12 -11
4 5 3 4 1 3 2 -2 -2 -2 -3 -4 -1 -1 -2 -1 0 -1 -1 -2 1 4 5 5 5 5 5 4 2 1 -1 -3 -5 -7 -9 -10 -7 -3 -5 -10 -11 -13 -11 -10
4 4 5 3 4 2 0 -4 -7 -5 -3 -3 -0 -2 -0 0 -0 1 1 0 2 3 4 4 3 3 2 1 0 -2 -5 -7 -8 -9 -9 -5 -4 -6 -9 -10 -13 -11 -9 -8
3 3 4 5 2 2 0 -3 -6 -5 -1 -2 -2 -1 -2 -1 3 2 2 1 2 2 2 2 2 2 1 -2 -5 -6 -9 -10 -9 -7 -5 -2 -9 -9 -10 -12 -12 -10 -10 -9
3 3 3 2 1 1 -1 -2 -5 -3 -2 -0 1 -0 1 3 2 1 1 1 1 1 0 -0 -2 -3 -6 -8 -8 -8 -8 -7 -4 -3 -3 -8 -8 -10 -11 -12 -10 -10 -11 -12
3 4 4 3 1 3 -1 -3 -1 -1 1 2 2 2 2 2 0 -1 -0 -1 -1 -2 -4 -5 -5 -6 -7 -7 -7 -6 -5 -2 -1 -7 -10 -14 -15 -15 -13 -11 -10 -11 -12 -12
4 2 3 4 3 0 -0 -0 0 -0 1 2 2 3 2 1 -1 -1 -2 -3 -4 -4 -5 -5 -5 -6 -6 -6 -4 -0 -4 -9 -12 -15 -16 -15 -14 -13 -12 -11 -11 -11 -12 -11
3 4 5 4 2 3 2 1 0 -0 0 2 2 2 2 1 -2 -3 -4 -5 -5 -6 -6 -6 -5 -4 -3 -3 -7 -10 -12 -13 -13 -14 -13 -12 -11 -12 -11 -10 -10 -11 -11 -9
3 2 3 5 4 4 4 3 2 2 1 1 1 1 2 1 -3 -4 -5 -5 -5 -4 -4 -3 -3 -6 -9 -10 -11 -10 -10 -10 -10 -10 -10 -9 -9 -9 -8 -8 -8 -8 -9 -9
1 2 3 3 3 2 4 4 2 2 1 1 1 1 -1 -1 -4 -5 -4 -4 -3 -3 -5 -7 -8 -8 -10 -10 -9 -9 -9 -9 -9 -8 -8 -7 -7 -7 -7 -6 -5 -6 -6 -8

GFSCGP_850_dewp_063.txt.gz
Dewpoint
-2 -1 -1 -2 -2 -1 0 1 0 -1 -3 2 2 1 2 7 7 9 10 11 10 6 2 6 8 8 9 10 9 7 1 4 7 8 9 10 10 9 7 6 5 2 0 -0
-1 0 -2 -1 -0 1 1 2 2 0 -2 -0 1 1 -1 5 6 8 9 10 9 7 6 4 7 9 9 9 7 4 1 3 8 9 9 9 9 8 7 7 5 4 2 1
0 -0 -1 0 1 1 1 2 2 1 -3 -2 -2 0 1 5 5 6 8 8 8 5 5 3 6 9 9 8 7 2 1 5 7 9 10 9 9 7 8 7 6 4 3 1
0 -0 0 1 1 0 2 -0 1 0 -3 -0 -4 1 1 4 5 4 6 7 7 5 4 3 6 7 6 6 8 8 6 7 9 10 10 9 8 8 7 5 4 2 2 3
-1 1 1 1 -0 -1 1 -0 -0 -1 0 0 0 -1 -1 -0 5 5 3 5 5 6 5 5 4 4 5 6 7 9 9 9 10 10 10 9 7 4 3 3 3 3 4 4
-2 -2 -1 -1 -1 -1 -1 0 1 2 2 3 1 1 1 1 1 4 3 3 3 4 4 4 4 4 4 5 7 9 9 10 10 10 10 9 6 3 3 3 4 4 4 4
-2 -1 -3 -1 -0 -2 -1 1 3 4 5 3 2 3 2 -1 -2 -1 2 3 3 3 5 4 4 5 5 7 9 9 10 10 10 10 9 8 7 4 3 3 4 4 4 3
-0 1 -2 -3 -1 -1 2 0 3 3 4 2 2 4 2 -1 -0 -0 -2 2 3 5 6 7 7 8 8 9 8 9 9 9 8 9 9 7 6 5 4 4 4 5 3 3
1 1 2 1 -0 -2 2 3 2 4 3 5 2 -0 -2 0 2 3 6 3 5 6 6 6 8 7 9 8 8 8 8 8 9 9 7 6 7 6 5 5 3 3 2 3
-1 1 2 2 1 -1 -1 1 4 5 3 2 -0 0 0 -0 1 4 5 7 6 6 7 7 8 8 9 9 8 8 7 8 8 7 6 6 6 5 4 4 2 3 3 1
1 -1 -1 2 2 1 2 1 1 2 2 3 4 2 -1 1 1 3 3 5 6 7 8 7 8 9 9 8 7 8 8 8 8 6 5 5 5 4 3 2 2 3 3 -3
0 1 1 1 -0 -0 -1 -0 1 3 1 3 3 2 -4 -1 0 2 2 3 6 7 7 7 8 10 9 8 8 8 8 8 7 6 5 5 4 3 1 2 4 -2 -4 -6
2 2 3 1 -0 1 2 0 1 2 2 3 3 2 -4 -4 -2 -1 2 3 4 7 8 9 9 9 9 8 8 7 6 6 6 5 3 2 2 2 3 1 -3 -2 -6 -8
-1 2 1 3 1 -1 1 -0 -1 1 4 1 2 -0 -2 -2 -2 -2 -1 1 3 5 6 7 8 9 9 8 7 6 6 5 5 4 3 3 3 4 2 -4 -5 -7 -8 -14
-0 2 0 -0 -1 -1 -1 -0 -0 1 0 2 0 1 -1 -2 -3 -4 -5 -1 2 5 6 6 7 8 8 8 7 6 6 5 6 4 4 4 3 -1 -5 -6 -7 -12 -12 -8
1 1 -1 1 0 -0 1 -0 -1 -0 -1 1 -0 -0 -3 -4 -5 -4 -4 -2 -1 2 5 6 5 6 6 7 7 6 6 6 5 4 3 1 -5 -6 -8 -11 -9 -8 -4 -4
2 3 2 2 0 1 3 1 -0 -1 -2 -2 -0 -2 -4 -3 -3 -1 -3 -3 -1 2 4 5 5 5 5 6 6 6 6 4 4 2 -3 -7 -9 -10 -10 -6 -3 -3 -10 -16
3 3 2 3 1 3 -0 -1 -2 -1 -3 -4 -2 -1 -2 -0 1 1 1 -0 1 2 4 5 5 6 6 6 6 5 5 3 -2 -6 -8 -10 -8 -4 -3 -3 -6 -12 -18 -17
3 3 3 3 4 2 1 -2 -2 -4 -3 -2 -1 -0 1 1 -0 1 1 3 3 4 4 5 6 6 6 6 6 5 -0 -4 -7 -9 -9 -5 -5 -1 -1 -9 -11 -16 -18 -14
2 2 3 2 3 4 2 -2 -6 -5 -1 -3 -2 0 0 -1 -2 1 1 2 3 4 5 5 6 6 5 3 2 -1 -6 -8 -9 -8 -7 -5 -2 -0 -9 -13 -17 -18 -15 -13
4 3 4 2 2 3 -0 -2 -5 -3 -1 -2 -2 -1 -1 -0 -1 1 1 1 2 3 3 3 3 2 1 -2 -4 -6 -8 -9 -7 -4 -1 -0 -7 -10 -16 -18 -17 -15 -13 -13
4 4 3 1 -0 4 -1 -2 -3 -2 -1 -0 0 -1 0 0 0 1 -0 0 0 1 0 -0 -1 -3 -7 -8 -8 -7 -5 -3 -1 -1 -4 -10 -15 -16 -16 -15 -14 -14 -13 -13
2 2 4 3 3 1 -0 -3 -3 -2 -1 2 0 0 -1 0 -0 -0 -1 -2 -2 -3 -5 -5 -5 -7 -7 -7 -5 -2 -1 -2 -9 -14 -15 -14 -14 -13 -12 -11 -11 -10 -10 -10
3 2 3 2 2 2 2 0 -1 -0 -0 1 1 1 0 0 -1 -1 -3 -4 -5 -5 -6 -6 -6 -5 -4 -5 -5 -8 -11 -11 -12 -12 -11 -10 -9 -9 -9 -8 -8 -8 -8 -7
3 3 4 4 4 3 3 2 1 1 1 2 3 2 1 0 -2 -3 -4 -5 -5 -5 -5 -4 -4 -5 -5 -9 -11 -10 -11 -11 -12 -12 -11 -10 -9 -8 -8 -7 -7 -6 -6 -6
2 3 4 4 3 2 3 2 1 1 2 2 2 2 -0 -0 -2 -4 -5 -5 -4 -3 -4 -5 -5 -8 -10 -10 -10 -10 -11 -11 -11 -11 -11 -11 -12 -12 -13 -14 -16 -16 -16 -15

GFSCGP_850_dewp_066.txt.gz
Dewpoint
-2 -1 -0 -2 -2 -2 -1 0 1 -1 -3 -1 1 1 7 6 9 10 9 10 10 9 7 7 6 6 7 8 9 10 10 9 7 7 8 8 8 10 10 7 5 5 4 1
-1 -0 -3 -2 -1 -0 0 1 1 -0 -3 -1 1 1 -0 6 8 9 10 10 9 9 8 8 6 5 5 8 9 9 9 8 7 6 7 8 9 10 9 7 6 4 1 0
-0 -1 -2 -0 0 1 0 1 1 1 -2 -1 -0 -0 1 3 7 7 8 9 9 8 6 6 6 7 5 6 6 7 7 5 5 5 7 9 10 9 7 7 6 4 3 2
-0 -1 -0 1 1 0 2 -0 0 1 -2 -0 -4 0 -0 2 6 5 6 9 9 9 7 3 2 4 4 4 6 7 8 5 5 5 8 9 10 9 8 7 7 5 3 3
-2 1 1 1 0 -1 0 -1 0 -0 -0 -0 -0 -1 -2 3 6 5 5 6 8 8 7 5 3 3 4 5 7 7 7 5 5 6 9 10 10 9 8 8 6 4 3 3
-3 -2 -0 -0 -2 -2 -1 1 0 1 2 3 0 1 0 1 3 3 4 4 5 7 7 6 4 3 5 6 8 8 8 7 4 7 9 10 10 9 6 6 5 4 3 4
-2 -1 -2 -2 -1 -1 -1 -0 2 3 4 3 1 2 1 -2 -3 0 3 4 4 6 6 6 4 4 4 6 7 7 7 8 8 9 10 10 10 8 5 3 3 3 3 4
-0 -2 -1 -2 -2 -1 1 -0 3 2 3 2 1 4 0 -1 -0 -0 -1 0 3 4 5 5 5 4 4 5 6 6 6 7 9 10 10 10 10 8 6 4 3 3 4 4
0 -0 0 1 -0 -2 2 2 -0 3 3 5 2 -1 -5 -3 1 3 5 0 1 3 3 3 4 4 4 4 5 7 8 8 9 10 10 9 8 7 6 5 4 4 4 4
-2 -1 1 1 0 -0 -1 1 3 3 4 3 0 -0 -1 -3 -1 2 6 5 2 2 3 3 3 3 4 4 6 8 8 8 10 10 8 8 6 6 6 6 5 5 4 3
-2 -2 -2 1 2 1 2 1 1 2 2 3 4 0 -2 -1 -1 1 2 3 5 5 4 3 3 3 4 6 7 8 7 7 7 7 7 6 6 6 7 6 5 4 3 4
-1 -1 -1 0 -0 -1 -0 1 1 3 2 3 2 2 -4 -4 -2 0 1 1 3 5 6 6 5 5 6 8 7 8 7 7 7 8 9 7 7 6 5 3 2 3 4 2
0 -0 0 -1 -1 0 2 1 1 1 1 3 3 3 -4 -3 -3 -2 -1 -0 1 3 6 7 8 8 8 9 9 9 8 7 8 9 7 5 4 3 2 1 3 3 -1 -5
-2 1 -0 0 -1 -0 2 1 1 1 4 2 2 -0 -3 -4 -3 -3 -3 -2 -1 2 4 6 7 8 9 9 9 8 8 7 9 7 5 5 4 3 2 3 0 -3 -6 -7
-1 0 0 -1 -1 -2 -2 -2 -0 0 -0 1 0 0 -2 -3 -3 -4 -4 -5 -4 0 3 5 8 9 9 10 8 7 7 9 8 6 5 3 4 3 3 -3 -5 -7 -8 -12
-0 1 -1 1 0 0 1 0 -0 -0 -0 -0 -0 -0 -3 -3 -5 -5 -4 -4 -4 -1 3 5 6 8 9 9 8 8 8 7 5 4 4 4 3 1 -4 -7 -8 -9 -6 -3
1 2 1 2 1 1 2 1 0 -0 -1 -0 1 -1 -4 -4 -1 1 0 -1 -1 0 1 4 6 6 7 8 8 7 6 5 5 4 4 2 -2 -6 -9 -9 -7 -3 -2 -2
2 2 1 3 1 1 -1 -1 -2 -0 -1 -3 -3 -2 -3 -2 1 1 2 3 2 3 4 5 5 5 6 6 7 7 5 5 5 3 1 -4 -9 -7 -4 -3 -2 -2 -6 -12
2 2 3 4 3 0 -0 -0 -1 -1 -2 -4 -2 -0 1 1 1 1 1 3 3 4 4 5 5 6 6 6 5 5 4 4 1 -3 -7 -7 -4 -4 -3 -1 -3 -7 -10 -16
2 1 3 2 3 4 1 -0 -5 -6 -1 -3 -1 1 1 -1 -3 -2 1 3 4 4 5 5 6 6 5 5 4 3 2 -3 -8 -8 -6 -6 -3 -2 -2 -4 -9 -15 -17 -16
4 3 3 1 2 3 1 -3 -7 -1 -1 -3 -2 -0 -1 -3 -4 -2 0 1 3 4 5 5 5 5 4 3 1 -3 -8 -9 -7 -5 -3 -4 -1 -4 -9 -14 -16 -15 -15 -15
5 5 3 1 2 5 -2 -2 -3 -2 -3 -3 -2 -1 -1 -1 -1 -0 -0 0 1 2 2 1 1 -1 -5 -6 -5 -7 -7 -4 -3 -4 -3 -4 -11 -13 -12 -11 -11 -10 -10 -9
5 4 4 3 4 1 -2 -3 -4 -4 -4 -1 -3 -2 -2 -2 -1 -1 -1 -1 -1 -1 -2 -3 -4 -7 -7 -5 -4 -3 -4 -3 -3 -4 -12 -12 -13 -12 -11 -10 -10 -10 -9 -8
2 1 2 2 1 1 0 -1 -1 -3 -3 -2 -2 -2 -3 -3 -1 -1 -2 -3 -4 -5 -5 -6 -6 -6 -5 -6 -5 -3 -0 -6 -11 -12 -12 -12 -12 -12 -12 -11 -11 -11 -11 -13
3 3 3 2 3 3 3 1 -1 -1 -0 -0 -1 -2 -2 -1 -1 -1 -3 -5 -6 -6 -5 -5 -5 -5 -4 -2 -3 -9 -11 -12 -12 -13 -13 -15 -18 -21 -23 -25 -28 -32 -35 -30
3 3 4 3 0 0 0 -0 -0 1 1 0 -0 -0 -1 -1 -1 -3 -5 -5 -5 -4 -4 -5 -5 -1 -1 -8 -10 -11 -12 -15 -18 -21 -22 -23 -25 -30 -35 -37 -37 -36 -33 -26

GFSCGP_850_dewp_069.txt.gz
Dewpoint
-2 0 1 -1 -2 -3 -1 -0 1 -1 -2 -1 0 2 6 8 9 10 9 8 7 9 7 6 7 6 5 5 7 9 10 10 8 3 7 9 9 8 8 8 9 6 5 5
-1 1 -2 -3 -2 -0 0 1 0 -1 -2 -0 -0 0 2 6 8 9 9 9 8 7 9 7 6 6 6 6 7 8 9 9 9 6 6 7 7 8 8 9 6 5 5 3
1 -1 -1 0 1 1 1 1 1 0 -1 -1 -0 -0 1 3 6 8 9 9 9 8 6 7 7 6 6 7 7 8 9 9 9 8 7 7 8 9 9 7 6 6 4 1
-0 -2 -0 1 1 1 2 -0 -0 1 0 -0 -3 0 -2 1 5 6 8 9 9 9 8 6 6 7 7 6 5 8 9 9 8 8 7 7 8 8 9 8 7 6 4 2
-1 1 1 1 1 -0 1 -0 1 1 0 -0 0 -1 -2 1 3 4 5 7 8 7 7 7 5 5 6 6 6 7 8 9 9 8 7 7 9 10 9 8 7 6 4 3
-2 -2 -0 0 -1 -1 -0 1 0 1 2 4 1 0 -0 -1 1 2 2 5 7 6 6 6 5 3 3 3 6 7 7 8 9 8 7 6 9 10 9 8 7 6 4 4
-1 -1 -2 -2 -0 -1 -0 1 3 4 4 4 2 2 1 -0 -2 -2 -0 3 3 4 5 6 7 5 3 2 4 6 7 7 8 8 7 6 7 9 9 9 7 7 5 4
0 -0 -1 -2 -1 -0 1 1 5 2 3 1 1 3 -1 -1 -2 -1 0 1 0 3 4 5 5 6 4 3 3 4 6 7 6 7 8 6 9 10 9 7 4 3 3 3
1 -1 -1 -0 -0 -1 2 3 0 4 3 5 2 -0 -4 -3 -1 1 2 4 1 1 3 4 5 6 5 4 3 4 5 6 6 7 8 9 10 10 9 7 5 4 4 4
-1 -0 1 1 0 1 1 1 4 4 4 4 0 -0 -1 -2 -2 0 2 4 3 1 2 3 4 6 5 5 4 4 5 5 6 7 8 10 10 10 7 7 7 5 4 4
-1 -0 -1 1 2 2 3 3 2 2 2 4 4 1 -1 -2 -2 0 1 1 1 2 1 2 3 4 5 5 5 5 5 7 8 8 9 9 9 7 8 8 8 5 5 3
-0 1 2 1 -1 -1 -0 1 2 6 3 3 3 2 -3 -2 -2 -2 0 0 -0 -1 1 2 3 4 4 4 5 5 6 7 6 7 9 8 8 8 8 8 7 5 3 4
1 1 1 -1 -1 1 2 1 1 2 3 4 7 3 -3 -3 -3 -3 -2 -1 -0 1 1 3 5 5 5 5 6 6 7 7 5 6 6 7 9 9 7 6 5 3 4 4
-2 1 1 0 -1 0 3 2 1 2 5 4 3 2 -1 -2 -3 -3 -3 -4 -4 -2 1 2 4 6 6 7 7 6 7 7 7 6 7 9 8 5 4 4 3 3 1 -3
1 2 1 -1 -3 -1 1 1 2 2 2 4 2 0 -1 -2 -2 -3 -4 -4 -5 -5 -3 2 5 6 7 8 8 7 6 6 7 9 8 6 3 2 4 3 0 -2 -2 -7
1 2 1 1 1 -0 1 -1 0 1 -0 -0 -0 0 -2 -3 -3 -4 -4 -3 -4 -4 -4 1 5 7 9 9 9 8 9 9 8 7 5 3 2 5 3 -3 -1 -4 -7 -3
2 3 3 3 1 1 4 2 1 0 0 0 2 -0 -2 -3 -3 -1 0 0 0 0 1 3 5 6 8 9 9 9 8 8 7 6 3 3 4 -1 -4 -3 -4 -4 -3 -1
3 3 3 5 2 6 1 -1 -1 1 0 -1 -1 -2 -3 -3 1 1 2 3 4 4 4 4 5 6 7 8 8 8 7 6 4 3 4 2 -4 -6 -4 -3 -2 -2 -3 -5
2 3 4 6 4 2 -1 -0 1 1 -3 -2 -1 -3 -1 1 1 1 2 3 4 4 5 5 5 5 6 6 7 6 5 4 3 3 -0 -5 -5 -3 -3 -1 -2 -3 -7 -11
1 2 5 3 5 5 2 -2 -3 -4 1 -3 -3 -0 2 2 3 -1 1 3 4 5 5 5 5 5 5 5 5 5 4 3 1 -4 -5 -5 -4 -2 -2 -2 -7 -12 -16 -16
5 4 5 4 6 4 0 -3 -6 4 1 -5 -3 0 2 -1 -2 -2 1 3 4 4 5 5 5 5 4 4 4 3 -1 -4 -5 -5 -5 -3 -3 -2 -7 -12 -15 -16 -15 -14
6 6 6 4 6 5 -1 -4 0 0 -5 -5 -3 -1 0 -3 -3 -0 0 2 3 4 4 4 4 3 1 0 0 -4 -6 -4 -3 -4 -4 -2 -4 -10 -14 -15 -14 -13 -12 -11
6 4 6 4 5 2 -2 -2 -5 -5 -5 -4 -4 -1 -1 -3 -2 -1 -0 0 1 1 1 0 -1 -5 -7 -6 -6 -6 -4 -3 -3 -1 -2 -12 -13 -14 -13 -13 -13 -15 -20 -27
3 2 4 3 2 2 0 -2 -3 -4 -4 -4 -3 -2 -1 -3 -2 -1 -1 -1 -1 -2 -3 -4 -5 -5 -4 -4 -4 -4 -2 -1 -6 -13 -13 -14 -14 -15 -19 -24 -28 -34 -35 -32
3 3 3 4 2 3 1 1 -1 -1 -3 -2 -2 -2 -2 -3 -2 -1 -2 -3 -4 -4 -5 -5 -5 -6 -6 -4 -2 -2 -7 -11 -12 -14 -16 -20 -23 -25 -30 -35 -35 -34 -29 -25
3 3 4 5 1 0 -1 -1 -0 -1 -2 -1 -2 -1 -2 -3 -2 -2 -4 -5 -5 -5 -5 -5 -5 -4 -2 -2 -8 -11 -12 -14 -19 -21 -23 -26 -31 -34 -35 -35 -34 -32 -29 -25

GFSCGP_850_dewp_072.txt.gz
Dewpoint
-1 -1 0 -4 -4 -4 -3 -2 -2 -3 -3 -2 -2 -2 -0 6 6 5 6 6 8 7 8 8 9 8 8 8 8 10 10 9 8 5 5 5 5 8 7 7 7 8 8 6
-1 0 -3 -3 -3 -2 -3 -1 -1 -3 -2 -1 -2 -2 -3 4 6 6 6 5 5 9 7 7 8 9 9 9 10 10 11 10 10 9 7 9 8 8 8 8 8 8 7 6
-2 -2 -3 -2 -1 -1 -2 -1 -1 -2 -1 -1 -1 -2 -1 0 4 6 6 6 6 5 8 7 8 8 9 8 9 10 10 11 10 11 8 10 10 8 8 8 9 7 6 6
-3 -4 -2 -1 -2 -1 0 -2 -2 -1 0 -1 -2 -2 -4 -2 2 4 6 7 6 7 6 7 7 8 9 9 9 9 9 11 11 10 10 7 9 9 9 9 8 6 6 4
-2 -2 -1 -1 -1 -1 -1 -1 -1 -0 0 -0 -1 -3 -4 -2 -2 -1 2 5 7 7 7 6 7 7 8 9 10 10 10 11 11 10 10 9 10 10 9 9 8 6 5 4
-4 -2 -1 -2 -2 -1 -1 0 1 1 1 2 -1 -1 -5 -5 -4 -3 -2 0 5 7 7 8 7 7 8 9 11 10 10 10 9 9 9 8 9 7 9 9 9 7 5 5
-2 -2 -3 -2 -1 -1 -0 1 3 4 3 2 1 0 -3 -5 -4 -2 -3 -2 0 4 6 7 7 8 7 9 9 9 9 10 10 9 9 9 7 6 8 9 9 7 6 6
-1 -0 -2 -3 -3 -2 -1 0 2 2 2 0 0 -1 -4 -3 -3 -3 -0 1 1 2 3 7 7 8 8 8 4 3 4 7 7 7 8 8 8 7 5 8 9 7 7 6
-1 -3 -4 -3 -2 -2 2 2 -1 2 4 3 -2 -3 -6 -6 -5 -2 -1 2 3 2 2 4 6 8 9 9 4 2 2 5 6 6 8 8 8 8 8 9 9 8 7 6
-3 -2 -3 -0 -1 -0 -0 -1 2 2 3 2 -2 -2 -3 -5 -5 -2 -4 -4 3 3 3 4 5 7 8 9 10 5 5 3 5 6 8 7 8 8 8 10 9 7 6 5
-4 -2 2 1 1 -1 2 1 1 0 1 2 2 -1 -5 -6 -5 -4 -4 -1 -0 4 4 4 4 6 8 9 10 9 7 8 9 7 7 8 9 9 10 9 9 8 6 5
-4 -2 -1 -1 -2 -2 -2 -1 0 2 1 2 3 0 -5 -5 -4 -3 -3 -2 0 2 5 5 6 7 8 9 10 9 9 9 9 9 9 9 10 9 10 9 8 8 6 5
-2 -1 1 -1 -1 -0 0 -1 -0 0 2 1 5 1 -3 -3 -3 -3 -3 -3 -1 1 3 6 7 8 8 9 9 9 10 9 6 8 9 8 8 8 9 8 8 6 5 4
-2 -2 -1 0 -3 -5 -1 -3 -2 -1 3 -1 -1 -2 -4 -4 -3 -4 -4 -3 -1 -1 1 4 7 9 9 10 10 10 10 8 7 9 7 8 8 6 7 8 4 5 3 4
-2 -1 -2 -4 -6 -6 -5 -5 -3 -1 -2 -1 -1 -3 -5 -4 -4 -4 -4 -2 -3 -3 -2 2 5 8 10 10 11 10 8 7 9 9 9 8 8 8 6 4 4 3 3 -0
-1 -1 -1 -0 -3 -3 -3 -3 -4 -2 -2 -2 -1 -3 -5 -5 -4 -3 -3 -3 -2 -2 -1 0 5 8 9 10 9 9 9 9 8 8 8 8 7 5 4 5 4 1 0 1
2 0 1 1 0 0 4 1 -2 -2 -1 -1 -1 -4 -5 -4 -3 -3 -2 -0 1 3 4 4 6 8 9 9 8 8 8 8 8 8 7 5 3 4 4 1 -1 -2 -2 -3
3 3 3 3 5 9 -1 -2 -3 -2 -2 -2 -2 -3 -4 -5 -2 -0 0 2 5 5 6 6 7 8 8 8 7 7 6 5 7 5 4 2 3 3 -3 -4 -3 -3 -1 -2
2 3 5 10 4 -1 -1 -2 -1 -0 -1 -4 -3 -4 -6 -3 -1 0 1 2 4 5 5 6 6 7 7 6 6 6 6 6 5 3 3 3 -3 -4 -3 -3 0 -2 -3 -4
2 3 5 5 10 10 -0 -3 -3 -3 2 -4 -5 -3 -3 -0 2 -2 1 2 4 3 4 4 5 5 5 5 4 5 5 4 3 3 -2 -4 -3 -4 -1 -2 -3 -5 -9 -11
6 5 8 6 10 3 -0 -2 -3 2 2 -3 -4 -4 -1 1 -0 1 1 2 2 2 3 3 3 3 3 2 1 -0 1 2 -1 -3 -4 -4 -3 -3 -3 -6 -12 -14 -8 -9
6 7 9 6 11 9 -1 -3 0 -1 0 -2 -2 -1 0 1 -2 1 1 1 1 1 2 1 1 1 -0 -1 0 -1 -2 -3 -4 -4 -4 -4 -2 -3 -11 -14 -13 -12 -11 -15
6 4 5 4 3 2 -2 -2 -2 -0 -2 -1 -1 0 2 0 -1 -0 -0 0 0 -0 -0 -1 -1 -1 -2 -2 -2 -3 -4 -4 -4 -5 -3 -3 -11 -14 -14 -14 -16 -21 -25 -27
2 3 5 4 0 1 1 -1 0 -1 -1 -0 0 1 1 -0 -1 -1 -1 -1 -1 -1 -2 -2 -2 -3 -4 -4 -4 -4 -4 -4 -2 -5 -12 -13 -14 -15 -20 -24 -27 -31 -31 -28
1 2 2 2 1 2 2 2 1 0 -2 -2 -2 1 0 -1 -1 -2 -2 -2 -2 -3 -3 -3 -3 -4 -4 -5 -5 -4 -2 -4 -11 -13 -15 -17 -22 -24 -28 -32 -34 -32 -27 -32
2 2 5 5 1 2 -1 1 0 -0 -1 -1 -2 -1 -0 -1 -2 -3 -3 -2 -3 -4 -4 -4 -4 -4 -4 -4 -3 -4 -10 -12 -14 -19 -22 -24 -28 -31 -34 -30 -19 -29 -29 -31

GFSCGP_850_dewp_075.txt.gz
Dewpoint
-2 -1 -1 -3 -4 -5 -4 -4 -4 -5 -4 -4 -4 -4 -4 2 3 4 3 6 6 5 8 9 8 8 7 8 8 8 9 7 8 8 9 8 8 8 7 9 9 8 9 8
-2 -1 -4 -4 -6 -5 -4 -3 -3 -4 -5 -3 -3 -3 -4 -0 2 4 4 3 5 5 7 8 9 9 7 7 7 8 9 10 10 9 8 7 8 9 9 9 7 7 8 8
-2 -3 -5 -3 -4 -3 -2 -2 -1 -1 -3 -3 -3 -3 -4 -3 1 3 4 3 5 5 6 6 8 8 8 7 8 8 10 11 11 8 7 7 8 10 10 9 10 7 8 9
-3 -6 -3 -3 -3 -3 -1 -3 -2 -2 -1 3 -3 0 0 -4 -1 2 3 4 3 5 5 6 7 8 8 8 9 9 10 10 10 10 8 8 9 10 10 10 10 7 8 8
-3 -5 -3 -2 -3 -4 -1 -2 -2 -1 -1 -2 -3 -5 -4 -7 -5 -2 1 3 4 4 5 5 6 6 8 8 8 9 9 9 9 11 9 9 9 8 9 10 9 8 8 7
-5 -6 -5 -4 -4 -3 -3 -1 -1 -1 0 3 -2 -3 -3 -6 -8 -5 -5 0 3 4 4 4 5 5 6 7 9 9 9 9 9 10 11 10 10 9 10 9 7 8 7 7
-4 -4 -4 -4 -1 -2 -2 0 4 4 3 3 -0 -2 -5 -3 -7 -6 -6 -4 -1 2 4 4 3 5 6 7 8 9 10 9 10 11 12 11 11 10 9 7 6 8 9 7
-2 -1 -3 -4 -2 -1 -1 -0 3 6 4 2 0 -2 -5 -7 -7 -7 -6 -5 -3 -1 2 5 5 5 5 6 8 10 10 10 10 11 11 12 11 10 10 8 8 7 9 7
-2 -3 -6 -5 -4 -3 -1 0 -2 2 1 2 -1 -4 -6 -7 -8 -8 -6 -3 -2 0 -0 2 4 6 6 6 7 9 10 10 10 10 11 11 11 10 10 9 9 8 9 7
-5 -2 -6 -4 -5 -4 -1 -1 2 0 3 6 -1 -2 -4 -6 -7 -5 -6 -6 -1 1 1 1 2 5 6 8 8 10 10 9 10 10 11 11 10 10 10 10 9 9 9 7
-5 -3 -3 -3 -1 -2 -1 0 -0 -1 2 4 3 -2 -3 -6 -7 -6 -6 -6 -5 -1 1 2 3 4 6 8 9 10 10 9 9 10 11 11 11 11 10 10 9 9 8 7
-4 -3 -1 -2 -4 -5 -4 -2 -2 2 1 0 1 1 -5 -6 -6 -6 -6 -6 -5 -3 -0 2 3 4 5 7 8 10 10 9 8 10 11 11 11 10 10 10 9 8 7 7
-4 -2 0 -1 -3 -2 -1 -2 -2 -1 -1 1 8 3 -7 -6 -5 -5 -5 -6 -6 -3 -2 1 3 5 6 7 8 9 10 10 9 10 11 10 10 10 10 9 9 8 7 5
-2 -3 -1 1 -2 -3 -1 -4 -4 -2 5 2 0 -3 -6 -7 -5 -5 -5 -6 -6 -6 -3 0 3 5 7 7 9 9 10 10 10 10 10 9 10 10 9 9 8 7 6 3
-2 -1 -3 -4 -5 -6 -6 -5 -5 -3 -2 1 -2 -4 -7 -8 -7 -7 -6 -5 -4 -5 -5 -2 1 5 7 9 9 9 11 11 10 9 9 9 9 9 8 7 6 5 3 3
-2 1 -2 -2 -4 -5 -5 -7 -6 -6 -6 -5 -6 -5 -7 -7 -8 -7 -6 -5 -4 -3 -3 -3 -0 3 8 10 10 10 10 9 8 8 8 8 8 7 7 4 3 3 4 3
0 2 0 2 -3 -3 2 -3 -5 -5 -6 -5 -2 -4 -6 -6 -7 -6 -7 -6 -2 -1 2 2 2 5 9 10 10 9 8 7 7 7 7 7 7 6 5 5 4 3 0 0
3 2 3 6 7 7 -1 -4 -5 -4 -6 -5 -5 -5 -6 -6 -7 -6 -2 -1 0 3 4 5 6 8 9 9 8 8 7 6 6 7 7 6 5 4 4 2 -1 -1 -2 0
-2 4 5 9 6 1 -3 -2 -2 -3 -3 -6 -5 -5 -6 -6 -3 -3 -1 0 3 5 6 6 7 8 8 8 7 6 6 6 6 5 4 3 3 3 -0 -3 -1 0 1 -1
-3 3 7 7 7 7 0 -3 -4 -5 2 -5 -5 -5 -5 -6 -0 -5 1 2 4 4 5 6 7 7 7 7 6 5 4 4 2 1 -0 1 1 -1 -1 -1 0 -2 -3 -5
7 6 9 8 9 2 -4 -4 -4 3 2 -5 -5 -5 -5 -4 -2 2 2 3 3 3 4 5 5 5 5 4 4 3 2 1 -0 -1 -2 -1 -1 -2 -2 -2 -4 -5 -6 -6
7 7 9 8 11 9 -1 -1 0 -0 -3 -2 -2 -4 -3 -1 2 2 2 2 2 2 3 3 4 4 3 3 2 1 0 -1 -1 -1 -2 -3 -3 -4 -4 -5 -6 -6 -6 -5
4 4 5 4 4 1 -1 -2 -2 -3 -1 -1 -1 -2 -1 2 2 1 1 1 2 2 2 2 2 1 1 0 -0 -0 -1 -1 -2 -3 -3 -4 -4 -5 -8 -8 -8 -10 -11 -10
-5 -5 2 2 -1 0 -0 1 -0 -0 -0 -1 0 -0 1 2 1 1 1 1 1 1 1 0 0 0 -0 -1 -1 -2 -2 -3 -3 -4 -4 -5 -8 -10 -13 -14 -15 -12 -12 -12
-3 -3 1 -0 -2 -2 1 1 2 1 1 -0 0 -0 1 1 0 -0 0 0 0 -0 -0 -1 -1 -1 -2 -3 -3 -3 -3 -4 -5 -6 -8 -10 -14 -15 -19 -17 -19 -20 -27 -31
-4 -2 3 4 -1 0 -1 0 1 2 2 2 2 1 1 0 -0 -1 -1 -1 -1 -1 -1 -1 -2 -3 -3 -4 -5 -5 -6 -7 -9 -11 -12 -15 -18 -21 -18 -14 -18 -24 -24 -28

GFSCGP_850_dewp_078.txt.gz
Dewpoint
-3 -1 -1 -2 -3 -3 -4 -3 -4 -4 -4 -3 -2 -7 -4 0 1 3 4 3 6 8 9 9 8 8 8 8 5 3 3 4 5 6 6 7 8 4 -0 1 6 7 9 9
-2 0 -3 -4 -4 -4 -5 -4 -3 -4 -6 -3 -4 -5 -4 -0 1 3 5 4 5 8 8 9 9 9 8 6 5 6 7 7 7 8 8 6 7 4 4 7 7 8 9 9
-0 -3 -3 -4 -3 -3 -4 -3 -2 -1 -4 -3 -2 -3 -4 -2 -1 4 3 6 5 6 8 8 8 9 8 6 7 8 9 8 8 8 8 8 8 8 6 7 8 8 6 7
-4 -5 -4 -3 -2 -4 -1 -4 -3 -3 -2 0 2 3 -2 -2 0 1 4 3 5 5 7 8 8 7 7 8 8 7 8 9 9 9 8 7 7 9 7 7 8 7 6 8
-3 -4 -4 -3 -3 -4 -2 -3 -1 -2 -1 -1 1 2 -4 -3 -1 -0 2 4 4 5 6 7 8 9 8 7 7 7 8 9 9 8 9 6 8 8 7 8 9 9 8 7
-5 -7 -6 -5 -5 -4 -4 -2 -1 -1 0 3 -0 -0 1 1 -2 -4 -0 2 3 4 5 6 7 7 8 8 8 7 9 10 9 9 8 8 9 9 9 9 9 8 8 8
-5 -6 -7 -7 -4 -4 -3 -0 4 7 7 5 0 1 0 -0 -3 -6 -5 -1 3 4 5 5 6 7 8 8 8 9 9 9 10 10 9 8 9 9 9 9 8 8 7 8
-2 -1 -5 -6 -3 -1 -1 -0 5 8 11 8 5 2 -5 -5 -6 -6 -7 -7 -1 2 4 5 5 6 6 7 8 8 9 9 9 9 10 9 9 10 9 10 7 7 5 7
-2 -2 -7 -6 -4 -3 -0 1 -1 3 2 8 5 3 -1 -6 -8 -8 -8 -7 -5 -4 1 4 4 6 6 6 7 8 9 10 9 9 10 10 9 10 11 8 8 9 6 7
-3 0 -5 -6 -5 -4 -2 -2 3 1 6 6 -0 -1 5 0 -4 -6 -6 -5 -3 1 0 0 4 5 5 6 6 8 9 9 10 10 10 10 10 11 11 10 10 9 9 9
-3 -0 -2 -5 -3 -3 -2 -1 2 1 1 6 7 2 3 -0 -3 -5 -6 -5 -5 -4 1 1 1 2 6 6 7 7 8 9 10 10 10 11 11 10 11 10 10 10 10 9
-3 -1 1 -2 -4 -5 -4 -1 0 4 2 4 7 5 -3 -4 -4 -5 -6 -6 -6 -4 -3 -0 2 2 4 7 7 7 8 10 10 10 10 11 10 10 10 10 10 10 9 9
-2 -0 3 0 -2 -3 -2 -3 -2 -1 0 3 7 3 -2 -5 -6 -5 -5 -6 -6 -6 -4 -1 1 2 3 4 8 9 9 10 10 9 10 11 10 8 10 10 9 9 9 8
1 -0 1 3 1 -2 -1 -3 -4 0 5 4 4 1 -3 -5 -4 -5 -5 -3 -2 -7 -5 -4 1 2 4 5 6 8 9 10 10 9 9 10 8 10 10 9 9 9 8 8
1 3 0 -2 -4 -4 -3 -2 -3 -2 -3 0 0 -2 -3 -5 -7 -6 -5 -3 -4 -5 -6 -6 -4 2 4 6 7 9 9 10 10 9 9 10 10 10 9 9 9 8 8 6
0 2 1 2 -3 -3 -3 -4 -4 -4 -5 -6 -4 -3 -7 -8 -9 -5 -6 -7 -7 -5 -4 -3 -3 -2 6 8 9 9 10 10 10 10 10 10 9 9 8 8 8 7 6 3
5 3 3 5 -0 -2 1 -2 -4 -6 -6 -5 -3 -4 -6 -5 -6 -6 -7 -5 -6 -6 -2 0 1 0 8 9 10 9 10 10 10 10 9 8 8 8 8 7 6 4 4 4
4 4 4 6 6 6 -1 -4 -4 -3 -4 -5 -5 -6 -6 -6 -7 -7 -5 -3 -4 0 2 3 3 7 9 10 10 10 10 10 9 8 7 8 7 7 6 4 4 4 3 1
4 4 8 8 6 2 -1 -2 -2 -1 -1 -4 -4 -5 -6 -7 -4 -5 -4 -2 -2 2 4 5 7 8 9 9 9 9 9 8 8 7 7 7 6 5 5 4 3 -0 -1 1
3 4 5 9 8 8 3 -2 -3 -2 2 -3 -4 -3 -3 -4 2 -1 -3 0 4 5 6 7 8 8 8 8 8 8 8 7 6 6 6 5 4 4 3 0 -1 0 1 -1
6 6 7 7 9 5 -1 -3 -3 3 3 -2 -3 -4 -4 -2 1 -0 -0 2 4 4 6 7 7 8 7 7 6 6 6 6 4 2 1 2 2 -0 -0 0 0 -1 -3 -6
7 8 8 8 10 8 -1 -0 1 1 -1 -2 -2 -3 -3 -1 0 1 2 3 3 4 5 6 6 6 6 6 5 4 3 2 1 0 -0 -1 -0 -1 -1 -2 -3 -5 -6 -6
6 4 7 5 6 4 0 -1 -2 -3 -0 -1 -0 -1 -2 -0 2 2 2 2 2 3 4 4 4 4 4 4 3 2 0 -1 -1 -1 -1 -2 -2 -4 -3 -5 -5 -6 -7 -8
-5 1 5 5 1 2 3 3 1 0 0 -0 0 1 -1 2 2 2 2 2 2 2 3 3 3 2 2 1 1 -0 -0 -1 -1 -2 -3 -3 -5 -7 -9 -8 -9 -12 -12 -11
-1 -3 -0 1 -0 -1 -2 0 1 1 1 1 0 1 0 2 2 1 1 1 1 2 2 2 1 1 0 -0 -1 -1 -2 -2 -3 -3 -5 -6 -8 -10 -13 -13 -15 -17 -17 -18
-3 -3 1 5 -0 1 0 -1 0 1 -1 -1 1 1 1 1 1 1 1 1 1 1 0 0 0 -1 -2 -2 -3 -3 -3 -3 -5 -7 -9 -9 -12 -14 -15 -18 -18 -19 -20 -20

GFSCGP_850_dewp_081.txt.gz
Dewpoint
-1 -0 1 -0 -1 -1 -1 -1 2 2 -0 1 -0 1 6 5 6 8 9 10 9 9 9 9 9 8 7 8 8 7 7 6 5 4 4 4 3 3 3 2 3 2 4 7
0 1 -1 -2 -2 -2 -2 -2 -2 -3 -3 -2 -2 -3 -0 4 5 5 5 6 8 9 9 8 8 8 8 6 6 6 5 5 6 5 4 4 3 4 4 3 3 4 7 7
1 0 -2 -1 -1 -1 -2 -2 -2 -2 -2 -3 -1 0 -2 -0 4 4 4 6 7 6 8 8 9 9 8 6 4 2 2 2 2 1 3 4 5 5 4 1 2 3 7 7
-2 -2 -1 -1 -0 -2 -1 -3 -3 0 -1 1 -0 3 -0 1 4 5 3 6 8 8 7 8 8 7 5 3 3 3 5 5 5 6 6 6 7 8 6 6 4 6 7 7
-3 -3 -1 -1 -2 -3 -1 -2 -0 0 1 1 1 4 1 -1 3 5 5 4 7 8 6 8 8 6 4 5 5 7 8 8 8 7 7 8 8 7 7 7 5 6 7 7
-4 -5 -5 -4 -4 -3 -3 -2 -0 0 1 4 2 3 3 0 2 1 4 6 5 7 7 6 5 8 8 5 5 6 8 8 9 8 8 9 8 7 7 7 6 6 8 7
-2 -3 -5 -6 -3 -3 -2 -1 5 7 8 7 6 6 2 -0 -2 -1 5 4 6 6 7 7 7 6 7 8 7 6 6 8 8 9 8 9 8 7 7 8 8 7 6 7
0 1 -4 -6 -4 -2 -2 -0 6 8 9 10 8 8 2 -1 -3 -5 -3 3 4 6 6 7 7 6 7 8 7 7 6 7 8 9 9 8 8 7 7 8 9 8 8 7
-1 -1 -5 -6 -4 -2 0 2 0 7 8 9 8 4 0 -2 -4 -6 -7 -7 3 5 6 6 6 6 7 7 7 6 7 7 8 10 10 10 9 8 8 9 9 8 7 7
-1 1 -3 -5 -5 -3 -2 -1 4 4 9 10 5 5 4 -0 -1 -4 -5 -1 -0 2 5 5 6 5 6 6 6 6 6 6 5 7 9 9 9 10 9 9 9 8 7 9
-3 -0 -0 -2 -2 -1 -0 0 2 2 4 6 6 4 2 0 -2 -3 -4 -5 -4 -3 -2 2 5 5 5 5 6 6 7 7 8 8 8 9 10 10 10 10 8 8 8 9
-2 1 2 -0 -3 -4 -3 -1 1 7 5 6 6 5 -0 -2 -3 -3 -4 -5 -5 -5 -0 -1 -2 3 6 6 6 7 6 7 8 9 9 9 10 10 9 10 10 10 9 9
-2 2 4 2 -1 -2 -2 -2 -1 1 3 5 7 6 -1 -1 -3 -5 -5 -6 -6 -5 -4 -1 -1 -2 5 6 6 6 7 8 9 9 10 9 10 10 9 10 9 10 10 10
-1 1 1 3 1 0 0 -2 -2 0 4 4 5 3 0 -1 -3 -5 -5 -3 -4 -3 -4 -3 0 0 -1 5 7 7 7 8 8 9 10 10 10 11 9 8 8 10 10 10
1 4 1 1 -2 -1 -0 -1 -2 -1 1 3 3 2 0 -3 -4 -5 -4 -5 -3 -3 -4 -4 1 1 2 3 7 8 8 9 10 10 9 10 10 9 9 7 8 10 9 8
3 3 3 2 1 -1 -1 -1 -2 -2 -2 -3 -2 -1 -4 -5 -6 -5 -6 -3 -3 -3 -4 -5 -3 2 3 5 5 7 8 9 9 8 9 8 9 9 10 10 9 9 9 8
4 5 5 5 2 2 3 -0 -2 -1 -2 -2 -1 -3 -5 -5 -6 -6 -6 -6 -5 -6 -3 -3 -3 -2 5 6 6 8 9 9 9 9 9 10 10 10 9 9 9 8 8 7
5 6 6 7 4 7 1 -3 -3 -2 -2 -4 -4 -5 -5 -6 -7 -5 -5 -4 -2 -2 -1 1 1 2 7 8 8 8 9 9 10 10 10 9 9 8 8 8 7 7 6 4
4 5 6 8 6 5 3 -2 -2 -2 -1 -4 -4 -4 -5 -6 -5 -1 -3 -4 -2 -1 1 2 3 5 9 9 9 10 10 10 10 9 8 8 7 8 8 7 7 5 4 4
4 5 6 6 8 8 3 1 -3 -2 2 -2 -3 -3 -2 -3 -0 -0 -2 -4 -1 2 4 4 5 7 9 9 10 10 10 9 8 8 7 7 7 6 6 5 4 4 1 -0
5 5 6 7 7 7 2 -0 -2 2 2 -2 -2 -2 -4 0 1 -2 -0 -1 -0 2 5 6 7 7 8 8 8 8 8 8 7 6 6 6 6 5 5 4 1 -1 1 1
6 6 6 6 7 8 1 -1 1 1 -2 -3 -2 -1 -1 -2 -1 -1 -1 -2 -0 3 6 7 7 8 7 6 7 7 7 6 6 6 5 5 4 3 1 -0 0 0 -0 -1
7 5 6 5 5 4 3 3 3 1 3 1 -0 1 -1 -0 0 -0 -1 0 2 3 6 7 7 7 6 6 5 6 5 4 3 2 1 -0 -0 -0 0 0 -1 -2 -4 -5
2 2 3 4 2 -0 1 2 2 1 0 1 1 1 -0 -1 -0 -0 1 2 3 3 5 5 6 5 5 4 3 3 2 1 0 -1 -1 -1 -1 -2 -3 -3 -4 -5 -6 -7
-0 2 3 4 3 1 -2 -2 0 1 -1 1 0 -0 0 1 1 1 2 2 2 3 4 4 4 3 2 2 1 -0 -0 -1 -1 -1 -2 -3 -4 -5 -6 -7 -7 -7 -10 -11
-1 -0 3 4 1 1 -0 -1 -2 -1 -1 -1 1 -0 0 1 2 2 2 2 2 2 2 2 1 0 -0 -0 -1 -1 -1 -1 -2 -3 -5 -7 -9 -11 -10 -10 -14 -15 -18 -20

GFSCGP_850_dewp_084.txt.gz
Dewpoint
-1 0 1 -1 -1 -1 -0 1 1 -1 -1 1 2 2 3 4 8 9 10 9 9 9 9 9 10 10 9 9 9 9 8 7 6 5 5 2 3 5 6 4 3 5 7 6
-0 2 -1 -2 -1 -1 -0 1 0 -2 -4 -0 -1 -1 1 6 7 9 9 9 9 9 8 9 9 9 9 9 9 9 8 8 8 7 6 5 6 6 4 3 3 4 4 4
-2 0 -1 -1 -0 0 0 0 -0 -2 -3 -3 -1 -1 1 4 6 7 7 6 8 8 7 9 9 7 7 7 8 8 7 7 7 5 3 3 3 4 4 2 3 4 3 3
-5 -5 -1 0 0 -0 2 -2 -2 -1 -0 1 -1 3 0 4 6 6 5 6 7 7 3 5 7 7 7 7 6 7 7 6 6 4 3 4 4 3 3 2 2 2 1 3
-4 -3 -1 1 -0 -1 1 -1 -1 0 1 1 1 3 1 4 7 5 5 6 6 5 0 -0 5 6 6 6 5 5 4 5 5 4 3 4 4 3 4 3 2 -1 -0 2
-6 -7 -4 -2 -2 -2 -2 -2 0 2 2 4 6 5 3 2 3 6 4 6 7 6 3 3 1 4 6 5 4 3 3 2 3 2 2 2 3 3 3 2 2 4 4 5
-3 -5 -6 -5 -3 -4 -3 -1 3 5 6 6 7 7 4 1 -1 4 5 4 7 7 5 5 6 5 4 2 3 3 5 6 5 5 5 5 5 6 6 6 6 7 5 6
0 1 -3 -4 -3 -2 -1 -0 5 6 8 8 7 6 4 -0 -2 -2 4 5 5 8 7 6 5 3 3 3 3 4 5 7 8 9 9 7 7 7 7 7 7 6 6 4
1 0 -4 -5 -5 -4 -1 1 0 6 8 8 7 5 1 -1 -3 -5 1 4 6 5 7 7 6 6 5 3 2 2 3 4 6 8 8 9 8 8 8 7 7 7 8 8
-1 1 -3 -4 -5 -4 -1 -0 3 5 9 9 7 6 5 -0 -3 -3 -4 4 5 5 6 7 7 7 6 5 3 4 4 5 4 6 7 8 9 8 8 8 7 7 8 8
-4 0 0 -2 -1 -2 -0 2 2 3 6 8 7 4 0 -1 -2 -3 -3 -1 3 5 5 6 6 6 6 6 6 6 7 7 6 5 5 7 8 9 9 9 8 8 8 8
-4 -1 1 0 -3 -4 -3 -1 2 6 6 6 5 4 -1 -2 -2 -3 -5 -4 0 1 2 3 4 3 5 6 7 7 7 7 7 6 6 5 7 9 9 9 10 9 9 9
-2 -0 4 1 -1 -2 -1 -1 -0 3 5 6 7 5 0 -1 -1 -2 -3 -5 -5 -2 1 2 3 3 4 5 6 6 6 6 7 7 7 7 7 8 8 9 10 10 8 7
0 2 -1 2 0 -0 1 0 -1 1 4 4 5 2 0 -1 -1 -2 -3 -5 -5 -5 -4 0 1 2 1 2 4 5 6 6 6 7 7 7 7 8 9 10 11 10 7 4
3 3 2 0 -0 -0 -0 0 -0 0 1 2 1 2 1 0 -1 -2 -5 -5 -3 -4 -3 -3 -1 0 -1 -1 2 3 6 6 6 7 8 8 8 9 9 8 10 6 8 7
4 3 1 3 1 0 3 1 -1 -0 -1 -0 1 1 -1 -3 -2 -5 -5 -4 -4 -4 -4 -4 -4 0 1 2 2 4 6 6 7 7 8 9 9 9 9 8 9 8 9 10
6 5 3 4 2 2 4 3 1 1 -0 -1 0 -1 -4 -4 -5 -6 -5 -5 -5 -4 -3 -4 -5 -2 2 3 4 4 6 7 8 8 9 9 9 9 10 10 10 10 9 9
6 6 5 5 4 7 4 -0 -1 0 -1 -2 -4 -4 -5 -6 -6 -6 -6 -6 -5 -5 -3 -1 -2 -2 2 4 5 6 7 9 9 8 8 10 10 10 9 9 9 8 8 8
6 6 6 8 6 4 3 1 -1 0 -1 -3 -4 -5 -5 -5 -3 -2 -4 -3 -4 -2 -2 -2 -1 0 2 6 7 8 8 10 10 10 10 10 9 9 8 9 8 8 7 7
5 5 6 6 7 7 3 0 -1 -3 1 -2 -3 -3 -3 -3 -0 -1 -2 -4 -3 -3 -3 -3 -0 2 5 8 9 9 9 9 10 10 10 9 8 7 7 7 8 7 6 5
4 4 6 6 7 5 3 2 -1 3 2 -2 -3 -3 -3 -2 -1 -4 -2 -1 -2 -2 -1 2 4 5 8 9 10 10 10 9 9 8 7 6 6 6 7 7 6 5 4 4
6 5 3 5 5 7 1 2 2 1 2 1 -1 -1 -3 -3 -3 -3 -1 1 2 2 4 5 6 8 8 8 8 9 8 8 8 6 6 5 5 6 5 5 4 3 1 1
6 4 5 3 4 2 1 4 2 2 2 1 2 1 -2 -3 -2 -1 1 2 4 4 6 7 7 7 7 6 6 7 7 6 5 6 5 4 4 3 2 2 0 1 1 1
2 3 4 4 2 3 1 3 1 1 1 -0 1 0 -0 -1 0 0 1 3 5 6 6 7 7 7 6 5 4 5 6 5 4 3 2 1 1 1 0 1 -0 -2 -4 -4
-2 2 3 2 1 1 -1 -0 -1 -1 -2 -0 -1 1 -0 1 1 1 2 3 4 5 6 6 6 6 5 4 3 3 3 2 1 -0 -1 -1 -0 -2 -4 -5 -6 -6 -4 -4
-1 2 4 4 1 1 -2 -1 -3 -4 -3 -2 -0 0 1 -0 0 2 2 3 3 4 4 5 4 4 2 2 0 -0 -0 -0 -1 -1 -3 -5 -5 -6 -8 -6 -5 -6 -6 -6

GFSCGP_850_dewp_090.txt.gz
Dewpoint
-2 -0 1 -0 0 -1 -1 1 1 -0 -2 -1 -1 -1 -2 -1 4 6 10 10 9 8 8 9 9 10 10 10 10 10 10 10 10 9 6 5 8 7 8 7 7 2 6 7
-0 1 -2 -2 -1 -0 -0 1 1 -1 -3 -1 -1 -1 -2 0 3 4 7 10 9 8 9 8 9 9 9 9 9 9 9 9 9 7 6 6 8 7 6 4 1 2 2 4
-2 -2 -2 -1 -0 0 0 1 1 0 -2 -1 -1 0 -1 -0 4 6 6 8 8 7 7 8 8 9 9 9 9 9 9 9 9 7 5 6 6 7 7 5 3 3 5 4
-3 -4 -4 -0 1 0 2 -1 -1 -0 1 3 -1 4 -0 -2 3 7 7 8 8 7 6 6 9 9 9 9 9 8 9 9 9 8 6 6 5 4 4 3 5 6 4 3
-2 -4 -3 -3 0 -0 1 -1 1 1 2 1 1 3 1 3 3 3 5 6 8 7 4 4 4 8 8 9 9 8 9 9 9 8 7 5 6 6 4 3 3 4 4 3
-4 -6 -5 -4 -5 -1 -1 0 0 2 2 5 2 3 3 1 2 2 3 5 5 7 5 4 2 5 7 8 8 8 8 8 8 8 7 6 3 2 4 4 4 4 2 3
-9 -6 -4 -5 -4 -2 -1 1 4 4 5 6 2 7 4 -0 -1 1 1 3 3 5 6 4 3 4 6 5 7 7 7 8 8 8 7 6 5 5 5 5 4 4 4 4
-10 -11 -8 -4 -3 -1 0 1 5 6 5 4 6 8 4 1 0 -0 -1 -0 2 4 5 4 3 -0 3 5 4 2 2 5 6 6 7 6 6 5 6 5 5 4 4 3
-0 -6 -6 -6 -5 -5 -2 2 -1 2 5 7 5 4 1 0 -1 -1 -2 3 3 3 3 4 3 2 -2 2 1 -0 -0 -0 1 4 5 5 4 4 3 4 4 4 4 3
2 2 -3 -4 -5 -5 -4 -3 1 4 7 8 6 6 3 0 -0 -2 -2 4 3 3 3 3 3 3 2 -1 2 2 -0 -2 -2 -1 -0 1 3 3 3 3 4 4 3 3
4 3 -0 -2 -2 -2 -1 -1 1 1 4 5 5 4 2 0 -1 -0 -3 -2 3 3 2 1 2 3 3 2 -0 1 1 0 0 -0 1 1 0 -1 -1 -0 0 1 2 1
4 6 4 1 -3 -4 -3 -2 -2 2 3 5 4 2 -2 -1 -1 -1 -3 -4 -3 0 1 1 3 4 4 4 3 1 2 1 1 1 2 2 3 3 3 3 4 4 4 5
2 6 6 2 -1 -3 -3 -3 -1 2 3 2 5 3 -1 -1 -1 -2 -2 -3 -3 -2 -2 0 2 1 3 4 4 4 4 2 1 1 1 2 2 4 5 6 7 7 8 8
1 4 4 7 6 5 4 -2 -2 1 4 3 3 2 0 -1 -1 -2 -2 -3 -4 -4 -5 -3 -0 0 1 2 2 3 3 5 5 4 3 3 3 3 2 3 4 4 5 6
3 4 2 4 4 4 6 2 -2 -1 1 3 2 2 1 -0 -1 -1 -2 -3 -3 -4 -4 -4 -2 -2 -1 1 1 1 2 2 4 5 6 5 4 3 4 4 5 6 7 7
4 3 4 4 3 5 5 1 -0 1 0 1 1 1 -1 -1 -2 -2 -2 -3 -3 -3 -3 -4 -5 -3 -2 -1 -0 -0 1 2 4 5 5 7 7 7 7 7 8 8 8 9
3 5 6 5 4 5 5 0 -2 -2 1 1 2 -0 -2 -2 -2 -2 -2 -2 -3 -3 -4 -5 -5 -5 -5 -3 1 2 3 4 5 6 7 7 8 8 9 9 9 9 10 9
0 5 5 6 5 8 3 -1 -2 -1 -1 -1 -1 -2 -2 -2 -3 -4 -4 -3 -3 -4 -5 -4 -5 -4 -4 -1 0 1 3 5 6 7 8 8 9 9 9 10 9 9 9 9
-2 2 5 6 7 5 4 2 1 2 1 -0 -0 -1 -1 -2 -4 -4 -6 -5 -4 -6 -5 -4 -3 -3 -2 -2 0 3 5 7 8 8 9 9 9 9 9 9 9 9 9 8
0 2 4 6 7 5 4 2 1 1 5 -0 -0 0 -1 -3 -0 -2 -5 -3 -4 -5 -4 -3 -1 1 -0 -1 2 5 7 9 10 9 9 8 8 8 8 8 8 7 8 8
4 4 5 5 6 5 3 3 3 6 4 0 2 -1 -1 -2 -1 -3 -3 -1 -0 2 1 1 2 1 1 3 5 7 9 9 9 9 9 8 8 8 8 7 7 7 6 6
3 5 6 6 7 6 1 4 7 3 3 3 2 1 1 -2 -1 -1 0 1 3 3 4 4 3 4 7 8 9 9 9 8 8 8 7 7 6 6 5 4 5 5 5 4
3 3 4 5 5 2 -1 -1 -2 1 2 2 2 2 2 1 2 0 2 3 5 5 6 7 6 8 8 8 8 8 7 7 6 6 5 4 4 4 3 4 4 4 3 2
-1 0 2 3 1 1 -0 -1 -1 -1 1 1 2 2 2 2 2 5 6 7 7 7 7 8 7 7 7 6 5 5 5 4 4 4 4 3 3 3 3 2 1 1 -0 -1
-1 0 1 2 1 0 -2 -4 -1 -1 0 0 3 3 4 4 5 7 7 7 7 7 7 7 6 6 5 4 4 3 4 4 3 3 2 2 1 0 0 -0 -2 -2 -3 -4
-2 -2 1 1 -1 -0 -1 -1 -1 -0 -0 -1 0 2 3 5 4 6 6 6 7 6 6 6 4 4 3 4 3 3 2 2 1 0 -1 -1 -1 -2 -2 -3 -3 -4 -4 -5

GFSCGP_850_dewp_093.txt.gz
Dewpoint
-2 -1 2 0 0 -2 -1 -0 -0 -1 -2 -2 -2 -3 -3 -3 0 3 8 10 9 9 9 8 9 9 10 10 10 10 10 10 9 10 10 10 9 9 4 5 4 5 6 6
-1 -3 -2 -1 -0 1 -0 0 0 -1 -2 -1 -2 -2 -3 -3 -1 1 4 8 9 9 9 8 9 9 9 9 9 10 9 10 10 10 10 10 9 5 1 5 5 5 7 4
-4 -2 -3 -1 -0 1 1 1 1 0 -1 -2 -1 -0 -1 -2 1 3 5 6 8 8 8 8 8 9 9 9 9 9 8 9 10 10 9 8 5 3 4 8 5 6 4 4
-2 -4 -3 -1 -1 -1 0 -1 -0 0 1 0 -1 2 0 -1 -2 0 5 8 8 7 8 7 8 8 9 8 9 9 8 9 9 9 8 6 4 5 6 8 7 6 4 3
-1 -3 -2 -2 -0 -1 -0 -1 0 0 1 1 1 3 1 0 0 -1 -1 7 8 6 7 6 6 6 8 8 8 8 9 9 9 8 7 5 6 7 7 6 6 3 2 3
-5 -6 -4 -4 -5 -1 -1 0 0 2 3 5 3 2 1 0 0 -1 1 3 6 6 7 6 5 7 6 8 8 8 8 9 9 8 7 5 4 7 6 5 4 2 2 2
-5 -4 -5 -5 -4 -1 -0 1 2 5 6 4 2 3 1 0 -1 -1 -1 -0 3 4 6 6 5 5 6 7 7 8 8 8 8 8 8 6 6 5 4 6 4 2 3 4
-8 -10 -5 -6 -3 -2 -0 0 1 3 5 3 5 6 2 1 -0 0 0 0 0 3 4 6 5 3 0 4 5 6 6 7 8 8 8 7 7 5 4 3 3 1 2 4
2 -5 -5 -9 -5 -4 -0 1 -2 1 4 5 3 4 2 0 0 -1 -2 -1 2 2 3 4 5 4 -1 1 2 3 4 5 6 7 7 8 7 6 5 5 4 4 4 4
2 5 -3 -4 -6 -5 -3 -1 3 3 3 2 3 5 1 0 -1 -2 -2 -1 1 2 3 4 4 4 2 -2 1 2 1 1 3 5 6 6 6 6 5 5 6 6 5 4
2 4 3 -0 -2 -2 -2 -2 -1 1 3 2 2 3 3 1 -0 -0 -1 -1 -3 2 2 2 3 4 4 2 -2 1 1 -0 -1 1 2 4 5 5 5 4 4 4 4 4
3 4 6 3 -0 -2 -3 -1 -2 1 1 5 3 1 -2 1 0 0 -0 -2 -4 -2 2 1 2 4 4 3 3 -0 1 1 -1 -1 -1 -0 -0 0 0 2 1 2 3 3
-4 4 4 3 0 1 2 1 2 1 1 1 4 2 -1 -1 -0 -1 -1 -3 -3 -3 -1 1 2 3 3 4 3 3 2 0 1 1 -0 -0 -0 0 0 -1 -1 -1 -1 -0
-2 1 -1 0 4 2 3 3 1 5 5 2 2 -1 -0 -0 -0 -1 -1 -3 -3 -3 -3 -1 -1 -0 2 3 3 2 3 4 3 2 1 1 0 1 1 2 3 4 4 5
1 3 3 1 -1 -2 1 1 1 4 5 3 -0 0 -1 -2 -1 -1 -1 -3 -2 -3 -4 -5 -4 -3 -1 0 1 0 1 2 4 5 4 3 2 2 2 3 4 4 4 4
1 5 3 3 1 1 1 1 2 4 4 3 -1 -1 -1 -1 -1 -1 -2 -1 -2 -3 -3 -4 -5 -4 -3 -3 -2 -1 -0 2 4 5 6 6 6 5 4 4 4 4 5 5
-0 1 5 4 2 3 5 2 3 3 2 0 2 0 -1 -1 -1 -1 -1 -2 -2 -3 -3 -3 -4 -4 -5 -4 -2 1 2 3 4 5 6 7 7 7 7 7 8 8 8 9
-0 1 2 4 5 6 0 0 2 3 1 -1 -1 -1 -1 -2 -2 -3 -2 -3 -3 -5 -4 -3 -3 -4 -4 -4 -4 -2 1 4 5 6 6 7 8 8 8 9 9 9 9 9
-1 0 1 3 4 2 -4 3 3 5 5 1 -2 -2 -2 -2 -2 -2 -4 -4 -5 -5 -4 -3 -4 -4 -4 -2 -1 1 2 4 5 6 7 8 9 9 9 9 9 9 9 9
-1 -1 1 4 5 3 1 2 4 2 5 4 2 2 0 -1 2 -1 -3 -3 -3 -1 -4 -3 -1 -0 -1 2 3 5 6 8 8 9 9 9 9 8 8 8 8 8 8 7
1 1 2 2 4 3 2 3 3 5 6 4 4 3 2 1 -0 -1 1 1 2 4 4 5 5 6 8 7 7 7 9 9 9 8 8 8 8 8 7 7 7 6 6 6
3 4 3 2 5 4 2 4 4 5 4 3 4 3 4 0 2 4 5 4 6 7 7 7 8 8 8 8 8 8 8 7 8 7 7 7 6 6 5 4 4 4 4 4
-1 0 4 5 3 4 2 0 -1 2 0 2 3 4 4 3 4 4 5 7 7 6 6 6 7 7 7 7 8 7 6 6 6 6 5 4 4 4 4 3 3 3 2 1
-2 -1 2 2 0 1 0 -1 -0 0 1 2 3 4 4 5 6 6 6 6 7 6 6 7 7 7 6 6 5 5 5 4 4 3 3 3 3 2 2 1 0 -0 -1 -2
-4 -1 1 0 -2 0 -1 -1 -2 -1 1 1 2 4 4 5 7 6 5 6 6 6 5 6 6 5 4 4 4 3 3 3 3 2 1 1 1 0 -1 -1 -2 -3 -4 -4
-2 -2 -0 0 -4 -1 -1 -1 -3 3 3 2 2 4 5 4 6 7 5 3 3 5 4 4 3 3 3 4 3 2 2 2 1 0 -1 -1 -2 -2 -3 -4 -5 -5 -6 -6

GFSCGP_850_dewp_096.txt.gz
Dewpoint
-13 -4 -1 -4 -3 -3 -5 -4 -4 -6 -5 -3 -4 -6 -7 -5 -5 -3 -1 3 5 7 8 9 9 8 9 10 10 10 10 10 10 10 10 10 10 10 11 10 10 10 8 5
-5 -7 -10 -6 -4 -3 -3 -3 -4 -5 -6 -4 -4 -5 -6 -6 -5 -4 -3 1 4 6 8 8 9 7 9 10 10 10 10 10 10 10 9 10 10 10 10 10 9 9 9 4
-2 -5 -7 -9 -4 -2 -3 -3 -3 -3 -5 -4 -3 -4 -7 -8 -4 -2 0 1 2 5 7 8 9 6 9 9 9 10 9 10 10 10 9 9 10 10 10 9 8 7 9 5
-3 -6 -6 -5 -5 -5 -2 -5 -4 -4 -3 -1 -4 -3 -8 -5 -4 -5 -5 1 3 4 7 8 8 8 8 9 9 9 9 9 9 10 10 9 9 9 7 6 7 7 8 8
-2 -3 -3 -4 -3 -5 -3 -4 -5 -2 -2 -2 -2 -1 -5 -5 -2 -3 -5 -4 3 5 6 7 8 8 6 9 8 9 9 9 9 9 10 10 9 5 5 6 6 5 5 5
-6 -7 -5 -4 -6 -4 -4 -1 -0 -0 0 3 0 -2 -4 -5 -2 -4 -4 -1 3 5 6 7 7 7 9 9 9 8 9 8 9 9 9 9 7 4 3 6 7 6 6 7
-10 -8 -9 -6 -3 -4 -2 1 3 5 4 3 -2 0 -3 -3 -3 -3 -4 -4 2 5 6 7 7 7 8 9 8 8 8 8 9 9 8 8 6 4 4 5 9 8 7 6
-7 -8 -9 -7 -6 -4 -1 1 1 2 3 1 -0 2 -1 -3 -4 -4 -1 -1 1 5 6 7 7 7 7 8 8 8 8 8 8 9 9 7 8 6 6 7 8 7 5 4
-0 -3 -5 -10 -8 -7 -3 0 -3 -1 -1 2 1 1 -0 -2 -2 -3 -3 -4 -1 3 6 7 7 7 7 8 8 7 8 8 8 8 9 8 7 5 6 8 7 5 6 4
-4 2 -3 -5 -7 -8 -6 -6 1 0 3 2 -2 -1 -0 -2 -3 -4 -3 -4 -2 1 4 6 7 7 7 6 7 7 8 8 8 8 8 8 8 7 8 7 7 7 7 6
-2 -1 -0 -1 -3 -6 -6 -3 -3 -3 -1 2 2 -1 -3 -3 -4 -4 -3 -3 -1 1 4 5 6 7 8 8 6 4 6 8 8 8 8 8 8 8 8 7 6 6 6 6
-4 -1 1 0 -1 -1 0 -2 -4 -1 -1 0 1 0 -4 -3 -3 -3 -2 -1 -2 1 4 4 6 7 8 8 7 -0 2 3 4 6 7 8 8 8 8 7 7 6 6 6
-4 0 1 1 0 1 1 1 1 2 1 1 4 1 -4 -4 -3 -1 -2 -3 -1 -1 3 4 5 6 7 8 8 7 4 2 6 7 7 7 6 6 7 5 6 7 6 7
-4 -3 -3 -3 -1 -2 0 1 -0 2 5 2 1 -1 -4 -5 -4 -4 -5 -3 -3 -1 2 4 5 5 6 7 7 8 8 8 8 8 7 6 5 4 5 4 4 5 4 4
-4 -1 -4 -4 -5 -6 -5 -5 -4 0 0 3 2 1 -3 -3 -5 -4 -4 -3 -2 -2 -2 1 4 4 5 6 7 7 7 8 8 8 8 7 5 4 5 3 2 3 5 4
-1 -1 1 1 -2 -2 -3 -5 -5 -4 -2 -1 -1 1 -1 -3 -5 -5 -5 -5 -5 -2 -2 -2 -0 3 5 5 6 7 5 7 8 8 8 8 8 6 6 6 7 5 6 7
-0 0 1 1 -1 1 3 -1 -3 -5 -5 0 3 0 -2 -3 -4 -4 -2 -2 -3 -2 -2 -2 -1 -1 4 6 6 7 6 7 8 8 8 8 8 8 8 8 8 8 8 8
-0 -0 1 2 1 5 -3 -3 -3 -3 -0 0 1 0 -2 -3 -4 -4 -5 -3 -2 -2 -2 -2 -1 -1 -2 4 5 8 8 8 7 8 9 8 8 9 9 9 9 9 8 9
-2 -1 1 1 -2 -4 -4 -5 1 2 0 0 4 0 -3 -4 -4 -4 -3 -3 -2 -2 -1 -1 -0 2 -1 -1 2 7 8 9 9 9 8 8 8 9 9 9 8 8 8 8
-2 -1 1 -1 0 -1 -8 -1 1 -0 1 4 3 4 4 3 2 -2 -3 -1 -0 0 3 5 4 1 3 3 5 2 6 7 8 8 8 9 9 9 8 8 8 8 8 7
3 3 3 2 2 -3 -6 -2 1 4 3 2 3 3 4 5 3 2 5 3 5 1 3 6 7 6 7 7 7 7 8 8 9 9 9 8 8 8 7 7 6 6 6 5
2 3 3 2 4 3 -2 4 6 5 3 2 3 3 4 5 4 7 6 6 6 6 6 7 7 7 8 8 8 8 8 8 8 8 8 7 7 6 6 5 5 4 4 4
-3 -5 -2 1 1 -3 -2 2 3 3 2 -0 3 3 5 6 6 6 5 5 5 6 7 7 7 6 7 7 8 8 6 7 7 7 6 5 4 4 4 3 3 2 2 1
-6 -6 -1 0 -4 -0 1 1 1 1 -0 4 3 4 6 6 7 6 4 5 6 6 6 6 7 5 5 6 6 5 5 5 5 4 3 3 3 2 2 1 1 0 -1 -2
-4 -5 -4 -4 -5 -5 -4 -2 -2 -3 2 3 3 5 7 6 6 5 2 2 4 6 4 6 5 5 4 3 3 3 3 3 3 2 1 1 0 0 -0 -1 -3 -3 -4 -4
-3 -4 -3 -2 -5 -5 -5 -5 -3 -3 1 2 3 6 6 4 3 2 2 1 -0 5 5 4 4 3 2 2 2 2 2 2 1 0 -1 -2 -3 -3 -4 -4 -5 -6 -6 -7

GFSCGP_850_dewp_099.txt.gz
Dewpoint
-9 -10 -10 -10 -6 -5 -4 -4 -3 -4 -5 -5 -5 -4 -6 -8 -9 -6 -6 -6 -3 1 5 7 9 10 10 10 9 10 10 10 9 10 10 10 10 10 11 11 10 10 9 9
-6 -7 -10 -13 -10 -5 -3 -2 -2 -4 -5 -5 -3 -3 -5 -7 -9 -9 -6 -6 -4 -2 5 8 9 10 10 10 9 10 10 10 10 10 10 10 10 10 10 11 10 10 9 8
-3 -4 -8 -7 -7 -7 -4 -1 -1 -2 -4 -5 -4 -2 -3 -6 -8 -10 -8 -5 -5 -3 3 7 8 9 10 10 9 9 10 10 10 10 10 10 10 10 10 11 11 10 10 6
-7 -8 -5 -6 -6 -9 -5 -5 -4 -3 -3 -1 -4 -0 -3 -6 -9 -9 -6 -5 -4 -3 1 6 8 9 10 10 10 9 9 10 10 10 10 10 10 10 10 10 10 10 9 6
-6 -5 -3 -3 -5 -6 -6 -7 -5 -5 -3 -2 -2 -2 -3 -5 -5 -8 -7 -6 -6 -2 1 5 7 8 9 10 10 10 10 9 10 10 9 10 9 9 9 9 9 9 7 7
-12 -11 -4 -4 -5 -6 -6 -5 -4 -2 -2 2 -1 -1 -2 -4 -5 -4 -5 -6 -4 -2 3 5 7 7 8 10 11 10 9 9 9 10 10 9 8 9 9 9 9 8 9 9
-7 -10 -12 -8 -5 -5 -4 -3 2 2 4 4 -1 -0 -1 -5 -7 -4 -5 -5 -2 0 3 5 7 7 8 9 10 10 10 9 9 10 10 10 10 9 9 8 8 8 8 9
-5 -6 -11 -12 -7 -6 -3 -2 3 2 2 3 -0 -0 -2 -5 -6 -6 -5 -4 -3 1 3 5 6 7 7 9 10 9 9 9 9 9 9 9 9 9 7 7 8 7 7 6
-1 -3 -7 -13 -11 -7 -7 -0 -3 1 1 4 4 -0 -3 -2 -3 -4 -5 -5 -4 -0 3 5 6 7 7 9 9 9 9 9 9 9 9 9 8 8 5 4 6 6 7 6
-2 0 -5 -7 -10 -9 -6 -8 -1 -1 4 3 -1 -1 0 -1 -3 -4 -4 -4 -5 -3 2 4 5 7 7 8 9 9 9 9 9 9 9 9 9 9 8 6 6 7 8 8
-8 -1 -2 -3 -3 -6 -6 -4 -4 -4 -3 2 3 1 -3 -4 -3 -3 -4 -3 -4 -2 1 4 5 6 7 8 8 9 9 8 9 9 9 9 9 9 9 8 9 8 8 7
-9 -2 1 -2 -5 -3 -2 -6 -5 1 -1 -2 1 1 -4 -4 -4 -3 -2 -3 -2 -2 0 2 4 6 7 7 8 9 8 8 8 9 9 9 9 9 8 8 8 8 8 7
-3 -4 -2 -2 -4 -4 -0 -1 -3 -4 -3 -2 2 1 -5 -5 -4 -5 -3 -4 -3 -1 2 3 4 6 7 7 8 8 8 8 8 8 9 9 9 9 9 9 8 8 8 8
-4 -4 -4 -2 -2 -0 0 -0 0 0 3 1 -1 -4 -5 -5 -5 -5 -5 -4 -5 -1 -1 2 4 5 6 7 8 8 8 8 8 8 8 8 9 9 9 9 9 9 9 8
-4 -1 -5 -7 -8 -8 -5 -5 -5 -3 -2 2 1 -1 -2 -3 -4 -5 -5 -5 -5 -3 -2 1 3 4 5 6 7 8 8 9 8 8 8 8 9 9 9 9 9 9 9 9
-7 -0 -4 -5 -7 -7 -5 -7 -8 -8 -7 -5 -3 -2 -5 -5 -5 -3 -4 -5 -5 -6 -4 -3 -0 2 4 5 7 7 8 9 9 9 9 8 9 9 9 9 9 9 9 9
2 -0 -2 1 -6 -6 -1 -5 -8 -10 -12 -10 -5 -5 -6 -3 -4 -4 -4 -5 -6 -4 -4 -3 -2 -1 2 5 6 7 8 8 9 9 9 9 9 9 9 9 9 9 8 8
-0 -1 1 1 -1 2 -5 -8 -6 -4 -6 -10 -12 -13 -6 -3 -3 -5 -5 -5 -6 -4 -3 -3 -2 -1 1 4 6 7 8 8 9 9 8 9 9 9 9 9 8 8 8 8
-3 -1 2 1 -2 -5 -7 -8 -5 -3 -1 -4 -2 -1 2 2 -1 -3 -5 -5 -5 -2 0 -0 1 -0 1 3 6 7 8 9 9 9 9 9 9 9 9 9 8 8 9 8
-3 -2 1 1 0 -1 -7 -2 0 0 4 2 2 3 4 4 6 -0 -2 -3 3 4 4 4 5 6 6 6 7 7 8 9 9 9 9 9 9 9 9 9 9 8 8 8
1 3 2 2 2 -1 -7 -8 -2 4 5 3 2 1 2 5 5 5 6 6 6 6 7 7 7 7 8 8 8 8 9 9 9 9 9 9 9 9 8 8 7 6 6 5
4 4 3 1 4 4 -6 -4 2 4 3 3 1 1 2 4 5 7 7 6 7 7 6 6 6 7 7 7 7 8 8 8 8 8 8 7 7 7 6 5 4 4 3 3
2 -1 2 1 -0 -5 -5 0 2 3 3 3 1 3 3 5 5 7 5 5 4 5 5 5 5 5 6 6 7 7 5 5 6 8 6 5 4 4 4 3 2 2 1 1
-3 -6 -4 -3 -4 -4 -4 -0 -2 1 2 2 1 1 5 5 7 6 5 3 2 2 3 4 4 4 4 4 4 5 3 4 5 5 3 2 3 2 2 2 0 -0 -1 -2
-4 -2 -1 -3 -5 -5 -6 -4 -0 -0 -2 -3 1 3 6 6 7 6 4 3 2 1 1 3 3 2 1 2 3 2 3 3 3 3 1 0 1 0 -1 -1 -2 -2 -4 -4
-5 -4 -2 -1 -4 -3 -4 -5 -4 -4 -3 -0 2 5 6 5 5 3 3 2 1 1 -1 2 2 1 0 0 1 1 0 2 1 1 -0 -1 -2 -2 -3 -4 -5 -6 -6 -7

GFSCGP_850_dewp_102.txt.gz
Dewpoint
-5 -9 -11 -12 -11 -10 -8 -5 -2 -0 -2 -2 -3 -4 -5 -6 -7 -7 -7 -6 -6 -6 1 8 8 9 10 9 9 9 10 10 10 9 9 10 9 11 11 11 10 9 9 10
-4 -3 -7 -10 -11 -12 -11 -5 -2 -2 -2 -1 -2 -3 -5 -5 -5 -6 -8 -8 -7 -5 3 8 9 10 10 9 10 9 10 9 9 9 10 10 9 10 10 11 11 10 9 9
-5 -7 -10 -8 -6 -6 -8 -8 -1 -0 -1 -1 -1 -1 -3 -6 -6 -6 -7 -8 -8 -6 3 8 9 10 10 9 11 9 10 9 9 8 9 10 9 10 10 10 11 10 10 9
-10 -10 -9 -8 -5 -6 -4 -7 -7 -6 -3 2 -2 1 -2 -4 -5 -5 -5 -7 -9 -5 -4 7 9 10 10 10 11 10 10 9 9 9 9 10 10 10 10 10 10 10 10 10
-12 -12 -11 -8 -8 -6 -4 -7 -7 -5 -2 -1 -2 -1 -2 -4 -4 -5 -6 -8 -6 -5 -4 6 8 9 10 10 11 10 11 10 9 9 10 10 10 11 10 10 10 11 10 10
-9 -13 -13 -8 -7 -6 -6 -5 -4 -4 -3 2 -1 -1 -1 -2 -3 -5 -6 -8 -6 -6 -2 5 7 9 9 10 11 10 10 10 9 9 9 10 9 10 10 10 10 10 10 10
-7 -8 -11 -14 -8 -6 -4 -2 1 2 3 2 -2 -0 -1 -3 -4 -4 -5 -6 -4 -3 1 4 7 8 9 10 10 10 9 10 8 9 9 9 10 10 9 9 9 9 9 9
-5 -7 -9 -10 -12 -8 -5 -1 3 6 5 4 4 8 1 -4 -5 -6 -6 -5 -3 -2 2 4 7 8 8 10 9 10 10 10 9 10 9 9 9 9 9 9 9 8 8 7
-2 -6 -6 -10 -12 -11 -6 -1 -3 2 2 4 5 2 -0 -2 -4 -4 -5 -5 -4 -1 2 4 6 7 8 9 9 10 10 10 10 9 9 10 10 9 9 9 9 9 9 8
-5 -0 -5 -7 -11 -12 -9 -9 -2 1 5 6 2 2 6 4 1 -2 -3 -3 -4 -3 2 4 6 7 7 9 10 8 9 9 9 9 9 9 9 9 9 9 8 8 8 8
-10 -5 -4 -6 -3 -5 -8 -5 -4 -2 1 5 5 2 1 1 1 -1 -0 -3 -3 -5 0 4 5 7 7 8 9 9 9 9 9 9 9 9 9 8 8 7 8 7 6 6
-14 -10 -2 -5 -3 -3 -0 -4 -4 -1 0 1 2 2 -3 0 1 -1 -1 -2 -2 -2 -2 3 5 7 7 8 9 9 9 9 9 9 10 10 8 8 8 8 5 4 5 7
-6 -4 -3 -6 -9 -9 -4 -2 -2 -4 -2 0 4 3 -3 -2 -0 -2 -4 -4 -3 -2 -2 1 4 6 7 8 8 9 9 9 9 9 9 9 9 9 8 8 8 8 8 8
-4 -3 -1 -1 -6 -3 1 -1 -1 -1 7 1 -1 -3 -5 -0 -0 -2 -4 -5 -5 -4 -1 2 3 5 7 8 8 9 9 8 8 9 9 9 9 9 8 8 7 8 8 8
-6 -4 -5 -7 -8 -9 -7 -5 -4 -2 -1 5 3 0 -1 -1 0 -2 -3 -3 -4 -5 -4 -2 3 4 6 7 8 8 9 8 8 8 9 9 9 9 9 9 8 8 8 8
-7 -5 -7 -5 -7 -8 -9 -9 -7 -6 -6 -6 -5 -4 -7 -6 -7 -6 -6 -6 -5 -4 -5 -5 -1 3 5 7 8 8 8 8 8 8 8 8 9 9 9 9 9 9 9 8
-0 -3 -5 -2 -5 -6 -4 -9 -9 -8 -8 -7 -5 -6 -8 -7 -6 -5 -5 -4 -4 -5 -5 -5 -3 -1 3 5 7 8 8 9 9 8 8 8 8 9 9 9 9 8 8 8
-0 3 1 1 -1 2 -4 -10 -9 -7 -9 -10 -9 -11 -12 -12 -10 -1 0 -4 -3 -5 -5 -4 -2 -1 2 4 6 7 8 9 9 9 9 9 9 9 9 9 9 8 8 8
-4 -1 2 1 -1 -4 -7 -8 -3 4 2 4 5 4 2 2 2 2 5 6 5 3 -2 1 -1 -1 0 3 5 6 7 8 9 9 9 9 9 9 9 9 8 8 8 8
-4 -2 0 2 1 -1 -7 -4 -5 -4 2 4 3 4 2 1 6 3 5 7 6 7 6 5 4 -1 2 3 6 7 8 9 9 9 9 9 9 9 9 8 8 8 8 8
0 1 2 3 4 -0 -7 -7 -6 -1 4 4 3 1 2 4 3 4 6 7 6 7 6 8 7 6 4 5 7 7 8 9 9 9 9 9 9 9 9 8 8 7 7 6
3 4 3 2 2 2 -3 -2 2 3 -0 2 2 2 2 2 4 5 7 6 6 6 6 6 6 7 7 7 7 8 8 8 9 9 9 9 9 9 8 7 5 4 3 2
5 -1 2 0 0 -2 -2 -1 2 1 1 1 1 1 1 3 5 6 7 6 5 4 5 5 5 5 6 7 8 8 7 8 8 8 8 7 6 5 4 5 2 1 1 -0
-1 0 1 2 0 1 -1 -3 -1 -1 -1 -1 -1 -0 0 5 5 5 6 4 3 3 3 3 3 4 4 4 5 6 5 5 6 7 5 3 2 0 -0 1 -1 -1 -2 -2
0 -3 -2 -1 -0 -1 -1 -2 -1 -2 -3 -2 -1 2 1 6 6 6 3 2 1 1 1 1 1 1 1 1 1 2 2 3 3 3 1 1 1 0 -1 -1 -2 -2 -3 -3
-4 -4 -2 2 0 -0 0 -3 -5 -4 -4 0 1 3 4 4 3 3 2 1 -0 -0 -0 -0 -1 -1 -1 -0 -0 -1 -0 2 2 1 0 -0 -2 -1 -2 -2 -3 -5 -5 -6

GFSCGP_850_dewp_105.txt.gz
Dewpoint
-3 -3 -6 -11 -14 -15 -13 -10 -8 -9 -6 -2 -1 -1 -1 -3 -3 -7 -6 -6 -4 -4 -0 6 7 7 8 8 9 7 9 10 10 11 10 11 11 11 10 10 9 8 8 7
-1 -1 -5 -11 -14 -14 -13 -10 -9 -9 -5 -4 -2 0 -0 -1 -2 -3 -6 -6 -7 -6 4 7 7 7 8 8 7 5 9 10 10 9 9 8 9 11 11 10 9 9 9 8
-2 -3 -4 -5 -5 -7 -7 -6 -7 -8 -8 -4 -1 1 1 -1 -3 -4 -6 -7 -7 -6 6 8 8 8 8 8 3 6 10 9 10 10 8 9 9 9 10 11 11 10 9 9
-7 -8 -6 -6 -6 -7 -4 -6 -5 -5 -5 -3 -2 3 2 -1 -3 -4 -6 -6 -6 -5 7 8 8 8 7 6 2 7 11 9 9 10 10 10 9 9 10 10 11 10 10 9
-7 -12 -11 -10 -11 -9 -6 -4 -4 -4 -3 -3 -3 -1 0 -3 -3 -5 -5 -5 -6 -6 5 8 8 7 6 7 0 6 11 11 9 10 10 9 9 9 9 10 10 10 10 9
-6 -9 -10 -10 -11 -10 -6 -3 -2 -4 -3 0 -2 -1 -1 -3 -4 -5 -5 -6 -6 -6 5 7 8 7 8 8 1 7 11 10 9 10 10 10 10 10 10 10 10 10 10 10
-5 -6 -9 -10 -8 -10 -5 -2 3 3 2 2 -2 -1 -2 -2 -4 -5 -5 -5 -4 -6 6 8 8 8 8 7 2 6 10 10 10 10 10 10 10 10 10 10 10 10 9 10
-2 -2 -7 -9 -8 -9 -4 -3 4 5 5 2 1 6 3 -1 -2 -2 -6 -5 0 5 7 8 8 8 8 6 3 4 10 10 10 9 11 9 9 9 10 10 10 10 10 10
0 -2 -4 -4 -6 -11 -9 -3 -5 2 1 4 3 2 -0 4 4 2 -3 -5 -0 6 7 8 8 8 7 7 2 3 8 9 9 8 10 9 9 9 9 9 9 10 10 10
-4 -1 -5 -6 -5 -6 -9 -8 -3 1 6 7 2 1 3 4 5 4 0 -0 -1 3 6 7 7 7 7 7 4 4 7 9 8 8 9 9 9 9 9 9 9 9 9 9
-11 -6 -5 -6 -4 2 3 -5 -6 -4 3 5 6 4 3 7 7 6 3 -1 -2 0 5 6 6 7 7 7 7 2 6 8 8 8 9 9 10 9 9 9 9 9 9 8
-13 -9 -5 -7 -9 -1 2 4 3 -4 -1 2 2 2 -2 2 2 5 3 1 1 -0 3 6 6 7 7 7 7 5 5 7 7 8 9 9 9 9 8 9 9 8 8 8
-10 -2 2 -2 -8 -9 -1 1 3 3 -2 -0 3 3 -3 -2 5 4 2 1 1 -3 1 5 7 7 7 7 7 8 6 7 8 7 9 9 8 8 8 7 8 8 8 7
-5 -4 -2 1 -0 -3 -4 -6 -3 3 7 7 5 3 -1 0 4 4 3 1 -1 -3 -3 1 7 7 7 7 7 8 8 8 8 7 8 9 10 8 8 8 7 7 6 5
-5 -2 -4 -5 -6 -6 -7 -7 -8 -6 -3 6 4 4 3 1 3 3 3 -1 -6 -5 -6 -5 1 7 7 8 8 8 8 8 9 9 7 8 9 8 8 8 8 6 5 6
-3 -2 -4 -4 -7 -8 -6 -7 -8 -8 -8 -6 -5 -3 -5 -8 -6 -6 -2 -5 -5 -5 -4 -5 -1 0 7 7 8 8 8 7 9 9 8 8 8 8 9 9 8 9 9 9
-0 -1 -1 -0 -5 -6 -3 -5 -7 -8 -10 -8 -6 -7 -7 -10 -11 3 6 6 6 6 4 1 -4 -2 -0 9 7 7 8 8 8 9 9 9 8 8 8 8 8 8 8 8
-0 1 1 0 0 1 -4 -6 -7 -8 -9 -5 4 4 3 3 3 6 7 7 6 6 6 6 6 1 2 4 8 8 8 8 8 8 8 9 9 9 9 9 9 8 8 8
-4 -1 2 3 2 1 -3 -4 -0 0 2 5 4 4 3 3 2 6 5 6 6 6 5 6 7 4 3 7 8 9 8 8 9 8 8 8 8 9 10 9 9 9 9 9
-4 -3 0 2 3 1 -3 -1 -3 -4 4 4 4 4 3 2 6 5 5 6 6 6 4 5 5 7 6 3 2 6 9 9 9 9 8 9 9 9 9 9 9 9 8 8
-1 -1 1 2 2 2 -2 -4 -4 1 4 3 2 3 3 3 3 3 5 5 5 5 5 5 4 7 6 8 9 9 9 9 10 9 9 9 9 9 8 9 8 8 8 7
3 0 1 1 1 1 -2 -2 0 3 1 1 2 1 2 1 1 5 5 6 5 5 5 5 5 5 6 7 8 8 9 9 9 9 9 9 9 8 8 8 7 7 6 5
4 1 2 -0 -0 2 2 2 2 0 0 -0 -1 -1 0 3 6 5 6 5 4 4 4 4 4 4 5 6 7 8 7 7 8 8 7 7 6 6 5 5 3 1 1 1
3 2 4 3 2 2 1 0 -1 -2 -3 -3 -2 -1 1 2 6 6 5 4 3 3 2 3 3 3 4 4 5 6 6 6 6 6 5 3 3 2 1 0 -1 -1 -2 -2
-0 2 3 4 3 2 2 0 -2 -2 -2 -3 0 1 -0 3 5 5 4 3 2 1 1 0 1 1 1 1 2 3 3 3 4 4 1 1 -0 -0 -1 -1 -3 -2 -3 -3
-1 1 2 4 2 3 1 -3 -3 -2 -2 1 1 2 -1 2 3 3 2 1 -0 -0 -1 -1 -2 -1 -1 -1 -1 -2 -1 0 1 0 -1 -2 -2 -2 -3 -3 -6 -6 -6 -6

GFSCGP_850_dewp_108.txt.gz
Dewpoint
-3 -8 -8 -14 -12 -10 -10 -11 -11 -12 -13 -7 -4 -2 -4 -4 -3 -3 -2 -2 -2 -3 -5 -0 4 6 8 8 9 9 8 6 9 10 11 11 11 10 11 11 10 10 10 10
-1 0 -5 -9 -11 -12 -13 -13 -13 -14 -12 -9 -6 -6 -8 -4 -3 -3 -2 -2 -4 -4 -1 2 6 8 8 7 9 9 5 6 8 10 10 11 11 11 10 10 10 10 9 9
-1 -1 -3 -4 -5 -9 -11 -12 -12 -10 -9 -8 -5 -4 -4 -4 -2 -1 -2 -2 -4 -5 2 6 8 8 7 8 8 7 4 6 8 10 10 11 11 11 11 11 11 11 10 9
-3 -4 -3 -3 -3 -4 -2 -6 -6 -5 -4 -2 -5 -2 -5 -6 -4 -2 -3 -4 -5 -5 1 4 8 8 7 8 8 4 5 5 9 9 9 9 9 10 11 11 10 11 10 9
-5 -10 -6 -4 -4 -6 -4 -6 -4 -3 -3 -3 -3 -2 -5 -4 -5 -5 -5 -6 -6 -6 -0 5 6 7 7 8 8 4 6 7 8 9 9 9 9 9 10 11 11 10 10 10
-6 -8 -8 -9 -10 -10 -9 -5 -3 -3 -2 0 -2 -2 -3 -4 -4 -5 -6 -6 -5 -6 -4 3 8 8 8 8 8 4 6 7 8 9 10 10 10 9 10 9 10 11 10 11
-4 -6 -8 -9 -7 -8 -7 -2 2 3 2 1 -3 -1 -2 -4 -5 -3 -2 -2 -0 0 -4 7 9 8 8 8 7 4 6 7 10 10 10 10 9 9 10 10 10 10 10 10
-1 -0 -6 -9 -7 -6 -6 -6 -0 3 3 1 -2 1 2 -2 -1 3 4 3 1 -2 -1 6 8 8 8 8 7 4 5 7 9 10 9 9 9 9 10 10 10 10 10 10
-0 -1 -5 -5 -4 -6 -6 -2 -5 -0 1 3 2 -0 -3 -4 5 5 5 5 2 6 4 8 9 8 8 8 5 3 3 6 8 10 9 10 8 8 9 10 10 10 10 10
-7 -2 -7 -8 -7 -3 -4 -6 -4 0 3 2 3 2 2 3 6 6 6 5 4 4 8 10 8 7 8 8 5 4 3 3 5 10 9 9 9 9 9 10 10 10 10 10
-12 -7 -5 -7 -4 -3 2 3 3 -3 3 2 5 3 6 6 6 6 7 6 4 4 2 9 9 8 8 8 7 3 4 5 4 9 10 9 9 9 9 9 9 9 10 10
-9 -9 -8 -7 -10 -8 -0 2 3 6 3 4 3 1 -4 5 5 6 6 5 4 2 0 5 8 10 7 7 7 4 2 4 2 4 8 10 9 9 8 9 9 9 9 9
-9 -6 0 -7 -7 -2 -0 -2 -4 4 5 5 5 1 -2 0 5 5 6 6 4 2 1 2 8 8 10 7 7 6 1 2 1 3 7 9 9 10 9 9 9 9 9 9
-6 -4 -4 -3 -1 -4 -6 -7 -7 3 4 5 3 4 -0 -2 3 5 4 5 3 3 1 1 5 9 9 10 7 7 3 0 2 4 6 8 9 9 9 8 9 9 9 8
-5 -3 -4 -4 -5 -6 -7 -7 -8 -7 -4 3 0 -1 -5 -3 1 4 4 4 3 3 2 2 6 8 9 9 9 8 6 1 3 4 5 6 8 9 8 8 8 8 8 7
-1 -2 -4 -3 -4 -5 -4 -6 -6 -8 -8 -8 -6 -4 -7 -1 -2 1 0 3 5 7 8 6 5 7 8 9 9 9 9 6 3 5 6 7 7 8 8 8 8 7 8 7
-1 -1 -1 -2 -3 -2 -1 -4 -6 -7 -8 -8 -6 -5 4 4 2 5 6 7 7 7 6 6 7 6 4 5 4 9 10 9 7 5 7 7 7 8 8 8 8 8 7 7
-1 -1 -0 0 -1 -0 -7 -5 -5 -6 -7 -3 2 4 4 3 6 6 6 6 6 6 5 5 5 6 6 3 6 9 9 10 9 8 7 8 8 8 9 9 9 8 8 8
-3 -1 -1 -1 0 -3 -5 -4 1 1 -1 5 5 4 3 3 5 4 6 5 5 5 5 5 5 5 6 7 8 5 8 9 10 10 9 8 8 9 9 9 9 9 8 8
-3 -3 -1 1 1 2 -1 -1 -3 -1 4 4 4 4 3 2 5 3 5 5 5 5 5 5 5 4 6 9 10 10 8 4 9 9 9 9 9 9 9 9 9 9 9 8
2 -0 0 -0 -1 1 -2 -5 -5 4 4 3 2 2 2 2 2 3 6 5 5 5 4 5 5 5 4 7 9 10 9 8 10 9 9 9 9 9 9 9 9 9 8 8
3 2 1 0 -0 1 0 2 1 2 1 2 1 0 -0 3 6 6 5 4 4 4 4 4 4 5 4 6 8 9 9 9 9 9 9 9 9 10 10 9 9 8 7 6
3 3 1 -1 -1 -1 2 2 2 1 -1 -1 -2 -2 2 3 5 5 3 3 3 3 3 4 4 4 4 4 6 7 7 7 7 8 8 8 8 8 8 8 6 5 4 4
2 1 3 2 2 2 3 1 1 -0 -2 -3 -2 2 1 2 3 3 3 3 2 2 2 1 3 3 3 3 4 4 5 5 5 5 5 4 4 3 2 2 -1 -1 -2 -2
2 2 3 3 2 2 1 1 -1 -2 -2 -2 1 1 1 2 1 2 1 1 0 0 0 0 1 1 0 1 2 3 2 2 3 3 2 2 1 0 -1 -2 -3 -4 -5 -4
1 1 1 2 2 2 1 -1 -1 -1 -0 0 1 1 -0 0 0 2 1 -0 -1 -1 -1 -1 -1 -1 -2 -1 -1 -1 -0 -0 0 -1 -2 -3 -3 -4 -4 -4 -5 -4 -5 -5

GFSCGP_850_dewp_111.txt.gz
Dewpoint
-5 -10 -10 -13 -10 -8 -8 -8 -8 -10 -12 -13 -13 -11 -11 -11 -6 -5 -6 -7 -6 -5 -7 -4 -4 -4 5 6 9 9 10 10 8 7 10 10 10 11 10 11 10 9 10 10
-6 -1 -7 -13 -13 -12 -12 -10 -10 -13 -15 -12 -11 -10 -10 -9 -9 -7 -5 -5 -4 -5 -4 -3 -3 -0 -1 7 9 10 9 9 6 7 10 10 11 11 10 11 10 9 9 9
-9 -6 -4 -3 -5 -8 -9 -10 -10 -11 -12 -10 -9 -6 -6 -7 -6 -4 -5 -6 -5 -4 -2 -3 -2 4 5 8 9 9 8 8 6 9 10 10 11 11 11 10 11 10 10 9
-6 -8 -6 -2 -1 -3 -1 -8 -9 -10 -5 -2 -6 -2 -5 -6 -6 -6 -6 -7 -6 -5 -5 -5 -0 4 4 9 9 8 8 7 5 9 10 10 11 10 11 11 10 11 10 9
-5 -8 -2 -3 -4 -3 -2 -4 -3 -3 -3 -3 -3 -1 -4 -6 -5 -6 -7 -7 -6 -6 -6 -5 -3 -1 6 10 9 8 8 4 6 9 10 10 10 11 10 10 11 11 10 10
-8 -9 -8 -7 -9 -7 -7 -7 -4 -3 -2 0 -4 -2 -4 -5 -5 -5 -6 -5 2 2 1 -0 -1 4 7 10 9 8 8 3 7 9 10 9 9 9 11 11 10 10 10 10
-4 -5 -7 -8 -6 -7 -8 -4 -2 -1 2 0 -4 -1 -4 -5 -5 -3 4 4 4 4 3 3 0 1 6 9 9 9 7 3 8 11 10 9 8 8 9 10 10 11 11 11
-1 -2 -5 -7 -6 -5 -6 -4 -1 -2 -1 -2 -3 1 -2 -2 -0 4 5 6 5 5 4 6 4 1 5 9 9 9 6 3 9 10 10 9 10 9 9 9 9 9 10 10
-1 -1 -6 -8 -6 -5 -4 -4 -6 -4 -3 2 -1 -2 -5 -1 4 4 5 6 6 5 4 4 8 9 8 8 9 9 5 3 8 10 9 10 9 9 10 10 10 9 10 10
-4 -2 -8 -9 -6 -4 -1 -3 -3 -0 2 -0 -1 1 1 0 5 4 5 7 6 4 4 5 10 10 10 9 9 8 5 3 7 9 9 9 10 9 9 10 10 10 10 10
-11 -6 -4 -7 -6 -7 -1 2 2 2 1 3 1 -1 2 5 5 5 5 5 5 4 6 6 4 10 10 10 10 8 5 4 7 7 8 9 9 10 9 10 9 10 10 10
-9 -9 -7 -9 -9 -8 -2 3 4 5 5 4 5 3 -1 -1 6 5 5 4 4 4 5 4 3 9 10 10 10 9 6 4 6 6 7 8 9 9 9 9 9 9 9 10
-7 -6 -6 -9 -4 -4 -1 -4 -5 2 4 3 6 3 -3 -3 -2 5 6 4 3 5 5 4 4 9 9 9 10 10 9 8 6 5 6 8 9 8 9 9 9 9 9 9
-4 -6 -8 -7 -3 -5 -7 -8 -9 1 3 1 1 -1 -1 -4 -5 3 4 4 5 5 6 7 6 7 9 9 9 10 9 9 9 5 5 9 9 8 9 9 9 9 9 9
-3 -5 -5 -5 -5 -6 -6 -5 -6 -6 -4 -1 -7 -4 -5 -6 -4 -2 2 3 5 6 7 8 7 9 9 10 9 10 9 9 9 7 6 8 9 9 9 9 9 9 9 9
-2 -1 -3 -3 -4 -4 -3 -3 -4 -5 -5 -6 -7 -8 -11 -6 -3 -0 2 4 5 6 7 7 6 7 7 10 10 10 9 9 8 8 7 8 9 9 9 9 8 9 9 9
-2 -1 -1 -4 -3 -3 -3 -6 -4 -6 -7 -7 -6 -9 -3 3 3 3 4 4 7 7 6 6 4 6 6 5 9 10 10 9 8 7 8 8 8 9 8 8 8 9 8 8
-1 -1 -1 -0 -2 -3 -7 -7 -7 -4 -5 -3 -8 -3 4 3 6 5 5 6 5 5 5 5 5 4 6 7 5 9 9 10 9 8 8 8 9 9 8 9 8 8 8 8
-2 -2 -2 -2 -1 -7 -8 -10 -2 3 3 2 -1 4 3 3 5 5 4 6 5 5 4 4 5 5 5 8 7 7 10 10 10 9 9 9 9 9 8 9 8 8 8 8
-2 -2 -1 -0 -0 -3 -5 -2 -3 -1 3 4 4 4 4 3 6 4 5 5 5 4 4 4 4 4 4 7 9 9 10 10 10 6 7 9 9 9 9 9 8 8 8 8
2 2 1 -1 -2 -2 -4 -5 -2 1 4 2 3 2 2 3 3 4 5 4 3 3 4 4 4 4 4 6 9 10 10 10 10 9 8 8 10 9 9 9 8 8 8 8
2 2 2 1 -1 -1 -1 1 2 2 1 2 2 -0 0 5 5 5 4 3 3 3 3 3 4 4 4 5 6 8 9 9 9 9 9 9 10 9 9 9 9 8 8 8
2 2 2 -1 -2 -1 2 3 1 2 2 -1 -1 -2 2 3 4 3 2 2 2 2 1 2 3 3 4 4 5 5 6 7 8 8 9 9 9 9 9 8 7 6 5 4
1 0 3 2 2 2 2 1 2 2 1 0 -0 2 4 3 3 2 2 2 1 1 0 0 1 2 2 3 3 4 4 4 6 7 6 7 7 6 4 3 4 3 1 1
1 2 2 3 2 1 2 -0 -1 -1 -0 1 0 2 1 1 0 1 1 1 0 -1 -2 -1 -0 -0 0 1 2 2 3 3 4 4 3 3 2 1 0 -0 -2 -2 -4 -3
1 -1 1 2 -0 1 1 1 1 2 2 2 1 -0 -0 0 -1 -1 -0 -1 -2 -1 -2 -2 -2 -2 -2 -1 0 -1 -0 1 3 2 0 -1 -1 -2 -3 -4 -5 -4 -4 -4

GFSCGP_850_dewp_114.txt.gz
Dewpoint
-7 -9 -10 -12 -11 -9 -8 -7 -7 -9 -11 -12 -11 -12 -14 -14 -13 -10 -10 -9 -8 -9 -9 -9 -8 -7 -4 -4 -1 -1 5 8 10 10 9 8 11 11 11 11 9 10 10 10
-8 -2 -7 -13 -13 -11 -10 -9 -8 -12 -13 -12 -13 -12 -12 -11 -10 -10 -9 -8 -8 -8 -8 -7 -6 -4 -4 -3 1 2 7 8 10 9 8 7 10 11 11 11 11 10 10 10
-9 -9 -7 -6 -9 -10 -11 -11 -10 -11 -12 -11 -9 -6 -7 -8 -9 -7 -7 -8 -8 -8 -7 -5 -6 -4 -5 -3 1 6 8 8 9 9 7 9 10 11 11 11 10 9 10 10
-9 -11 -11 -2 -2 -5 -3 -7 -7 -5 -7 -2 -6 -2 -6 -6 -7 -7 -8 -8 -8 -1 2 0 -2 -5 -5 -2 4 9 10 9 10 9 8 8 10 10 11 10 9 9 10 10
-8 -5 -6 -9 -6 -2 -1 -4 -5 -5 -3 -3 -3 -2 -5 -8 -7 -8 -7 -7 2 4 4 3 4 2 0 0 4 8 10 10 10 9 8 8 10 10 10 10 11 9 10 10
-10 -9 -5 -4 -5 -5 -6 -5 -5 -3 -3 0 -4 -4 -7 -7 -6 -6 -4 3 5 5 4 4 3 6 1 3 4 9 10 10 10 9 9 8 10 10 10 11 10 11 11 10
-5 -6 -7 -8 -6 -8 -8 -5 -3 -5 2 -2 -4 -2 -6 -7 -6 3 5 5 5 5 4 4 4 7 7 7 6 9 10 10 9 8 9 8 10 10 10 10 10 11 11 11
-1 -2 -5 -7 -6 -5 -6 -5 -1 -3 -3 -5 -3 -1 -3 -4 1 3 4 4 6 5 4 4 4 3 9 8 7 9 10 10 9 8 7 8 10 10 10 10 10 10 10 10
0 -1 -6 -8 -6 -4 -4 -3 -5 -3 -4 -0 -3 -4 -6 -1 2 3 3 4 3 0 1 3 3 5 5 10 9 9 11 10 9 7 6 9 9 9 9 9 9 10 10 10
-5 -0 -7 -8 -3 -8 -3 -1 -2 -0 1 0 -3 -1 -1 4 5 4 4 4 3 0 1 3 3 4 5 8 10 10 11 10 8 7 7 10 9 9 9 9 9 9 9 9
-8 -7 -5 -8 -7 -7 -3 1 2 2 3 4 4 -2 2 0 5 5 4 4 4 3 1 4 3 5 7 8 10 10 10 10 9 8 8 9 9 8 9 9 9 9 10 10
-8 -6 -5 -8 -6 -6 1 3 3 3 5 4 4 3 -2 -4 -3 -2 5 5 4 3 5 5 5 7 8 10 10 10 10 10 8 8 9 9 9 9 9 9 9 9 9 10
-4 -4 -6 -6 -3 -6 -3 -6 -0 2 3 3 4 1 -3 -6 -7 -7 3 3 5 4 3 4 7 8 10 10 10 10 10 10 8 7 9 8 9 9 8 9 9 9 9 9
-3 -3 -6 -6 -6 -6 -8 -8 -7 1 1 -1 1 -3 -9 -8 -7 -9 -7 1 5 5 3 3 7 6 8 10 10 10 10 9 8 7 9 8 8 9 8 9 9 8 9 9
-3 -4 -6 -5 -6 -6 -6 -6 -6 -5 -4 -2 -9 -9 -11 -10 -11 -10 -10 0 4 4 2 3 6 4 6 8 9 10 10 10 8 8 9 8 8 8 8 8 8 8 8 9
-3 -2 -3 -3 -4 -4 -3 -4 -4 -4 -5 -6 -6 -6 -10 -11 -11 -11 -3 2 4 4 2 4 5 4 6 6 8 9 10 10 9 8 9 9 8 8 8 8 8 8 8 9
-3 -3 -1 -4 -4 -4 -5 -7 -6 -5 -5 -6 -4 -7 -9 -9 -7 3 4 5 5 5 5 6 6 5 6 6 8 9 10 10 10 9 8 8 8 8 8 8 8 9 8 8
-2 -1 -2 -1 -2 -3 -10 -8 -9 -6 -7 -7 -7 -7 -3 -4 4 5 5 5 5 5 3 4 5 4 5 6 8 8 9 9 10 10 8 8 9 9 8 8 8 8 8 7
-2 -2 -2 -3 -1 -6 -8 -11 -5 2 0 -1 -1 -0 -2 2 5 5 6 6 5 4 4 4 4 4 4 5 8 6 8 9 10 10 8 8 7 8 9 8 8 8 8 8
-2 -2 -2 -1 -1 -3 -8 -6 -1 0 -1 1 2 4 3 3 5 5 5 5 3 3 3 3 4 4 4 4 6 8 7 8 10 10 9 8 8 8 8 8 8 8 8 7
1 1 1 1 1 -3 -6 -7 -4 0 -0 1 2 3 2 3 3 4 4 3 3 3 3 2 2 2 3 4 6 8 9 9 10 10 10 9 9 9 9 8 8 8 7 8
2 2 1 1 0 -2 1 1 2 3 3 3 3 2 1 3 4 4 3 2 3 2 2 2 2 2 3 3 4 6 8 8 9 9 9 9 9 9 9 9 8 8 8 7
1 1 1 1 -2 0 1 2 2 -0 2 2 0 -1 3 4 3 2 1 1 1 0 -0 1 1 1 2 2 3 4 6 5 8 9 9 9 9 9 9 8 7 7 6 6
1 0 2 2 2 1 1 1 1 2 1 2 2 2 3 3 2 1 0 -0 0 -0 -0 -0 -0 0 0 0 1 3 3 4 5 6 7 7 6 8 7 6 5 4 3 3
1 1 1 2 2 1 2 2 2 2 2 2 2 1 1 0 -0 -0 -0 -1 -2 -2 -1 -1 -1 -2 -2 -1 -1 -0 1 1 3 3 2 3 3 3 4 2 1 1 -0 -0
-1 1 2 2 1 1 2 2 2 1 0 0 -0 -1 -0 -1 -0 -1 -1 -2 -3 -3 -2 -2 -3 -3 -3 -3 -2 -2 -1 -0 0 1 0 -1 -0 -0 -1 -2 -4 -4 -3 -4

GFSCGP_850_dewp_117.txt.gz
Dewpoint
-9 -8 -8 -10 -10 -12 -8 -6 -6 -7 -9 -9 -8 -9 -11 -14 -14 -12 -10 -9 -9 -8 -10 -8 -6 -4 -5 -4 -5 -3 -2 -1 3 8 9 11 10 9 8 9 9 9 10 10
-6 -3 -6 -11 -12 -11 -10 -8 -7 -8 -11 -10 -11 -9 -10 -11 -10 -10 -9 -8 -8 -7 -7 -2 -0 -1 -2 -5 -3 2 2 3 5 9 9 10 9 7 9 10 10 10 11 10
-9 -9 -8 -8 -10 -11 -10 -9 -8 -10 -11 -10 -9 -6 -7 -8 -9 -8 -8 -8 -8 -4 3 1 -1 2 1 -1 -1 2 5 6 9 10 10 10 9 7 10 10 11 11 10 10
-9 -10 -10 -6 -5 -8 -6 -10 -11 -11 -5 -3 -5 -4 -7 -7 -6 -7 -8 -6 1 4 3 3 2 2 4 2 1 3 7 9 10 10 10 9 5 9 11 10 11 11 10 9
-7 -6 -9 -9 -9 -7 -7 -4 -7 -5 -3 -4 -3 -3 -6 -7 -9 -7 -6 1 4 5 4 3 3 3 4 4 2 5 8 9 11 11 10 9 4 10 10 10 11 10 10 10
-8 -9 -6 -9 -10 -6 -3 -3 -3 -3 -2 -2 -4 -6 -8 -8 -6 -6 1 4 6 5 3 0 3 3 2 7 6 6 8 10 11 11 10 9 5 9 10 11 10 10 10 10
-6 -10 -9 -7 -6 -5 -5 -4 -4 -2 -0 -6 -5 -4 -6 -6 -2 3 4 4 5 3 2 2 4 4 3 4 9 9 9 11 11 11 10 8 6 9 10 9 10 11 10 10
-1 -1 -6 -7 -6 -5 -3 -4 -5 -8 -6 -8 -4 -5 -4 2 2 2 3 4 3 2 2 3 4 4 5 5 5 10 10 11 11 11 10 9 8 9 10 10 10 10 11 10
-4 -1 -6 -7 -5 -6 -4 -3 -6 -6 -4 -2 -3 -4 -2 1 1 -1 -1 2 3 4 3 4 5 6 6 6 6 8 9 11 11 11 10 9 9 10 10 10 10 10 10 10
-8 -6 -6 -7 -5 -5 -3 -3 -2 -1 -0 -1 -3 -3 -0 -2 -2 -5 -4 -0 3 4 4 5 6 7 8 8 7 9 10 9 11 11 10 9 9 10 10 9 10 10 10 10
-8 -6 -7 -7 -3 -4 -3 0 2 0 2 -2 -2 -3 -1 -2 -3 -7 -8 -7 1 5 5 4 5 5 6 9 9 9 9 9 9 11 10 8 8 9 9 8 9 9 9 9
-7 -5 -4 -7 -4 -3 1 3 2 2 3 3 2 -0 -2 -3 -7 -9 -10 -10 -2 4 5 4 4 0 3 5 8 10 10 9 10 10 9 8 9 9 9 8 9 9 9 9
-5 -3 -3 -1 -2 -5 -6 -9 0 1 1 3 2 -4 -3 -8 -11 -12 -11 -10 -8 5 4 4 2 3 3 3 6 9 9 9 9 10 9 8 9 9 9 8 9 9 9 9
-3 -5 -5 -2 -4 -6 -7 -8 -8 -1 -2 -3 -3 -5 -11 -12 -12 -12 -13 -12 -9 4 4 4 4 3 4 4 6 8 9 9 9 9 9 8 9 9 8 8 9 8 8 9
-4 -6 -7 -8 -7 -6 -6 -7 -7 -7 -8 -7 -10 -11 -13 -13 -13 -13 -11 -10 -9 2 4 4 5 2 3 5 6 8 9 9 9 10 9 8 8 8 8 8 8 8 8 8
-4 -6 -4 -4 -6 -7 -6 -6 -5 -6 -6 -6 -7 -7 -9 -11 -11 -10 -9 -7 1 4 6 6 6 3 3 5 5 7 8 9 9 10 9 8 8 8 8 8 8 8 8 8
-3 -4 -6 -7 -8 -6 -5 -7 -7 -7 -8 -7 -8 -10 -12 -9 -10 -9 -5 1 5 6 5 5 4 4 4 4 5 6 8 8 9 9 9 8 8 8 8 8 8 8 8 8
-3 -2 -3 -4 -5 -4 -10 -9 -9 -8 -8 -8 -8 -8 -7 -7 -7 -5 4 5 6 5 4 4 4 4 4 4 5 6 7 8 8 9 9 9 8 8 8 8 8 8 8 8
-2 -2 -2 -2 -4 -8 -9 -11 -12 -9 -8 -3 -1 0 1 2 -1 2 5 5 4 3 3 3 3 3 4 4 4 5 7 8 8 9 9 9 8 8 8 8 8 8 8 8
-3 -2 -2 -2 -2 -2 -9 -3 -4 -2 -5 1 1 2 3 3 3 1 5 4 3 3 2 2 2 2 3 3 4 6 7 6 9 9 9 9 8 8 8 8 8 8 8 8
1 1 1 0 1 -1 -6 -2 -3 -6 -1 2 2 1 3 4 4 3 3 3 2 1 1 1 1 2 2 3 4 5 6 6 8 9 9 9 8 8 8 8 8 8 7 8
1 1 2 1 1 0 1 -1 0 2 2 2 3 2 2 4 3 3 1 1 1 0 -0 -0 -0 1 2 3 3 3 4 4 6 8 9 8 8 8 8 8 8 8 8 7
1 1 1 1 -2 -1 0 1 2 3 1 2 3 3 4 3 2 1 -0 0 -0 -1 -1 -1 -1 -1 1 1 2 2 2 4 4 6 7 8 8 8 8 8 8 7 7 7
-1 -0 2 2 2 2 1 2 2 2 2 2 2 2 1 0 -1 -1 -0 -1 -2 -2 -2 -2 -2 -2 -1 -0 0 0 -0 1 3 6 7 6 7 8 6 6 5 4 5 4
0 1 1 1 1 0 1 0 1 0 0 0 -0 -1 -1 -2 -2 -1 -1 -2 -3 -3 -3 -3 -3 -3 -3 -2 -1 -1 -0 -1 -0 1 1 2 4 3 4 4 3 2 1 3
-1 0 0 1 -1 -1 -1 -1 -1 0 0 -0 -2 -2 -2 -2 -2 -2 -2 -3 -3 -4 -4 -4 -4 -4 -4 -3 -3 -2 -2 -2 -1 -1 -0 -0 -0 0 1 0 -1 -2 -2 -2

GFSCGP_850_dewp_120.txt.gz
Dewpoint
-10 -10 -9 -12 -11 -12 -13 -13 -12 -13 -11 -9 -9 -9 -10 -11 -12 -14 -14 -12 -10 -9 -8 -7 -1 2 4 4 2 -4 -2 -2 6 9 12 12 10 10 10 11 11 8 8 10
-7 -8 -16 -17 -14 -11 -11 -12 -13 -15 -11 -8 -9 -11 -14 -15 -13 -13 -12 -11 -9 -8 -6 -1 1 3 4 7 3 3 5 7 10 10 12 11 11 10 10 11 9 7 8 8
-9 -12 -10 -8 -7 -8 -9 -9 -11 -12 -13 -13 -12 -12 -13 -13 -12 -11 -9 -8 -7 -4 0 2 3 4 5 6 9 9 9 10 9 12 11 12 10 10 11 10 6 9 10 10
-11 -12 -11 -9 -6 -6 -5 -10 -11 -11 -9 -9 -12 -8 -10 -10 -10 -9 -10 -7 -2 1 3 3 3 4 5 8 9 10 10 6 8 11 11 12 11 11 10 6 5 10 11 11
-9 -9 -9 -8 -9 -10 -7 -10 -7 -6 -8 -9 -10 -6 -11 -11 -8 -9 -7 -0 2 4 4 2 2 3 4 7 6 10 11 4 11 12 12 12 12 12 10 4 8 11 10 10
-6 -8 -10 -10 -12 -12 -11 -8 -4 -4 -6 -3 -6 -6 -11 -9 -10 -9 -1 2 3 2 1 1 1 3 4 6 8 6 8 10 11 12 13 12 12 12 9 10 11 10 11 9
-7 -6 -8 -8 -8 -5 -8 -4 -2 -1 -1 -3 -12 -10 -10 -11 -5 -1 1 1 1 2 2 2 3 3 5 7 7 8 8 11 12 12 12 12 12 11 9 11 11 10 10 9
-7 -2 -4 -9 -6 -5 -4 -3 -4 -1 -3 -5 -8 -8 -5 0 0 -0 -0 1 2 2 2 2 3 5 6 8 9 8 10 10 11 10 12 12 10 9 10 10 11 10 10 9
-7 -7 -5 -5 -4 -7 -4 0 -5 -4 -5 -5 -7 -1 1 -1 -4 -4 -4 -2 0 1 2 2 2 4 5 7 9 10 9 10 10 11 11 12 11 10 11 10 10 10 10 10
-8 -5 -8 -4 -1 -1 -3 -5 -4 -4 -1 -5 -10 -5 -4 -1 -7 -12 -15 -14 -8 -3 -1 1 1 3 3 5 7 9 10 10 10 10 11 11 11 10 10 10 9 10 10 10
-11 -6 -7 -7 -1 3 4 1 0 -1 -4 -3 -4 -6 -4 -3 -6 -9 -12 -14 -13 -8 -3 1 2 2 2 4 6 8 9 9 9 10 10 11 11 10 9 10 10 9 9 11
-11 -7 -4 -6 -7 -4 -1 5 6 6 1 -2 -3 -3 -4 -2 -5 -12 -11 -14 -12 -12 -2 0 2 3 3 5 5 6 9 9 9 9 10 10 11 10 9 9 9 9 9 9
-6 -7 -6 -8 -4 -1 -1 -5 -3 1 3 2 1 -3 -2 -2 -7 -12 -13 -15 -13 -13 -4 -1 1 3 4 5 5 5 7 9 9 9 9 10 10 10 9 9 9 9 9 8
-5 -7 -6 -6 -1 -4 -4 -3 -6 -6 -1 -1 -3 -6 -7 -10 -14 -15 -15 -15 -12 -11 -6 -1 2 4 5 4 3 4 6 8 9 9 9 10 10 9 9 9 9 9 8 9
-7 -7 -10 -11 -11 -10 -6 -5 -7 -7 -8 -6 -7 -10 -13 -14 -14 -15 -14 -13 -11 -9 -6 1 4 5 5 5 3 3 4 7 8 9 9 9 9 9 9 9 9 9 8 8
-7 -6 -8 -8 -10 -9 -8 -9 -9 -10 -9 -10 -11 -10 -13 -15 -16 -14 -12 -12 -9 -5 1 4 5 5 5 4 4 3 3 5 7 9 9 9 8 9 9 9 8 8 8 8
-3 -5 -6 -6 -11 -11 -8 -10 -11 -11 -12 -11 -8 -11 -15 -14 -13 -11 -10 -10 -3 2 5 4 4 4 4 4 4 4 2 5 7 8 9 9 9 9 9 8 8 8 8 8
-2 -3 -4 -3 -7 -4 -12 -14 -12 -11 -12 -14 -13 -13 -13 -11 -8 -5 -4 -5 2 4 4 3 3 3 3 3 3 3 3 4 6 8 9 9 9 8 8 8 8 8 8 8
-6 -3 -2 -2 -6 -10 -11 -11 -11 -11 -11 -14 -11 -7 -5 -1 1 -1 1 4 3 3 2 2 2 2 2 2 3 3 4 4 6 7 8 9 9 8 8 8 8 9 8 8
-2 -2 -2 -4 -2 -3 -8 -8 -8 -7 -5 -1 0 2 2 2 5 4 3 3 2 2 1 1 1 0 0 2 3 3 4 5 6 7 8 9 9 8 8 8 8 8 8 8
0 2 1 -1 1 -3 -7 -5 -5 -2 1 0 2 1 -0 3 3 2 1 1 0 0 -0 -0 -1 -0 1 1 2 3 3 3 5 6 8 8 9 8 8 8 8 8 8 8
1 2 2 1 2 1 -3 -4 1 0 1 1 1 2 3 4 2 1 1 -0 -1 -1 -2 -2 -2 -1 -0 0 1 1 2 3 5 6 6 8 8 8 8 8 8 8 8 8
1 1 1 2 1 1 0 1 0 0 2 2 2 2 2 1 1 -0 -1 -2 -2 -3 -3 -3 -2 -2 -1 -1 -1 -0 1 2 2 3 6 7 8 8 7 8 8 7 7 7
-1 -1 2 1 1 -0 -1 -1 0 1 0 -0 -0 -0 -0 -1 -1 -2 -3 -4 -4 -4 -4 -4 -4 -4 -3 -2 -2 -2 -1 -0 0 3 3 4 5 7 7 7 7 7 6 6
0 1 -0 1 -1 -1 -1 -1 -2 -1 -1 -1 -1 -2 -2 -2 -2 -3 -4 -4 -5 -5 -5 -5 -5 -5 -4 -4 -3 -3 -2 -1 -0 0 -0 1 2 3 1 2 3 5 3 4
-1 -0 -0 0 -2 -2 -1 -2 -2 -2 -3 -2 -2 -2 -3 -3 -3 -4 -5 -5 -5 -6 -6 -6 -6 -6 -6 -5 -4 -4 -3 -3 -2 -1 -0 1 -0 -0 -0 -1 -1 -1 1 1

GFSCGP_850_dewp_123.txt.gz
Dewpoint
-8 -11 -11 -12 -11 -12 -12 -11 -11 -12 -14 -12 -10 -9 -9 -10 -9 -8 -9 -10 -12 -14 -13 -11 -8 -2 1 2 5 4 4 3 3 6 10 12 14 13 13 14 13 13 13 12
-11 -6 -10 -14 -14 -12 -12 -10 -10 -12 -15 -15 -11 -9 -11 -13 -11 -11 -11 -14 -15 -13 -9 -8 -3 1 3 4 5 7 7 7 8 7 10 12 13 13 13 13 12 11 12 12
-10 -12 -12 -10 -10 -14 -14 -11 -9 -10 -13 -14 -12 -10 -11 -15 -17 -16 -14 -15 -13 -9 -8 -3 0 1 4 5 9 9 8 8 10 10 11 13 13 12 12 13 11 10 11 11
-8 -12 -11 -11 -10 -9 -6 -10 -11 -10 -8 -7 -10 -9 -12 -14 -15 -14 -14 -12 -9 -5 -1 -1 -1 0 3 6 9 10 10 10 10 11 12 12 12 12 12 13 11 11 11 9
-8 -7 -8 -7 -8 -10 -8 -9 -9 -8 -7 -7 -10 -10 -11 -12 -10 -11 -11 -9 -5 -0 0 -1 -0 1 2 5 7 10 11 11 11 12 12 12 12 12 12 12 11 11 10 10
-12 -12 -8 -6 -10 -10 -8 -6 -8 -6 -5 -3 -6 -7 -9 -9 -9 -10 -10 -4 -0 -0 0 -0 0 1 2 5 8 8 10 11 12 12 11 12 11 12 12 12 12 11 10 11
-16 -14 -10 -10 -6 -8 -9 -6 0 -1 1 3 -7 -7 -9 -10 -12 -11 -6 -0 -1 0 1 0 1 2 3 5 7 8 8 10 11 11 11 12 12 12 12 12 11 11 10 10
-10 -11 -8 -4 -6 -5 -6 -5 -1 2 2 -1 -6 -4 -7 -12 -3 -2 -1 -1 0 0 1 0 0 1 3 4 6 8 8 8 11 10 11 12 12 12 12 12 12 12 11 9
-9 -10 -13 -6 -3 -3 -4 1 -5 -1 -2 -1 -3 -5 -2 -2 -1 -2 -3 -2 -0 0 0 -1 -0 1 2 1 3 7 9 9 10 10 10 12 12 12 12 12 11 11 12 10
-10 -7 -12 -12 -3 -5 3 -2 3 3 6 3 -3 -4 -1 -1 -3 -4 -6 -8 -9 -7 -5 -4 -1 -0 0 1 4 6 8 9 10 10 10 10 11 12 12 11 11 11 11 11
-11 -11 -13 -13 -7 -1 1 3 -2 0 3 1 -1 -5 -7 -1 -5 -9 -11 -12 -12 -13 -13 -7 -2 -0 1 2 4 6 7 8 10 10 10 10 11 11 11 11 11 11 11 10
-11 -5 -8 -11 -10 -4 -2 1 5 7 1 -0 -1 -2 -2 -4 -7 -7 -9 -11 -12 -12 -14 -12 -3 -1 1 3 4 5 6 7 8 10 10 9 10 11 11 11 10 11 11 10
-5 -6 -3 -8 -14 -3 0 -0 0 2 4 5 4 3 -1 -2 -5 -9 -13 -14 -14 -12 -12 -15 -7 -3 0 3 4 5 6 6 7 9 9 9 10 11 11 10 10 9 9 9
-6 -5 -5 -5 -9 0 -4 1 -3 -3 1 1 5 5 4 4 -5 -14 -15 -15 -15 -14 -13 -12 -10 -3 0 4 5 5 5 6 4 8 9 9 10 11 11 10 9 9 9 9
-6 -4 -5 -8 -12 -14 -13 -10 -6 -3 -3 -2 -5 -3 1 -6 -13 -14 -15 -15 -14 -14 -11 -7 -4 1 4 5 4 5 4 5 5 6 9 9 9 10 10 9 9 9 9 9
-8 0 -5 -7 -10 -12 -13 -13 -10 -8 -7 -7 -7 -8 -12 -13 -15 -16 -16 -14 -12 -12 -9 -4 1 2 4 4 4 4 4 3 4 4 8 9 9 10 10 9 9 8 9 9
-3 -3 -5 -4 -9 -9 -10 -14 -14 -13 -12 -9 -9 -10 -13 -15 -16 -14 -10 -9 -8 -10 1 2 3 3 3 3 3 3 3 3 4 4 5 8 9 10 10 9 9 9 9 8
-3 -4 -4 -2 -5 -2 -11 -16 -16 -13 -13 -14 -14 -15 -17 -14 -7 -5 -5 -6 -5 1 2 2 3 3 2 2 2 2 2 3 4 4 4 8 9 10 9 9 9 9 8 8
-9 -5 -3 -1 -2 -4 -8 -5 -8 -7 -8 -13 -12 -11 -8 -3 -1 -4 3 3 3 3 2 2 2 1 1 1 0 2 2 3 5 4 4 7 9 10 9 9 9 9 8 8
-1 0 0 -2 2 -1 -3 -8 -8 -7 -3 -2 -0 -0 0 0 3 2 2 1 1 1 1 0 0 0 -0 -0 1 2 2 3 5 5 4 7 9 9 9 9 9 9 8 9
-0 0 3 0 2 -3 1 -4 -5 0 2 1 1 1 1 1 2 1 0 0 -0 -0 -0 -1 -1 -1 -2 -1 0 1 1 1 3 4 5 6 8 9 8 9 9 9 9 9
1 1 0 2 2 3 1 -2 4 3 -0 1 2 0 -0 1 1 1 -0 -1 -1 -2 -2 -2 -2 -2 -3 -2 -0 0 -0 0 2 3 5 5 6 8 9 8 8 9 8 8
1 1 1 2 2 1 -0 -1 -1 -0 2 1 -0 0 0 -1 -1 -1 -2 -2 -3 -3 -3 -4 -4 -4 -4 -4 -1 -1 -1 -0 -0 0 4 4 6 8 8 8 8 8 8 8
0 0 2 1 -0 -1 -1 -2 -2 -2 -2 -1 -1 -1 -1 -2 -2 -2 -3 -3 -4 -4 -5 -5 -5 -5 -5 -5 -4 -3 -2 -1 -1 -1 0 1 3 3 6 7 8 7 7 7
-0 0 -1 2 -1 -3 -1 -2 -2 -2 -2 -2 -1 -1 -2 -3 -3 -3 -3 -4 -4 -5 -5 -5 -5 -6 -5 -6 -5 -4 -3 -3 -2 -1 -1 -0 1 1 0 3 3 4 4 5
-3 -1 -0 -0 -2 -2 -1 -2 -2 -2 -2 -2 -2 -3 -3 -4 -4 -4 -5 -5 -6 -7 -7 -7 -8 -8 -8 -8 -7 -5 -4 -4 -4 -3 -2 -2 -0 -1 -0 -1 -2 -2 -0 1

GFSCGP_850_dewp_126.txt.gz
Dewpoint
-12 -6 -7 -12 -11 -10 -10 -9 -9 -10 -12 -10 -6 -6 -7 -9 -9 -8 -7 -6 -8 -8 -10 -11 -10 -7 -4 -2 -0 -1 -4 -4 -2 1 8 11 13 9 11 11 13 14 14 12
-11 -8 -9 -9 -10 -11 -11 -9 -8 -9 -11 -10 -10 -6 -8 -10 -10 -11 -12 -7 -8 -9 -11 -13 -11 -5 0 2 3 3 5 6 6 6 3 7 11 13 12 12 13 13 14 13
-8 -9 -12 -12 -11 -8 -8 -9 -9 -10 -12 -11 -8 -6 -8 -12 -13 -12 -13 -14 -10 -11 -14 -10 -3 -0 2 4 6 8 9 9 8 8 8 7 10 13 13 13 13 12 13 13
-12 -10 -10 -10 -10 -11 -8 -11 -9 -9 -9 -7 -10 -5 -7 -10 -11 -11 -13 -14 -14 -12 -7 -2 -1 -0 2 4 7 9 11 10 9 9 9 9 10 12 13 13 12 12 14 13
-16 -16 -14 -11 -9 -10 -8 -10 -9 -7 -6 -6 -6 -4 -5 -9 -9 -11 -12 -13 -13 -8 -3 -1 -1 -0 1 4 5 7 7 11 11 11 11 12 11 12 12 11 12 12 12 13
-20 -18 -16 -15 -14 -11 -9 -9 -8 -6 -4 -1 -4 -4 -4 -7 -10 -8 -10 -11 -6 0 -0 -1 -0 1 2 5 7 8 9 8 8 11 11 12 12 12 11 11 11 11 12 12
-20 -16 -16 -17 -12 -7 -7 -6 -2 3 2 2 -4 -3 -4 -7 -8 -7 -9 -6 -0 -0 -0 -0 0 1 2 4 5 5 8 8 9 8 11 11 12 11 11 12 12 11 11 12
-18 -13 -14 -6 -4 -1 -2 0 0 -1 -0 -0 -4 0 -4 -7 -9 -6 -7 -1 -1 -0 0 -0 -0 0 2 2 2 5 5 9 9 10 10 10 11 11 11 13 12 12 12 11
-11 -11 -14 -15 -11 -6 1 2 -1 2 -1 -0 1 -2 -4 -5 -6 -1 -1 -0 -0 0 0 -1 -1 -1 1 0 2 5 6 7 9 10 10 10 11 12 12 13 12 11 11 11
-12 -9 -13 -15 -16 -11 -3 -2 3 4 5 3 -2 -2 1 -1 -3 -1 -0 -1 -1 -2 -3 -4 -3 -2 -0 1 3 5 6 7 7 9 10 10 10 12 12 12 12 11 11 11
-12 -9 -8 -10 -14 -13 -1 0 -1 2 6 2 2 -2 -2 3 4 0 -3 -7 -9 -11 -12 -11 -6 -3 -1 1 3 4 5 6 7 6 9 10 9 10 12 12 12 11 10 11
-13 -6 -4 -8 -12 -9 -7 4 5 4 5 3 2 1 -2 -0 3 2 -10 -10 -11 -11 -12 -13 -14 -6 -2 1 3 4 5 6 5 5 6 9 9 9 11 12 12 11 11 10
-7 -0 1 -3 -7 -7 -1 -2 -1 2 4 4 6 3 2 1 1 -4 -8 -11 -13 -14 -13 -13 -13 -14 -5 -2 4 5 5 4 4 4 5 8 9 9 9 11 12 11 11 10
-3 -6 -6 -4 -6 -1 -5 -6 -7 -0 2 1 -0 2 6 5 4 2 -3 -14 -15 -15 -14 -13 -10 -10 2 5 5 5 5 5 4 3 5 8 9 10 9 11 11 11 11 9
-1 -3 -8 -8 -7 -11 -13 -13 -12 -9 -2 -1 -2 -1 1 3 2 2 1 -15 -15 -14 -13 -12 -9 2 3 4 4 4 4 4 4 3 4 6 9 9 10 10 11 11 10 8
-2 1 2 2 -5 -9 -9 -9 -13 -14 -10 -7 -7 -4 -7 -4 -5 -8 -14 -14 -11 -10 -10 -9 2 3 3 3 3 3 3 3 3 3 3 4 7 9 10 10 11 10 9 8
-4 -4 -3 -2 -7 -7 -6 -11 -12 -16 -15 -13 -8 -8 -9 -10 -7 -4 -4 -5 -5 -7 -2 1 3 3 2 2 2 3 2 2 2 3 3 4 6 8 9 10 10 10 9 9
-4 -2 -3 -1 -4 -2 -7 -6 -7 -14 -14 -14 -14 -14 -6 -1 -2 -1 3 3 3 3 2 2 2 2 2 2 1 1 0 1 2 3 3 4 5 7 9 9 10 10 9 9
-5 -1 -1 -1 -4 -6 -7 -1 -5 -6 -8 -1 -0 0 -0 -0 -1 1 2 2 1 1 1 0 0 0 0 0 -0 0 1 0 2 3 4 4 4 7 8 9 10 10 9 9
-5 -3 2 -1 2 -1 2 -1 -2 -5 -3 3 0 1 1 1 2 2 1 0 1 0 -1 -1 -1 -1 -1 -2 -1 -0 -0 -0 1 2 3 5 5 6 8 8 10 9 9 9
-1 -1 2 2 2 1 0 -1 -3 1 2 2 1 1 0 1 1 0 0 -0 -1 -1 -2 -2 -2 -2 -3 -3 -3 -1 -1 -2 -0 2 3 4 4 6 6 7 9 9 9 9
1 0 -0 0 0 1 -1 -3 0 -1 -1 -1 -0 0 1 0 -0 -1 -2 -2 -3 -3 -3 -4 -4 -4 -4 -4 -4 -4 -2 -3 -2 0 2 3 4 5 6 6 9 9 9 8
0 1 2 2 1 0 -1 -1 -2 -2 -2 -1 -0 -0 -1 -2 -2 -2 -3 -3 -4 -4 -5 -5 -5 -5 -5 -5 -6 -5 -3 -4 -2 -1 0 2 3 3 5 6 9 9 8 8
-1 0 1 0 -0 -3 -1 -1 -2 -2 -2 -2 -1 -1 -1 -3 -3 -3 -4 -4 -4 -5 -5 -6 -6 -6 -6 -6 -7 -6 -5 -4 -3 -2 -1 -1 -0 2 3 3 1 8 8 7
0 1 -1 0 -1 -3 -2 -2 -2 -2 -2 -2 -2 -2 -3 -3 -4 -3 -4 -5 -5 -6 -6 -7 -7 -8 -8 -8 -8 -7 -6 -5 -4 -3 -2 -2 -1 -1 0 1 -1 0 7 6
-3 -1 -0 -0 -1 -1 -1 -2 -3 -3 -4 -3 -4 -4 -4 -4 -4 -5 -5 -7 -7 -8 -8 -9 -9 -9 -9 -9 -8 -8 -7 -6 -6 -5 -4 -4 -3 -3 -2 -1 -1 -3 0 2